Date StartTime U_cm/s V_cm/s W_cm/s Ustd_cm/s Vstd_cm/s Wstd_cm/s Uvar_(cm/s)^2 Vvar_(cm/s)^2 Wvar_(cm/s)^2 KE_(m/s)^2 TurbulentKE_(m/s)^2 HorizWindSpeed_cm/s FrictionSpeec_cm/s DragCoef SpeedOfSound_m/s SonicTemperature_C Pressure_mb 
06/02/2014  00:00:00     -106.758      -47.235        2.808       46.652       56.176       23.797     2176.443     3155.705      566.289        0.977        0.295      116.741       25.733        0.049      343.848       20.248      857.865
06/02/2014  00:01:00     -146.108       -0.420       -3.628       49.055       50.593       26.073     2406.401     2559.665      679.811        1.350        0.282      146.109       25.065        0.029      343.860       20.268      857.885
06/02/2014  00:02:00      -98.279       43.314      -13.439       37.744       20.620       13.581     1424.595      425.165      184.432        0.687        0.102      107.401       10.148        0.009      343.782       20.135      857.890
06/02/2014  00:03:00     -112.829       52.688       -8.174       53.056       72.425       24.391     2814.924     5245.313      594.940        1.211        0.433      124.525       17.103        0.019      343.982       20.478      857.879
06/02/2014  00:04:00      -84.978       77.465      -11.125       23.454       40.059       18.492      550.109     1604.700      341.960        0.792        0.125      114.987       17.424        0.023      343.873       20.292      857.884
06/02/2014  00:05:00      -96.281       41.525       -6.832       38.736       22.785       19.384     1500.440      519.135      375.723        0.672        0.120      104.854       15.288        0.021      343.695       19.988      857.896
06/02/2014  00:06:00      -46.900       68.036       -8.559       21.747       26.585       16.188      472.953      706.765      262.062        0.417        0.072       82.635       14.460        0.031      343.686       19.971      857.910
06/02/2014  00:07:00      -26.672       85.187       -8.060       17.161       18.137       15.171      294.505      328.946      230.155        0.444        0.043       89.265       11.613        0.017      343.717       20.025      857.901
06/02/2014  00:08:00      -44.990       92.979      -12.192       28.038       36.542       16.344      786.132     1335.316      267.138        0.660        0.119      103.291       14.701        0.020      343.586       19.801      857.901
06/02/2014  00:09:00      -55.052       45.962       -9.370       20.226       29.382       15.495      409.107      863.277      240.096        0.337        0.076       71.716       13.787        0.037      343.503       19.659      857.910
06/02/2014  00:10:00      -37.718       -5.674      -11.221       28.370       14.176       11.510      804.847      200.967      132.470        0.136        0.057       38.142        9.447        0.061      343.502       19.660      857.921
06/02/2014  00:11:00      -58.170       -8.281       -7.456       15.856       17.948       12.105      251.403      322.124      146.530        0.211        0.036       58.756        5.406        0.008      343.429       19.536      857.934
06/02/2014  00:12:00      -67.626       29.105       -7.672       38.019       35.555       26.799     1445.482     1264.155      718.160        0.445        0.171       73.624       25.125        0.116      343.466       19.598      857.935
06/02/2014  00:13:00      -78.661      -20.180       -2.547       21.412       41.248       11.800      458.494     1701.377      139.240        0.445        0.115       81.209        7.588        0.009      343.373       19.439      857.937
06/02/2014  00:14:00      -51.166      -44.395        6.818       49.967       35.270       21.113     2496.747     1243.973      445.753        0.441        0.209       67.742       22.672        0.112      343.173       19.099      857.939
06/02/2014  00:15:00      -92.975      -45.868        1.705       26.000       26.203       15.769      676.007      686.591      248.657        0.618        0.081      103.674       14.161        0.019      343.164       19.082      857.946
06/02/2014  00:16:00     -100.667      -10.798      -11.681       22.958       21.077       13.913      527.089      444.221      193.574        0.578        0.058      101.244       10.819        0.011      343.032       18.858      857.940
06/02/2014  00:17:00     -128.241       -7.325       -8.838       39.395       25.065       20.674     1551.934      628.237      427.425        0.959        0.130      128.450       23.475        0.033      343.008       18.816      857.942
06/02/2014  00:18:00     -100.559      -12.287      -15.087       22.677       28.006       13.959      514.266      784.347      194.855        0.599        0.075      101.307       11.634        0.013      343.046       18.881      857.940
06/02/2014  00:19:00      -76.309      -23.780       -4.124       22.055       18.623       16.534      486.440      346.827      273.387        0.376        0.055       79.929       12.502        0.024      343.180       19.109      857.939
06/02/2014  00:20:00      -61.912       -9.774       -3.753       29.292       17.208       16.217      857.993      296.123      262.994        0.268        0.071       62.679       12.877        0.042      343.111       18.994      857.933
06/02/2014  00:21:00     -120.660        9.177      -11.259       33.018       28.055       18.149     1090.183      787.058      329.371        0.849        0.110      121.009       16.942        0.020      343.186       19.121      857.938
06/02/2014  00:22:00     -150.537      -14.259      -21.431       32.660       30.340       17.233     1066.675      920.505      296.962        1.280        0.114      151.211       11.691        0.006      342.946       18.712      857.953
06/02/2014  00:23:00     -118.144       -3.900       -9.580       52.355       68.956       29.782     2741.091     4754.872      886.987        1.122        0.419      118.208       31.652        0.072      342.815       18.487      857.953
06/02/2014  00:24:00      -90.604       46.694      -13.958       41.650       65.231       26.788     1734.687     4255.020      717.597        0.864        0.335      101.928       25.252        0.061      342.931       18.686      857.952
06/02/2014  00:25:00     -125.518       52.414      -25.188       33.451       42.936       21.661     1118.979     1843.473      469.195        1.128        0.172      136.022       18.934        0.019      342.966       18.745      857.952
06/02/2014  00:26:00     -128.801      -31.397      -11.298       54.819       65.172       29.124     3005.095     4247.377      848.233        1.290        0.405      132.573       21.662        0.027      342.815       18.487      857.966
06/02/2014  00:27:00     -153.440      -34.904       -5.401       52.259       48.524       33.817     2731.053     2354.557     1143.564        1.551        0.311      157.360       27.065        0.030      342.721       18.329      857.973
06/02/2014  00:28:00     -139.383       -4.832      -10.661       53.439       50.558       27.212     2855.683     2556.140      740.481        1.286        0.308      139.467       19.882        0.020      342.655       18.217      857.978
06/02/2014  00:29:00     -101.262        4.209       -8.487       28.871       38.659       21.900      833.522     1494.529      479.624        0.658        0.140      101.349       14.284        0.020      342.688       18.273      857.970
06/02/2014  00:30:00      -75.068       54.483      -14.078       31.043       53.424       24.006      963.696     2854.094      576.281        0.660        0.220       92.756       20.611        0.049      342.792       18.448      857.964
06/02/2014  00:31:00     -100.499       35.653      -13.527       55.440       59.220       32.715     3073.551     3507.056     1070.262        0.960        0.383      106.636       33.110        0.096      342.804       18.469      857.966
06/02/2014  00:32:00     -124.224      -18.961      -15.056       39.627       31.006       19.566     1570.333      961.363      382.841        0.947        0.146      125.663       18.247        0.021      342.663       18.230      857.961
06/02/2014  00:33:00     -104.016       51.425      -24.450       35.688       37.075       19.311     1273.659     1374.571      372.933        0.854        0.151      116.034       17.949        0.024      342.654       18.214      857.944
06/02/2014  00:34:00     -148.939      151.260      -36.281       42.939       42.400       24.295     1843.800     1797.798      590.226        2.530        0.212      212.280       23.040        0.012      342.741       18.359      857.921
06/02/2014  00:35:00     -142.871      137.631      -34.182       45.073       50.228       29.079     2031.611     2522.853      845.610        2.296        0.270      198.379       26.511        0.018      342.946       18.710      857.918
06/02/2014  00:36:00     -152.126      103.284      -31.827       42.076       45.323       27.949     1770.352     2054.188      781.166        1.971        0.230      183.875       21.679        0.014      342.867       18.576      857.919
06/02/2014  00:37:00     -114.382       92.312      -22.011       33.744       36.834       24.773     1138.642     1356.721      613.696        1.260        0.155      146.986       19.171        0.017      342.816       18.489      857.919
06/02/2014  00:38:00     -123.127      -11.376       -8.151       47.633       36.749       20.727     2268.897     1350.462      429.600        0.970        0.202      123.651       14.638        0.014      342.664       18.232      857.912
06/02/2014  00:39:00      -48.649      -12.862       -1.543       34.160       23.520       20.129     1166.931      553.204      405.196        0.233        0.106       50.321       19.070        0.144      342.592       18.109      857.906
06/02/2014  00:40:00     -103.264      -26.483       -3.986       24.942       24.393       20.357      622.087      595.041      414.418        0.651        0.082      106.606       16.277        0.023      342.626       18.166      857.913
06/02/2014  00:41:00     -113.262      -48.562      -15.340       60.748       25.675       16.349     3690.310      659.202      267.291        1.002        0.231      123.234       21.990        0.032      342.625       18.163      857.917
06/02/2014  00:42:00     -142.688        8.530      -16.259       35.271       43.856       26.485     1244.047     1923.348      701.436        1.228        0.193      142.943       16.177        0.013      342.564       18.062      857.925
06/02/2014  00:43:00     -107.291      -23.862      -16.221       29.740       28.322       16.271      884.450      802.137      264.759        0.715        0.098      109.913       14.512        0.017      342.657       18.220      857.932
06/02/2014  00:44:00      -99.918      -51.036      -11.164       36.600       35.969       21.442     1339.555     1293.759      459.769        0.790        0.155      112.197        8.973        0.006      342.563       18.061      857.927
06/02/2014  00:45:00     -119.804      -39.753       -7.324       28.819       25.700       16.194      830.533      660.473      262.250        0.887        0.088      126.227        9.968        0.006      342.537       18.017      857.918
06/02/2014  00:46:00     -133.373      -77.605       -6.451       25.093       25.689       19.150      629.637      659.908      366.721        1.275        0.083      154.307       12.800        0.007      342.541       18.022      857.926
06/02/2014  00:47:00      -84.094      -17.305        2.304       49.476       28.664       19.553     2447.837      821.599      382.331        0.551        0.183       85.856       19.081        0.049      342.420       17.816      857.925
06/02/2014  00:48:00      -65.624      -42.615       -1.581       30.837       32.351       28.821      950.903     1046.560      830.662        0.448        0.141       78.247       17.898        0.052      342.488       17.933      857.918
06/02/2014  00:49:00      -51.729      -44.267       18.113       56.277       46.933       25.343     3167.091     2202.666      642.262        0.549        0.301       68.084       27.658        0.165      342.362       17.717      857.932
06/02/2014  00:50:00      -85.047      -59.696        8.680       37.345       38.528       23.781     1394.670     1484.409      565.516        0.716        0.172      103.907       20.014        0.037      342.377       17.742      857.943
06/02/2014  00:51:00     -133.731      -48.381      -12.070       46.687       35.049       18.474     2179.641     1228.408      341.293        1.206        0.187      142.213       18.035        0.016      342.348       17.693      857.948
06/02/2014  00:52:00      -84.120      -20.172        3.882       45.834       38.118       25.192     2100.752     1452.947      634.614        0.584        0.209       86.505       22.616        0.068      342.207       17.454      857.947
06/02/2014  00:53:00     -152.836        2.621      -18.128       29.479       33.551       19.908      869.005     1125.648      396.337        1.304        0.120      152.859       17.873        0.014      342.198       17.440      857.952
06/02/2014  00:54:00      -98.265      -35.933       -6.253       23.776       33.505       18.024      565.285     1122.590      324.856        0.650        0.101      104.629       14.683        0.020      342.155       17.367      857.966
06/02/2014  00:55:00      -86.712      -37.274       -2.457       43.841       28.987       22.476     1922.057      840.223      505.179        0.609        0.163       94.384       22.944        0.059      342.098       17.270      857.976
06/02/2014  00:56:00      -94.221      -17.546       -5.813       17.381       17.110       12.860      302.090      292.756      165.370        0.499        0.038       95.840       10.598        0.012      342.128       17.322      857.977
06/02/2014  00:57:00     -158.950      -66.947       -8.407       46.738       36.390       22.283     2184.472     1324.223      496.542        1.691        0.200      172.473       18.360        0.011      342.088       17.253      857.994
06/02/2014  00:58:00     -124.651      -42.842       -1.925       47.027       39.825       28.973     2211.558     1586.065      839.454        1.101        0.232      131.808       27.130        0.042      341.974       17.059      858.015
06/02/2014  00:59:00     -137.346      -71.829      -10.468       27.570       39.373       22.787      760.130     1550.250      519.234        1.348        0.141      154.995       13.680        0.008      342.138       17.338      858.020
06/02/2014  01:00:00     -121.830      -35.326       -4.522       30.529       29.809       18.317      932.001      888.563      335.512        0.913        0.108      126.848       10.146        0.006      342.102       17.276      858.025
06/02/2014  01:01:00     -115.369      -34.569       -4.967       36.110       30.055       15.455     1303.897      903.280      238.861        0.849        0.122      120.437       13.403        0.012      342.179       17.408      858.022
06/02/2014  01:02:00      -65.888      -52.812        6.309       49.047       29.288       21.027     2405.583      857.791      442.155        0.544        0.185       84.441       21.112        0.063      342.109       17.288      858.016
06/02/2014  01:03:00      -71.619      -66.329        1.919       39.771       38.254       21.536     1581.751     1463.388      463.800        0.652        0.175       97.616       20.192        0.043      342.157       17.370      858.002
06/02/2014  01:04:00     -122.082      -46.744        1.362       40.490       31.667       24.698     1639.423     1002.782      609.996        1.017        0.163      130.725       22.990        0.031      342.122       17.311      857.988
06/02/2014  01:05:00     -145.166      -56.830       -6.801       22.288       22.107       15.767      496.749      488.719      248.604        1.279        0.062      155.893       10.588        0.005      342.197       17.439      857.993
06/02/2014  01:06:00     -102.186      -42.212        4.954       55.835       43.555       25.094     3117.560     1897.011      629.709        0.895        0.282      110.562       27.980        0.064      342.068       17.219      857.985
06/02/2014  01:07:00      -79.011      -27.672        1.983       54.473       32.531       19.205     2967.341     1058.281      368.840        0.570        0.220       83.716       22.935        0.075      341.983       17.074      857.976
06/02/2014  01:08:00     -120.503      -65.963       -4.763       42.895       26.137       25.737     1839.941      683.164      662.419        1.104        0.159      137.376       27.018        0.039      342.088       17.252      857.965
06/02/2014  01:09:00      -94.779      -75.164       -3.109       52.088       51.596       23.016     2713.178     2662.102      529.745        1.027        0.295      120.965       26.507        0.048      342.051       17.188      857.955
06/02/2014  01:10:00     -107.584      -80.519       -3.378       39.463       33.517       24.463     1557.343     1123.404      598.450        1.067        0.164      134.379       21.821        0.026      342.041       17.172      857.947
06/02/2014  01:11:00      -84.222      -61.861       -3.375       60.143       38.349       31.081     3617.172     1470.650      966.016        0.849        0.303      104.500       23.186        0.049      341.959       17.035      857.934
06/02/2014  01:12:00     -102.386      -51.958        4.663       32.275       34.938       22.220     1041.656     1220.684      493.730        0.798        0.138      114.815       15.653        0.019      341.969       17.050      857.938
06/02/2014  01:13:00     -125.526      -40.526       -6.281       29.023       27.777       15.654      842.341      771.544      245.063        0.965        0.093      131.906       11.519        0.008      342.015       17.128      857.931
06/02/2014  01:14:00      -72.169      -22.432        3.299       49.027       28.534       21.584     2403.613      814.215      465.864        0.470        0.184       75.575       21.917        0.084      341.891       16.918      857.920
06/02/2014  01:15:00      -94.938      -20.677       -0.171       40.741       34.732       24.292     1659.843     1206.308      590.090        0.645        0.173       97.164       23.306        0.058      341.871       16.885      857.925
06/02/2014  01:16:00      -64.470       -6.686        7.802       47.730       35.511       26.357     2278.188     1261.061      694.710        0.425        0.212       64.816       28.897        0.199      341.688       16.575      857.928
06/02/2014  01:17:00      -81.804        2.069        2.910       48.423       34.167       26.907     2344.771     1167.405      723.968        0.547        0.212       81.830       29.375        0.129      341.635       16.485      857.933
06/02/2014  01:18:00     -120.595      -16.123       -7.065       21.900       24.096       13.947      479.627      580.611      194.526        0.805        0.063      121.668       10.718        0.008      341.744       16.668      857.931
06/02/2014  01:19:00      -99.571      -51.623        7.095       41.579       38.559       22.277     1728.790     1486.800      496.259        0.817        0.186      112.158       23.276        0.043      341.765       16.706      857.945
06/02/2014  01:20:00      -88.168      -53.628        1.887       40.654       30.694       22.149     1652.715      942.105      490.589        0.687        0.154      103.197       20.320        0.039      341.802       16.767      857.956
06/02/2014  01:21:00      -73.978      -43.209        5.339       35.975       24.954       18.594     1294.222      622.704      345.754        0.482        0.113       85.672       20.118        0.055      341.800       16.764      857.957
06/02/2014  01:22:00      -89.153      -42.038       -1.310       29.682       29.171       12.482      881.028      850.945      155.802        0.580        0.094       98.567        9.900        0.010      341.783       16.736      857.954
06/02/2014  01:23:00      -82.480      -32.446       -2.853       41.531       25.706       19.009     1724.804      660.823      361.323        0.530        0.137       88.632       22.669        0.065      341.698       16.591      857.965
06/02/2014  01:24:00      -81.031      -54.511       -5.226       42.576       23.869       19.146     1812.699      569.753      366.556        0.616        0.137       97.660       14.727        0.023      341.736       16.657      857.969
06/02/2014  01:25:00      -57.092      -62.509        5.928       48.372       38.001       24.974     2339.895     1444.050      623.716        0.580        0.220       84.658       26.186        0.096      341.777       16.726      857.963
06/02/2014  01:26:00      -72.890      -74.816        1.317       50.190       47.154       23.466     2519.072     2223.476      550.653        0.810        0.265      104.453       25.492        0.060      341.794       16.754      857.971
06/02/2014  01:27:00      -53.038      -67.648        0.606       61.849       57.154       27.244     3825.327     3266.603      742.224        0.761        0.392       85.961       24.980        0.084      341.759       16.695      857.967
06/02/2014  01:28:00      -93.955      -67.017        1.425       66.757       44.564       27.404     4456.445     1985.911      750.962        1.026        0.360      115.407       14.284        0.015      341.717       16.625      857.956
06/02/2014  01:29:00     -103.234      -64.544       -4.638       54.384       44.214       22.514     2957.621     1954.886      506.885        1.013        0.271      121.750       19.989        0.027      341.648       16.507      857.955
06/02/2014  01:30:00     -146.755      -73.425       -0.556       59.889       41.613       32.679     3586.642     1731.679     1067.929        1.666        0.319      164.099       29.184        0.032      341.667       16.537      857.960
06/02/2014  01:31:00     -118.505      -74.447       -1.719       58.652       39.902       22.745     3440.048     1592.200      517.315        1.257        0.277      139.950       22.788        0.027      341.667       16.539      857.957
06/02/2014  01:32:00     -104.040      -93.628        2.788       42.983       39.348       25.307     1847.507     1548.228      640.464        1.182        0.202      139.966       22.623        0.026      341.650       16.509      857.964
06/02/2014  01:33:00     -104.867      -78.947       -0.429       51.696       52.542       26.790     2672.432     2760.680      717.684        1.169        0.308      131.263       23.632        0.032      341.671       16.547      857.975
06/02/2014  01:34:00     -134.829      -76.657        1.005       47.007       50.384       33.922     2209.633     2538.597     1150.682        1.498        0.295      155.097       25.967        0.028      341.692       16.581      857.975
06/02/2014  01:35:00     -135.919      -94.507        6.998       82.036       64.654       36.521     6729.836     4180.191     1333.754        1.985        0.612      165.546       44.631        0.073      341.667       16.538      857.973
06/02/2014  01:36:00     -143.928      -79.148        9.151       60.282       55.300       35.185     3633.925     3058.128     1237.965        1.750        0.397      164.255       34.744        0.045      341.674       16.548      857.977
06/02/2014  01:37:00     -138.772     -105.394        0.913       64.606       46.121       26.958     4173.903     2127.115      726.760        1.870        0.351      174.257       22.091        0.016      341.620       16.456      857.971
06/02/2014  01:38:00     -128.582     -117.634        3.636       62.648       50.790       34.909     3924.729     2579.609     1218.643        1.905        0.386      174.273       34.579        0.039      341.513       16.276      857.958
06/02/2014  01:39:00     -106.644      -93.456       -4.891       42.671       37.347       29.847     1820.815     1394.796      890.823        1.212        0.205      141.799       27.654        0.038      341.512       16.274      857.964
06/02/2014  01:40:00      -81.775      -58.545       10.440       74.456       39.755       31.626     5543.710     1580.457     1000.187        0.917        0.406      100.572       28.798        0.082      341.462       16.190      857.963
06/02/2014  01:41:00     -108.294      -73.304        3.634       68.910       53.028       35.989     4748.642     2811.981     1295.199        1.298        0.443      130.771       34.213        0.068      341.391       16.070      857.950
06/02/2014  01:42:00     -106.613     -101.807        1.445       46.975       48.391       31.435     2206.672     2341.729      988.134        1.363        0.277      147.414       26.098        0.031      341.388       16.066      857.946
06/02/2014  01:43:00     -120.773      -90.801        4.252       59.593       45.890       28.141     3551.330     2105.849      791.912        1.465        0.322      151.099       30.263        0.040      341.366       16.027      857.937
06/02/2014  01:44:00      -92.204      -50.763        5.353       46.357       31.036       23.372     2148.985      963.233      546.233        0.738        0.183      105.254       24.074        0.052      341.406       16.096      857.930
06/02/2014  01:45:00      -78.071      -63.897        2.840       41.989       28.699       23.446     1763.110      823.629      549.717        0.666        0.157      100.886       24.019        0.057      341.370       16.036      857.937
06/02/2014  01:46:00      -62.398      -60.838        6.501       51.125       35.923       24.170     2613.798     1290.443      584.203        0.606        0.224       87.148       24.152        0.077      341.389       16.067      857.938
06/02/2014  01:47:00      -75.273      -89.682        1.207       47.740       52.559       25.559     2279.061     2762.481      653.249        0.970        0.285      117.085       24.724        0.045      341.320       15.950      857.934
06/02/2014  01:48:00      -90.885      -74.399        3.672       58.308       45.453       29.062     3399.774     2066.004      844.601        1.006        0.316      117.454       24.789        0.045      341.326       15.960      857.947
06/02/2014  01:49:00     -104.437      -79.971       -7.878       30.620       38.513       19.828      937.602     1483.223      393.156        1.009        0.141      131.538       17.194        0.017      341.390       16.070      857.939
06/02/2014  01:50:00      -55.046      -42.148        3.917       34.472       36.028       20.800     1188.314     1298.032      432.642        0.387        0.146       69.329       20.899        0.091      341.332       15.972      857.937
06/02/2014  01:51:00      -20.901      -33.683        7.704       21.062       23.393       12.922      443.619      547.217      166.982        0.139        0.058       39.641       12.937        0.107      341.339       15.983      857.949
06/02/2014  01:52:00      -37.999        9.043        3.028       18.824       18.154       14.604      354.344      329.565      213.277        0.122        0.045       39.060        8.283        0.045      341.167       15.692      857.958
06/02/2014  01:53:00      -11.868       20.686        5.100       13.559       10.192        9.941      183.837      103.873       98.818        0.049        0.019       23.848        8.436        0.125      341.019       15.441      857.950
06/02/2014  01:54:00       12.505        8.708        4.930       15.884       13.306        7.963      252.293      177.054       63.404        0.037        0.025       15.239        8.282        0.295      340.989       15.390      857.963
06/02/2014  01:55:00       23.909       24.401        2.173       12.442       11.573        6.927      154.794      133.939       47.986        0.075        0.017       34.162        3.401        0.010      341.007       15.420      857.960
06/02/2014  01:56:00        2.549       37.182        1.838        9.944       10.660       11.077       98.879      113.645      122.689        0.086        0.017       37.269        3.022        0.007      341.033       15.466      857.954
06/02/2014  01:57:00      -11.369       25.186        5.428       13.881        9.603        9.798      192.685       92.226       96.006        0.059        0.019       27.633        5.752        0.043      341.016       15.436      857.961
06/02/2014  01:58:00       -7.274       19.936        6.518       12.568       18.860       10.901      157.962      355.697      118.833        0.056        0.032       21.222        9.302        0.192      341.052       15.499      857.959
06/02/2014  01:59:00       -9.241        3.105       -8.680       15.251        7.734       13.678      232.580       59.816      187.101        0.032        0.024        9.749       12.311        1.595      340.914       15.264      857.945
06/02/2014  02:00:00      -18.643      -14.478       -0.752       23.556        9.820       12.441      554.894       96.437      154.789        0.068        0.040       23.605       12.423        0.277      340.984       15.382      857.943
06/02/2014  02:01:00        0.340      -18.627       -7.470       29.407       18.656       19.335      864.761      348.057      373.823        0.099        0.079       18.631       20.088        1.163      340.621       14.770      857.943
06/02/2014  02:02:00      -61.355      -31.862        1.549       27.153       22.708       15.319      737.259      515.634      234.676        0.313        0.074       69.135       15.474        0.050      340.911       15.259      857.932
06/02/2014  02:03:00     -115.610        0.263       -9.913       31.703       13.208       11.267     1005.070      174.461      126.945        0.738        0.065      115.610       12.229        0.011      340.972       15.362      857.916
06/02/2014  02:04:00      -91.735      -21.249        0.546       34.093       21.054       15.345     1162.349      443.277      235.471        0.535        0.092       94.164       16.683        0.031      340.857       15.167      857.911
06/02/2014  02:05:00      -99.059      -23.841       -0.083       28.327       22.295       18.250      802.419      497.065      333.046        0.601        0.082      101.888       17.079        0.028      340.877       15.201      857.915
06/02/2014  02:06:00      -98.829      -17.789        2.416       38.683       33.629       16.066     1496.365     1130.909      258.123        0.649        0.144      100.417       12.314        0.015      340.952       15.327      857.913
06/02/2014  02:07:00      -64.821      -23.451        4.867       40.601       26.098       22.772     1648.444      681.110      518.568        0.381        0.142       68.933       21.460        0.097      340.995       15.401      857.897
06/02/2014  02:08:00      -19.904      -15.585       18.578       23.030       25.021       17.126      530.375      626.027      293.305        0.122        0.072       25.280       14.264        0.318      340.869       15.188      857.890
06/02/2014  02:09:00      -34.089      -33.031        4.450       42.381       30.873       13.090     1796.173      953.165      171.340        0.260        0.146       47.467       19.958        0.177      341.023       15.448      857.898
06/02/2014  02:10:00      -51.636      -54.892       -1.721       25.877       22.658       17.370      669.623      513.405      301.712        0.358        0.074       75.361       14.062        0.035      341.123       15.619      857.895
06/02/2014  02:11:00      -12.347      -35.814       -5.283       27.133       38.528       16.853      736.173     1484.421      284.036        0.198        0.125       37.883       21.276        0.315      341.111       15.598      857.890
06/02/2014  02:12:00      -48.908      -18.963        3.202       19.249       16.019       12.655      370.515      256.592      160.146        0.177        0.039       52.456        8.887        0.029      341.112       15.598      857.897
06/02/2014  02:13:00      -59.008      -66.082       -5.733       26.345       34.209       12.478      694.062     1170.259      155.697        0.495        0.101       88.593        8.745        0.010      341.160       15.680      857.910
06/02/2014  02:14:00      -24.542      -47.078        1.294       28.358       29.224       17.469      804.197      854.030      305.167        0.239        0.098       53.091        9.697        0.033      341.181       15.716      857.909
06/02/2014  02:15:00      -12.779      -48.286        1.029       23.896       34.407       16.061      571.035     1183.840      257.969        0.225        0.101       49.949        9.961        0.040      341.124       15.619      857.902
06/02/2014  02:16:00      -41.903      -51.724        3.168       37.421       31.602       15.537     1400.295      998.671      241.407        0.354        0.132       66.567       15.355        0.053      341.077       15.539      857.909
06/02/2014  02:17:00      -26.097      -48.671        6.141       27.680       27.895       16.140      766.170      778.119      260.512        0.245        0.090       55.226       14.936        0.073      341.102       15.582      857.903
06/02/2014  02:18:00      -40.146      -44.841       -0.845       29.740       27.799       20.085      884.446      772.785      403.421        0.284        0.103       60.187       13.584        0.051      341.119       15.610      857.900
06/02/2014  02:19:00      -46.948      -37.110        4.554       28.786       21.550       18.074      828.611      464.420      326.675        0.261        0.081       59.843       18.313        0.094      341.075       15.537      857.898
06/02/2014  02:20:00      -60.387      -45.263       -1.450       29.487       24.001       12.933      869.499      576.037      167.253        0.365        0.081       75.467        9.236        0.015      341.098       15.576      857.900
06/02/2014  02:21:00      -58.614      -40.460        0.786       23.356       20.925       16.029      545.513      437.853      256.922        0.316        0.062       71.223       11.149        0.025      340.991       15.394      857.892
06/02/2014  02:22:00      -49.405      -28.610        5.400       29.568       28.695       17.411      874.246      823.406      303.159        0.264        0.100       57.091       16.979        0.088      340.956       15.334      857.886
06/02/2014  02:23:00      -20.482      -21.565        5.696       29.972       17.855       15.062      898.296      318.786      226.862        0.118        0.072       29.742       13.472        0.205      340.872       15.193      857.882
06/02/2014  02:24:00      -13.737      -24.166        2.184       26.446       20.726       15.534      699.378      429.575      241.315        0.107        0.069       27.797       13.635        0.241      341.081       15.546      857.883
06/02/2014  02:25:00      -16.263      -20.041        8.495       26.773       16.677       14.906      716.788      278.130      222.194        0.098        0.061       25.810       14.683        0.324      341.062       15.514      857.887
06/02/2014  02:26:00      -38.877      -26.954        4.283       31.686       18.663       12.544     1003.994      348.316      157.364        0.188        0.075       47.306       16.603        0.123      341.000       15.408      857.885
06/02/2014  02:27:00      -13.058       -6.659        2.608       12.893        9.395        8.846      166.235       88.266       78.245        0.028        0.017       14.658        4.371        0.089      340.942       15.312      857.881
06/02/2014  02:28:00      -60.042      -37.279       -2.223       28.029       13.748       13.356      785.607      189.008      178.385        0.308        0.058       70.674        9.609        0.018      341.056       15.506      857.883
06/02/2014  02:29:00      -68.701      -25.674       -5.946       19.376       11.312        9.459      375.420      127.950       89.467        0.300        0.030       73.341       10.422        0.020      340.971       15.360      857.893
06/02/2014  02:30:00      -59.040        5.160       -2.586       21.788       17.013        9.556      474.732      289.437       91.316        0.219        0.043       59.265        9.817        0.027      340.912       15.260      857.894
06/02/2014  02:31:00      -70.069       -0.882       -3.726       22.124       19.448       10.616      489.489      378.221      112.708        0.295        0.049       70.074        4.699        0.004      340.774       15.026      857.896
06/02/2014  02:32:00      -53.812       -3.891       -6.233       18.379       12.802       10.240      337.790      163.898      104.862        0.178        0.030       53.953        9.441        0.031      340.521       14.600      857.893
06/02/2014  02:33:00      -52.069      -25.450      -10.279       15.332       16.136       10.751      235.076      260.385      115.580        0.204        0.031       57.956        7.391        0.016      340.399       14.393      857.890
06/02/2014  02:34:00      -28.645        1.159       -0.230       28.679       20.864       13.443      822.475      435.314      180.703        0.113        0.072       28.669       15.368        0.287      340.353       14.314      857.888
06/02/2014  02:35:00      -36.907      -11.595       -2.436       13.606       21.458       12.945      185.126      460.448      167.565        0.116        0.041       38.686        7.971        0.042      340.256       14.150      857.880
06/02/2014  02:36:00      -90.278      -18.324       -0.918       43.175       22.730       17.768     1864.099      516.663      315.716        0.559        0.135       92.119       15.811        0.029      340.345       14.303      857.873
06/02/2014  02:37:00      -98.575      -39.258        0.134       30.396       40.043       19.870      923.907     1603.470      394.827        0.709        0.146      106.105       13.917        0.017      340.311       14.243      857.858
06/02/2014  02:38:00     -110.677      -20.900       -2.735       34.445       36.088       21.470     1186.473     1302.335      460.957        0.782        0.147      112.633       20.348        0.033      340.261       14.159      857.851
06/02/2014  02:39:00      -95.694       -0.410       -4.098       35.480       23.312       17.592     1258.818      543.453      309.476        0.564        0.106       95.695       17.523        0.034      340.156       13.983      857.849
06/02/2014  02:40:00      -80.031        1.683        2.054       36.074       22.420       20.281     1301.301      502.642      411.332        0.431        0.111       80.049       20.413        0.065      340.222       14.091      857.837
06/02/2014  02:41:00      -80.971      -18.793       -0.470       36.010       22.207       22.854     1296.691      493.170      522.323        0.461        0.116       83.123       21.789        0.069      340.260       14.156      857.825
06/02/2014  02:42:00      -97.766       -4.206       -4.860       40.476       44.937       24.968     1638.267     2019.334      623.390        0.694        0.214       97.857       21.262        0.047      340.232       14.111      857.826
06/02/2014  02:43:00     -102.842       31.031       -6.957       54.216       26.712       24.099     2939.414      713.518      580.753        0.791        0.212      107.422       22.463        0.044      340.284       14.198      857.832
06/02/2014  02:44:00     -110.794      -16.891       -8.249       48.222       38.572       23.327     2325.361     1487.766      544.130        0.849        0.218      112.074       25.025        0.050      340.309       14.241      857.819
06/02/2014  02:45:00      -86.673      -14.720        1.117       44.592       37.182       26.610     1988.437     1382.506      708.105        0.590        0.204       87.914       24.986        0.081      340.291       14.210      857.814
06/02/2014  02:46:00     -106.594        9.622      -10.109       30.249       26.725       24.042      914.978      714.243      578.041        0.688        0.110      107.028       17.258        0.026      340.209       14.072      857.806
06/02/2014  02:47:00      -49.131       13.476       -1.415       27.147       22.560       15.620      736.943      508.957      243.999        0.204        0.074       50.946       12.295        0.058      340.299       14.221      857.796
06/02/2014  02:48:00      -86.897       -2.483       -9.825       24.231       21.446       15.663      587.135      459.926      245.340        0.447        0.065       86.933       14.430        0.028      340.551       14.651      857.782
06/02/2014  02:49:00      -92.042      -31.850       -6.582       29.305       18.535       14.027      858.765      343.563      196.770        0.546        0.070       97.397       11.009        0.013      340.379       14.358      857.760
06/02/2014  02:50:00      -25.496       -6.698        0.587       28.109       19.453       13.078      790.116      378.404      171.032        0.102        0.067       26.361        6.554        0.062      340.414       14.417      857.748
06/02/2014  02:51:00      -35.300      -11.105      -10.264       21.448       13.449       13.531      460.031      180.869      183.091        0.115        0.041       37.005       11.595        0.098      340.400       14.394      857.744
06/02/2014  02:52:00      -44.374      -14.485      -12.739       11.966       17.723       11.506      143.195      314.103      132.399        0.147        0.029       46.678        4.901        0.011      340.486       14.540      857.737
06/02/2014  02:53:00      -56.188      -31.456       -8.272       19.856       17.166       14.283      394.249      294.668      203.995        0.255        0.045       64.394        9.620        0.022      340.331       14.277      857.736
06/02/2014  02:54:00      -70.220      -14.121       -2.956       21.757       15.749       14.403      473.355      248.020      207.454        0.303        0.046       71.626       13.805        0.037      340.235       14.115      857.736
06/02/2014  02:55:00      -79.595      -18.906       -9.562       24.470       13.395       12.700      598.780      179.420      161.297        0.386        0.047       81.809       14.337        0.031      340.280       14.191      857.728
06/02/2014  02:56:00      -99.361      -21.260       -9.172       24.808       20.926       15.725      615.416      437.894      247.272        0.585        0.065      101.610       13.014        0.016      340.233       14.112      857.733
06/02/2014  02:57:00      -63.555        4.318       -5.974       27.271       19.298       13.023      743.731      372.411      169.597        0.269        0.064       63.702        9.665        0.023      340.308       14.238      857.746
06/02/2014  02:58:00      -29.862       11.323       -1.727       24.916       13.794       11.199      620.784      190.288      125.421        0.098        0.047       31.936        7.869        0.061      340.721       14.936      857.728
06/02/2014  02:59:00      -15.321       -2.777        6.811       12.620        9.569       10.256      159.265       91.571      105.185        0.032        0.018       15.571        5.992        0.148      340.640       14.799      857.710
06/02/2014  03:00:00      -32.780       -8.220       -1.976       25.823       11.123       12.080      666.803      123.726      145.934        0.104        0.047       33.795       12.910        0.146      340.626       14.778      857.690
06/02/2014  03:01:00      -61.885      -20.629       -6.455       13.900       18.864        8.686      193.216      355.837       75.454        0.246        0.031       65.232        5.944        0.008      340.713       14.924      857.686
06/02/2014  03:02:00      -43.235       -7.803       -2.108       14.819       10.228       10.845      219.602      104.618      117.616        0.119        0.022       43.933        9.721        0.049      340.750       14.987      857.682
06/02/2014  03:03:00      -28.099       -1.719        3.904       22.241       14.475       10.354      494.654      209.511      107.206        0.081        0.041       28.152       10.946        0.151      340.912       15.258      857.676
06/02/2014  03:04:00      -12.609       -3.545       -1.721        9.101        8.076       10.321       82.820       65.224      106.515        0.021        0.013       13.098        4.364        0.111      340.873       15.194      857.670
06/02/2014  03:05:00       -6.446      -18.726        2.573        8.089        8.026        9.305       65.432       64.412       86.574        0.031        0.011       19.805        3.463        0.031      340.824       15.110      857.675
06/02/2014  03:06:00       -6.275       -5.380        0.873       14.589        9.559        8.383      212.845       91.375       70.271        0.022        0.019        8.266        9.653        1.364      340.813       15.091      857.677
06/02/2014  03:07:00      -23.547      -22.119        6.911       15.813       10.132       10.384      250.058      102.664      107.832        0.078        0.023       32.307        5.474        0.029      340.807       15.083      857.675
06/02/2014  03:08:00      -46.808      -32.201       -8.518       20.797       21.284       12.686      432.522      453.012      160.942        0.217        0.052       56.814        9.866        0.030      340.677       14.862      857.678
06/02/2014  03:09:00       -9.274      -40.028       -8.755       14.231       15.207        8.646      202.522      231.248       74.752        0.114        0.025       41.088        4.647        0.013      340.729       14.951      857.675
06/02/2014  03:10:00      -35.584      -56.593       -4.389       46.156       40.658       18.198     2130.374     1653.098      331.178        0.430        0.206       66.850       20.122        0.091      340.755       14.995      857.681
06/02/2014  03:11:00      -89.558      -47.278        4.487       52.139       59.723       31.472     2718.525     3566.868      990.512        0.877        0.364      101.271       30.020        0.088      340.700       14.902      857.682
06/02/2014  03:12:00      -84.634      -61.550        3.898       73.240       68.497       48.110     5364.061     4691.775     2314.568        1.167        0.619      104.648       43.224        0.171      340.502       14.566      857.682
06/02/2014  03:13:00     -146.161     -110.249       -0.585       52.441       54.422       30.634     2750.079     2961.761      938.459        2.008        0.333      183.079       28.497        0.024      340.477       14.522      857.680
06/02/2014  03:14:00     -171.291      -84.229       -3.020       65.535       45.394       35.338     4294.786     2060.586     1248.787        2.202        0.380      190.880       33.432        0.031      340.492       14.548      857.677
06/02/2014  03:15:00     -162.739      -79.056      -16.675       52.374       35.343       26.890     2743.069     1249.132      723.061        1.886        0.236      180.925       21.996        0.015      340.508       14.575      857.661
06/02/2014  03:16:00     -157.067      -84.312      -14.287       50.321       50.612       29.165     2532.164     2561.592      850.623        1.896        0.297      178.265       27.541        0.024      340.488       14.540      857.646
06/02/2014  03:17:00     -164.546      -82.399       -5.120       61.167       52.504       35.730     3741.363     2756.702     1276.644        2.083        0.389      184.024       35.615        0.037      340.408       14.406      857.627
06/02/2014  03:18:00     -138.077      -79.897       -3.454       81.085       77.301       44.684     6574.800     5975.474     1996.635        2.000        0.727      159.527       42.282        0.070      340.458       14.492      857.604
06/02/2014  03:19:00      -86.083      -40.884        3.772       60.195       49.863       30.818     3623.483     2486.294      949.752        0.808        0.353       95.298       25.629        0.072      340.525       14.606      857.591
06/02/2014  03:20:00      -96.024      -48.014       -0.104       46.350       39.972       25.765     2148.320     1597.753      663.854        0.797        0.220      107.359       23.310        0.047      340.589       14.715      857.583
06/02/2014  03:21:00     -108.353      -20.146       -8.410       60.798       42.931       29.903     3696.380     1843.083      894.214        0.932        0.322      110.210       34.241        0.097      340.523       14.603      857.571
06/02/2014  03:22:00     -112.234      -21.032       -4.972       56.190       40.822       24.036     3157.312     1666.398      577.726        0.923        0.270      114.188       28.145        0.061      340.575       14.688      857.556
06/02/2014  03:23:00     -134.727      -33.336      -10.037       34.351       26.840       19.641     1180.021      720.366      385.761        1.082        0.114      138.790       18.193        0.017      340.470       14.512      857.547
06/02/2014  03:24:00     -109.123      -43.841       -2.431       30.690       30.509       18.627      941.899      930.773      346.949        0.803        0.111      117.600       16.697        0.020      340.463       14.500      857.541
06/02/2014  03:25:00     -101.724      -57.005       -0.850       27.048       24.182       20.146      731.598      584.791      405.845        0.766        0.086      116.607       16.510        0.020      340.529       14.612      857.541
06/02/2014  03:26:00     -112.044      -51.917       -3.773       34.158       22.172       14.798     1166.737      491.619      218.969        0.857        0.094      123.488       13.948        0.013      340.552       14.653      857.552
06/02/2014  03:27:00      -78.249      -46.164        0.720       38.832       29.304       17.548     1507.897      858.712      307.925        0.546        0.134       90.852       14.230        0.025      340.566       14.675      857.549
06/02/2014  03:28:00     -118.085      -35.177      -14.983       27.956       20.473       13.261      781.534      419.133      175.859        0.839        0.069      123.214        5.850        0.002      340.537       14.627      857.550
06/02/2014  03:29:00      -73.020       -3.081       -4.978       33.612       24.935       15.102     1129.787      621.742      228.077        0.367        0.099       73.085       14.720        0.041      340.699       14.900      857.545
06/02/2014  03:30:00      -83.099       -1.715       -1.220       34.322       34.858       18.642     1178.001     1215.064      347.507        0.482        0.137       83.117       12.554        0.023      340.709       14.918      857.546
06/02/2014  03:31:00      -97.914      -20.401       -4.622       40.293       41.236       22.447     1623.512     1700.432      503.873        0.693        0.191      100.017       20.778        0.043      340.650       14.816      857.545
06/02/2014  03:32:00      -84.581      -33.877        2.930       32.468       34.077       22.273     1054.176     1161.227      496.069        0.551        0.136       91.113       16.596        0.033      340.553       14.654      857.542
06/02/2014  03:33:00     -129.589      -15.983       -5.107       28.482       21.445       20.167      811.209      459.879      406.703        0.938        0.084      130.571       13.823        0.011      340.501       14.564      857.541
06/02/2014  03:34:00      -91.866      -29.004       -1.977       27.474       31.824       16.515      754.835     1012.765      272.740        0.566        0.102       96.336       15.125        0.025      340.661       14.835      857.535
06/02/2014  03:35:00     -133.342      -69.815       -8.795       18.929       22.871       17.717      358.297      523.062      313.904        1.196        0.060      150.513        9.648        0.004      340.475       14.520      857.533
06/02/2014  03:36:00     -137.117      -25.109      -12.389       29.389       33.728       22.054      863.698     1137.558      486.372        1.104        0.124      139.397       19.372        0.019      340.417       14.422      857.536
06/02/2014  03:37:00     -145.638      -20.856      -16.268       14.583       20.809       13.352      212.673      433.016      178.266        1.137        0.041      147.124        9.715        0.004      340.287       14.201      857.538
06/02/2014  03:38:00     -114.878       -5.784      -10.127       36.411       27.851       22.338     1325.745      775.663      498.996        0.797        0.130      115.023       23.234        0.041      340.400       14.396      857.522
06/02/2014  03:39:00     -111.288      -29.165       -2.331       30.632       20.892       17.186      938.289      436.477      295.354        0.746        0.084      115.046       15.952        0.019      340.286       14.201      857.512
06/02/2014  03:40:00     -107.378       -9.683       -3.703       33.221       27.392       16.811     1103.634      750.339      282.598        0.689        0.107      107.813       12.098        0.013      340.357       14.320      857.501
06/02/2014  03:41:00      -93.932      -11.101       -4.025       27.411       26.127       16.359      751.345      682.637      267.619        0.533        0.085       94.586       14.211        0.023      340.433       14.450      857.503
06/02/2014  03:42:00      -89.663      -16.758       -6.732       37.738       29.369       15.667     1424.137      862.537      245.457        0.545        0.127       91.216       17.375        0.036      340.500       14.564      857.514
06/02/2014  03:43:00      -91.360      -17.967       -8.183       38.420       19.928       17.237     1476.068      397.133      297.098        0.545        0.109       93.110       20.460        0.048      340.553       14.653      857.525
06/02/2014  03:44:00      -72.526      -56.089       -7.702       23.539       13.556       12.589      554.070      183.776      158.474        0.468        0.045       91.684       13.622        0.022      340.463       14.500      857.529
06/02/2014  03:45:00      -40.512      -29.202        6.555       30.991       20.072       16.158      960.460      402.885      261.092        0.208        0.081       49.940       16.839        0.114      340.481       14.531      857.530
06/02/2014  03:46:00      -54.680      -20.973        3.597       23.993       16.832       13.743      575.681      283.313      188.873        0.225        0.052       58.564        9.890        0.029      340.414       14.418      857.519
06/02/2014  03:47:00       -9.354      -13.532       14.505       28.936       16.858       14.088      837.306      284.192      198.478        0.090        0.066       16.450       10.741        0.426      340.392       14.380      857.515
06/02/2014  03:48:00      -23.186      -45.226        2.069       25.004       17.101       16.319      625.190      292.457      266.299        0.189        0.059       50.823       15.769        0.096      340.502       14.567      857.512
06/02/2014  03:49:00      -11.060      -33.376        0.271       19.703       17.745       14.938      388.202      314.873      223.146        0.108        0.046       35.161       11.257        0.102      340.547       14.643      857.505
06/02/2014  03:50:00       -4.899      -38.831        4.061       25.207       17.023       11.823      635.370      289.768      139.774        0.131        0.053       39.138        8.662        0.049      340.526       14.607      857.506
06/02/2014  03:51:00       15.381      -27.859      -11.246       24.778       17.899       18.715      613.953      320.377      350.243        0.121        0.064       31.823        9.737        0.094      340.257       14.154      857.509
06/02/2014  03:52:00       -9.661      -13.556       11.376       31.974       23.197       17.046     1022.306      538.118      290.559        0.113        0.093       16.646       13.384        0.646      340.383       14.366      857.514
06/02/2014  03:53:00       13.912      -25.322       11.773       25.643       23.857       17.986      657.557      569.160      323.513        0.126        0.078       28.892       11.374        0.155      340.337       14.289      857.516
06/02/2014  03:54:00      -32.425      -33.778        1.201       35.964       21.526       16.996     1293.400      463.371      288.854        0.212        0.102       46.822       12.122        0.067      340.538       14.627      857.505
06/02/2014  03:55:00      -58.988       -9.846        7.908       30.573       20.852       16.817      934.725      434.817      282.804        0.265        0.083       59.804       14.005        0.055      340.374       14.350      857.496
06/02/2014  03:56:00      -61.938      -20.986       -1.010       24.985       24.042       17.909      624.235      578.039      320.750        0.290        0.076       65.397       13.328        0.042      340.411       14.412      857.491
06/02/2014  03:57:00      -44.583      -11.487       10.297       42.837       25.742       16.442     1835.013      662.663      270.341        0.250        0.138       46.039       15.046        0.107      340.182       14.026      857.480
06/02/2014  03:58:00      -21.589      -18.699      -11.996       32.032       20.989       21.464     1026.020      440.556      460.694        0.144        0.096       28.561       14.381        0.254      340.114       13.911      857.482
06/02/2014  03:59:00       -9.585      -14.327       10.438       47.776       22.432       21.563     2282.581      503.206      464.968        0.183        0.163       17.237       15.242        0.782      339.944       13.624      857.491
06/02/2014  04:00:00       -8.020      -26.245       12.938       34.928       30.955       20.840     1219.935      958.243      434.292        0.177        0.131       27.443       18.726        0.466      340.066       13.832      857.487
06/02/2014  04:01:00      -49.920      -32.154        4.963       47.672       30.872       20.108     2272.640      953.072      404.344        0.359        0.182       59.379       14.131        0.057      340.098       13.884      857.484
06/02/2014  04:02:00      -44.249      -37.004       -1.391       32.840       34.743       21.584     1078.450     1207.095      465.879        0.304        0.138       57.682       17.789        0.095      340.070       13.837      857.474
06/02/2014  04:03:00      -91.258      -56.631       -3.716       27.813       26.394       19.784      773.566      696.640      391.397        0.670        0.093      107.401       14.521        0.018      340.067       13.832      857.463
06/02/2014  04:04:00      -63.589      -76.463       -3.197       43.753       33.275       19.416     1914.368     1107.221      376.965        0.665        0.170       99.450       19.395        0.038      340.080       13.853      857.458
06/02/2014  04:05:00     -103.972      -99.945      -18.707       35.519       28.939       21.842     1261.601      837.495      477.082        1.186        0.129      144.219       15.222        0.011      340.067       13.831      857.452
06/02/2014  04:06:00      -98.975      -86.198      -11.120       41.059       37.463       22.364     1685.825     1403.485      500.135        1.047        0.179      131.249       21.034        0.026      340.076       13.849      857.443
06/02/2014  04:07:00     -107.426      -66.206        2.095       42.606       44.209       22.658     1815.285     1954.427      513.405        1.010        0.214      126.188       22.287        0.031      340.046       13.796      857.437
06/02/2014  04:08:00     -129.144      -74.174       -0.832       43.305       45.562       26.949     1875.360     2075.890      726.240        1.343        0.234      148.930       21.945        0.022      339.965       13.660      857.419
06/02/2014  04:09:00     -127.131      -79.732        1.360       39.789       36.297       22.561     1583.181     1317.465      508.978        1.296        0.170      150.064       18.169        0.015      339.932       13.604      857.395
06/02/2014  04:10:00     -113.809      -79.353       -4.103       32.625       30.361       20.614     1064.378      921.799      424.951        1.084        0.121      138.742       16.712        0.015      339.959       13.650      857.383
06/02/2014  04:11:00     -105.052      -73.423       -3.918       42.559       22.642       22.233     1811.266      512.672      494.297        0.963        0.141      128.167       20.292        0.025      339.917       13.579      857.365
06/02/2014  04:12:00      -69.183      -44.353        0.392       45.865       34.681       19.908     2103.614     1202.756      396.318        0.523        0.185       82.180       18.726        0.052      339.857       13.478      857.358
06/02/2014  04:13:00      -53.806      -57.954        4.144       29.794       21.307       18.777      887.675      454.000      352.576        0.398        0.085       79.081       17.348        0.048      339.945       13.626      857.348
06/02/2014  04:14:00      -64.507      -40.141       -5.249       22.569       13.532       11.540      509.369      183.120      133.171        0.331        0.041       75.977       10.270        0.018      339.914       13.573      857.331
06/02/2014  04:15:00      -39.470      -36.463        6.174       28.508       16.695       15.431      812.709      278.738      238.108        0.213        0.066       53.735       13.636        0.064      339.916       13.577      857.320
06/02/2014  04:16:00      -31.757      -32.107        6.242       40.611       26.590       22.329     1649.274      707.020      498.585        0.247        0.143       45.159       25.691        0.324      339.875       13.508      857.332
06/02/2014  04:17:00      -61.161      -66.817       -3.023       42.266       40.085       18.298     1786.441     1606.834      334.800        0.597        0.186       90.582       24.291        0.072      339.867       13.496      857.340
06/02/2014  04:18:00      -90.748      -69.651       -8.347       31.920       33.680       20.167     1018.890     1134.322      406.727        0.786        0.128      114.396       12.404        0.012      339.897       13.545      857.347
06/02/2014  04:19:00      -88.852      -58.552       -0.055       42.715       21.095       19.346     1824.596      444.997      374.282        0.698        0.132      106.410       17.807        0.028      339.898       13.547      857.353
06/02/2014  04:20:00      -73.899      -95.365        5.569       36.963       38.032       26.300     1366.293     1446.418      691.667        0.904        0.175      120.646       21.150        0.031      339.908       13.565      857.354
06/02/2014  04:21:00     -125.431      -87.756       -9.391       43.889       47.725       29.813     1926.235     2277.721      888.827        1.431        0.255      153.082       21.643        0.020      339.894       13.540      857.348
06/02/2014  04:22:00     -137.076      -88.060       -5.886       57.698       42.737       33.530     3329.101     1826.459     1124.239        1.643        0.314      162.924       25.245        0.024      339.891       13.535      857.341
06/02/2014  04:23:00     -153.519      -97.186      -12.164       65.050       51.013       34.163     4231.461     2602.279     1167.091        2.058        0.400      181.696       32.959        0.033      339.857       13.476      857.327
06/02/2014  04:24:00     -189.583     -136.052      -13.399       48.093       63.624       31.037     2312.925     4048.045      963.300        3.098        0.366      233.349       29.878        0.016      339.854       13.468      857.315
06/02/2014  04:25:00     -151.877      -98.629       -1.406       66.555       46.411       40.560     4429.626     2154.013     1645.114        2.051        0.411      181.092       42.897        0.056      339.839       13.447      857.313
06/02/2014  04:26:00     -136.669      -84.102       -2.330       53.289       49.928       30.557     2839.743     2492.761      933.704        1.601        0.313      160.473       29.614        0.034      339.843       13.453      857.307
06/02/2014  04:27:00     -165.448      -97.110        1.385       55.159       34.742       27.992     3042.547     1207.028      783.535        2.092        0.252      191.842       29.821        0.024      339.882       13.520      857.291
06/02/2014  04:28:00     -152.401      -98.299       -3.348       31.409       31.478       21.256      986.554      990.863      451.831        1.766        0.121      181.353       19.957        0.012      339.913       13.572      857.279
06/02/2014  04:29:00     -139.340      -97.567       -6.380       31.553       34.866       26.885      995.588     1215.639      722.814        1.595        0.147      170.103       19.140        0.013      339.874       13.507      857.276
06/02/2014  04:30:00     -120.201      -35.778       -9.619       29.383       29.870       20.665      863.389      892.189      427.045        0.900        0.109      125.413       12.953        0.011      339.824       13.422      857.272
06/02/2014  04:31:00     -123.871      -26.624       -7.474       41.948       37.701       23.057     1759.635     1421.372      531.636        0.991        0.186      126.700       24.876        0.039      339.809       13.399      857.260
06/02/2014  04:32:00     -104.616      -30.780       -6.617       28.295       31.407       19.827      800.623      986.431      393.114        0.706        0.109      109.050       18.207        0.028      339.729       13.263      857.255
06/02/2014  04:33:00      -78.035      -17.948        1.409       30.323       25.183       17.746      919.470      634.172      314.913        0.414        0.093       80.073       15.885        0.039      339.649       13.127      857.252
06/02/2014  04:34:00      -84.960      -22.898       -1.477       26.115       28.718       21.758      681.993      824.722      473.427        0.486        0.099       87.992       16.961        0.037      339.670       13.162      857.258
06/02/2014  04:35:00     -112.532      -40.100       -0.959       35.277       35.227       20.094     1244.479     1240.919      403.783        0.858        0.144      119.464       17.949        0.023      339.680       13.181      857.249
06/02/2014  04:36:00     -110.139      -45.762       -2.680       23.512       19.322       17.131      552.802      373.331      293.471        0.773        0.061      119.268       11.925        0.010      339.659       13.145      857.246
06/02/2014  04:37:00     -117.006      -49.181       -4.182       17.580       15.681       12.072      309.068      245.897      145.734        0.841        0.035      126.922        7.682        0.004      339.691       13.197      857.251
06/02/2014  04:38:00      -98.375      -51.108       -6.614       18.100       16.676       16.339      327.613      278.086      266.955        0.660        0.044      110.859        7.609        0.005      339.662       13.150      857.266
06/02/2014  04:39:00      -40.711      -44.896        2.909       45.538       22.978       19.473     2073.708      527.982      379.199        0.333        0.149       60.606       20.552        0.115      339.768       13.329      857.283
06/02/2014  04:40:00        0.182      -12.055        9.188       20.314       18.666       11.176      412.664      348.421      124.899        0.056        0.044       12.056        9.237        0.587      339.705       13.222      857.285
06/02/2014  04:41:00        4.946        3.327       12.403        7.372       10.844        6.711       54.339      117.600       45.043        0.020        0.011        5.961        5.752        0.931      339.673       13.169      857.298
06/02/2014  04:42:00        5.365       -6.131       11.214        6.651        9.055        6.201       44.242       81.995       38.456        0.018        0.008        8.147        3.638        0.199      339.688       13.192      857.309
06/02/2014  04:43:00       10.276        2.241        2.469        7.831        4.969        6.352       61.330       24.693       40.344        0.012        0.006       10.518        3.548        0.114      339.757       13.309      857.313
06/02/2014  04:44:00       20.630       -0.274       -0.851        8.372        7.516        5.701       70.095       56.493       32.499        0.029        0.008       20.632        3.720        0.033      339.814       13.406      857.319
06/02/2014  04:45:00        5.009        5.671        3.262       14.363        7.643        8.743      206.306       58.416       76.442        0.020        0.017        7.566        7.114        0.884      339.811       13.401      857.335
06/02/2014  04:46:00       -2.987        1.785       12.183        4.697        6.189        6.402       22.063       38.305       40.983        0.013        0.005        3.480        4.020        1.335      339.691       13.199      857.354
06/02/2014  04:47:00       -3.772        3.517        2.687        5.820        6.027        7.329       33.871       36.323       53.708        0.008        0.006        5.157        5.544        1.156      339.658       13.142      857.366
06/02/2014  04:48:00       -3.171       10.765       18.384        6.922        9.208       10.898       47.907       84.781      118.773        0.036        0.013       11.223        5.803        0.267      339.685       13.187      857.367
06/02/2014  04:49:00      -18.861      -29.362        0.241       10.728       19.161       10.194      115.093      367.145      103.926        0.090        0.029       34.897        9.752        0.078      339.843       13.457      857.366
06/02/2014  04:50:00      -12.964      -21.170        1.270       17.841       20.273       12.183      318.286      411.003      148.423        0.075        0.044       24.824       12.021        0.234      339.790       13.366      857.362
06/02/2014  04:51:00      -24.040      -31.891        7.981       27.179       18.513       16.720      738.688      342.739      279.575        0.151        0.068       39.937       17.965        0.202      339.800       13.382      857.369
06/02/2014  04:52:00      -18.627      -19.450        2.814       27.313       21.156       12.735      745.976      447.585      162.183        0.104        0.068       26.930        9.091        0.114      339.771       13.334      857.374
06/02/2014  04:53:00      -27.301      -32.076       15.885       24.195       30.520       21.218      585.381      931.454      450.224        0.200        0.098       42.122       14.963        0.126      339.779       13.347      857.382
06/02/2014  04:54:00       20.580       -5.289       -0.020       18.048       40.545       23.147      325.713     1643.915      535.761        0.148        0.125       21.249       22.154        1.087      339.840       13.449      857.384
06/02/2014  04:55:00       38.810       60.331      -10.031       14.568       10.980       11.182      212.235      120.571      125.034        0.285        0.023       71.736        6.302        0.008      339.800       13.382      857.389
06/02/2014  04:56:00       16.578       71.496       -8.953        8.575       12.213        9.522       73.529      149.165       90.672        0.289        0.016       73.392        3.930        0.003      340.017       13.748      857.390
06/02/2014  04:57:00       17.040       73.266      -13.033        9.633       12.189        7.301       92.791      148.575       53.307        0.306        0.015       75.222        5.313        0.005      339.708       13.226      857.397
06/02/2014  04:58:00        9.703        3.171      -14.683       10.009       26.381        5.667      100.172      695.976       32.115        0.057        0.041       10.208        7.683        0.567      339.682       13.182      857.416
06/02/2014  04:59:00      -20.597      -10.830        0.325       17.015        8.782        9.065      289.522       77.127       82.174        0.050        0.022       23.271        6.542        0.079      339.780       13.348      857.440
06/02/2014  05:00:00      -47.221       11.368        0.913       16.946       12.460        5.837      287.155      155.251       34.071        0.142        0.024       48.570        4.785        0.010      339.690       13.197      857.446
06/02/2014  05:01:00      -53.832       17.533       -0.761       14.480       15.205       10.347      209.669      231.183      107.056        0.188        0.027       56.615        7.405        0.017      339.550       12.962      857.441
06/02/2014  05:02:00      -96.771      -11.728      -12.836       23.098       16.507       11.460      533.513      272.466      131.343        0.530        0.047       97.480        9.994        0.011      339.541       12.944      857.436
06/02/2014  05:03:00     -112.747       -7.707       -5.927       33.983       18.559       17.549     1154.834      344.451      307.974        0.731        0.090      113.010       19.394        0.029      339.390       12.690      857.430
06/02/2014  05:04:00     -105.979      -15.068       -6.727       21.960       22.116       18.577      482.225      489.134      345.107        0.641        0.066      107.044       13.422        0.016      339.381       12.673      857.435
06/02/2014  05:05:00      -61.112      -12.567        2.061       15.308       13.766       12.002      234.323      189.510      144.054        0.223        0.028       62.390        7.649        0.015      339.466       12.819      857.433
06/02/2014  05:06:00      -67.816      -19.190       -3.732       16.370       16.412        9.373      267.977      269.364       87.858        0.280        0.031       70.479        7.386        0.011      339.623       13.084      857.419
06/02/2014  05:07:00      -77.715      -31.102       -7.659       14.277       12.993       10.419      203.827      168.816      108.558        0.377        0.024       83.707        6.187        0.005      339.524       12.915      857.419
06/02/2014  05:08:00      -53.879       -5.734       -3.425       22.709       17.636       13.450      515.680      311.023      180.895        0.198        0.050       54.183       12.406        0.052      339.479       12.841      857.428
06/02/2014  05:09:00      -83.719        4.402       -6.383       31.774       14.978       11.989     1009.610      224.336      143.744        0.422        0.069       83.835       13.877        0.027      339.523       12.914      857.425
06/02/2014  05:10:00      -71.109      -12.668       -1.717       27.273       21.422       12.604      743.808      458.902      158.867        0.329        0.068       72.229       13.227        0.034      339.542       12.947      857.429
06/02/2014  05:11:00      -83.468      -34.622        0.906       22.129       20.863       13.287      489.683      435.256      176.557        0.463        0.055       90.364       10.192        0.013      339.516       12.903      857.437
06/02/2014  05:12:00      -86.668      -34.146        0.376       34.523       24.648       17.078     1191.855      607.508      291.655        0.538        0.105       93.152       19.714        0.045      339.513       12.898      857.448
06/02/2014  05:13:00      -88.646      -37.001       -1.914       24.902       18.825       12.984      620.133      354.372      168.589        0.519        0.057       96.059        8.888        0.009      339.562       12.981      857.456
06/02/2014  05:14:00        3.476      -22.933        1.726       22.645       22.390       14.441      512.804      501.291      208.551        0.088        0.061       23.195        9.929        0.183      339.409       12.722      857.461
06/02/2014  05:15:00        2.925      -11.788        6.096       24.750       14.386       13.742      612.546      206.951      188.853        0.060        0.050       12.145        5.839        0.231      339.351       12.624      857.464
06/02/2014  05:16:00      -62.515      -37.177        2.297       30.690       23.201       15.611      941.892      538.303      243.719        0.351        0.086       72.734       15.009        0.043      339.588       13.023      857.465
06/02/2014  05:17:00      -32.255       -5.363        5.973       33.352       24.338       18.888     1112.328      592.356      356.764        0.158        0.103       32.697       21.411        0.429      339.518       12.907      857.489
06/02/2014  05:18:00      -32.799       -4.910        4.047       25.450       15.368        8.510      647.715      236.187       72.420        0.104        0.048       33.164       10.324        0.097      339.405       12.715      857.507
06/02/2014  05:19:00      -40.125       19.736       -5.165       13.415       10.991        8.777      179.964      120.809       77.030        0.120        0.019       44.716        5.823        0.017      339.267       12.482      857.523
06/02/2014  05:20:00      -71.817       12.911       -3.985       22.694       17.502       12.703      515.025      306.323      161.376        0.316        0.049       72.968       11.756        0.026      339.318       12.569      857.533
06/02/2014  05:21:00     -108.115       -7.698      -14.037       22.383       20.297       13.739      501.020      411.970      188.773        0.652        0.055      108.388       10.563        0.009      339.417       12.737      857.547
06/02/2014  05:22:00     -132.394      -23.817      -14.976       28.182       24.470       16.627      794.249      598.795      276.460        0.999        0.083      134.519       12.392        0.008      339.528       12.922      857.549
06/02/2014  05:23:00      -96.802      -31.247       -8.947       20.177       14.656       12.888      407.101      214.807      166.091        0.561        0.039      101.720        9.274        0.008      339.564       12.984      857.543
06/02/2014  05:24:00      -98.186      -33.066       -4.125       16.098       21.796       15.706      259.154      475.063      246.668        0.587        0.049      103.605        8.988        0.008      339.384       12.681      857.553
06/02/2014  05:25:00      -99.691      -37.800        0.595       26.937       25.085       15.935      725.581      629.246      253.933        0.649        0.080      106.617       13.125        0.015      339.416       12.733      857.565
06/02/2014  05:26:00     -120.480      -74.344       -1.764       30.287       25.188       18.423      917.323      634.455      339.415        1.097        0.095      141.572        4.676        0.001      339.438       12.771      857.568
06/02/2014  05:27:00     -105.768      -40.703        4.694       39.408       26.140       16.986     1553.024      683.279      288.517        0.769        0.126      113.329       19.855        0.031      339.444       12.781      857.565
06/02/2014  05:28:00      -99.169      -29.794       -8.202       23.558       32.756       19.868      554.963     1072.973      394.731        0.641        0.101      103.548       19.275        0.035      339.429       12.756      857.577
06/02/2014  05:29:00      -61.666       -8.947        2.324       31.741       25.545       18.932     1007.516      652.551      358.425        0.295        0.101       62.311       18.993        0.093      339.273       12.493      857.587
06/02/2014  05:30:00      -42.690      -14.289        9.273       34.092       25.342       14.292     1162.255      642.233      204.258        0.206        0.100       45.018       16.761        0.139      339.324       12.580      857.589
06/02/2014  05:31:00      -40.512      -42.422        1.156       37.132       27.463       16.759     1378.806      754.242      280.867        0.293        0.121       58.659       13.531        0.053      339.463       12.814      857.593
06/02/2014  05:32:00      -32.790      -42.351       -0.031       35.489       22.079       14.727     1259.487      487.483      216.871        0.242        0.098       53.562       15.068        0.079      339.535       12.935      857.598
06/02/2014  05:33:00      -47.557      -29.907        5.716       41.995       20.390       15.764     1763.591      415.753      248.494        0.281        0.121       56.179       17.529        0.097      339.484       12.847      857.598
06/02/2014  05:34:00      -83.348      -20.449       -0.813       25.369       36.817       15.245      643.580     1355.462      232.418        0.480        0.112       85.820       12.851        0.022      339.471       12.827      857.590
06/02/2014  05:35:00      -97.644      -13.800       -4.462       33.960       34.121       19.149     1153.284     1164.215      366.699        0.621        0.134       98.614       10.528        0.011      339.369       12.655      857.578
06/02/2014  05:36:00      -74.014      -34.146        0.188       45.396       31.202       19.862     2060.836      973.568      394.482        0.504        0.171       81.511       12.708        0.024      339.384       12.681      857.579
06/02/2014  05:37:00      -51.234      -40.545        6.592       54.158       21.765       21.645     2933.056      473.698      468.511        0.409        0.194       65.336       23.276        0.127      339.423       12.747      857.588
06/02/2014  05:38:00      -71.421      -53.153        5.213       47.282       38.565       21.226     2235.566     1487.279      450.553        0.606        0.209       89.030       24.595        0.076      339.494       12.864      857.596
06/02/2014  05:39:00     -102.251      -60.006       -2.563       48.939       48.788       24.887     2395.012     2380.243      619.349        0.973        0.270      118.558       25.415        0.046      339.455       12.800      857.594
06/02/2014  05:40:00      -82.825      -34.028       10.121       52.492       30.385       25.470     2755.360      923.257      648.702        0.622        0.216       89.542       24.184        0.073      339.452       12.796      857.600
06/02/2014  05:41:00      -87.293      -21.701       -1.346       56.290       35.395       23.084     3168.569     1252.788      532.874        0.652        0.248       89.950       25.406        0.080      339.277       12.499      857.620
06/02/2014  05:42:00      -95.142      -53.890       -6.859       49.868       32.891       20.513     2486.848     1081.818      420.799        0.800        0.199      109.344       26.634        0.059      339.439       12.771      857.645
06/02/2014  05:43:00      -83.845      -67.705        4.023       24.724       24.413       18.956      611.284      596.010      359.312        0.660        0.078      107.768       15.216        0.020      339.419       12.740      857.658
06/02/2014  05:44:00      -95.045      -35.161       -4.523       21.876       19.668       13.603      478.578      386.847      185.048        0.567        0.053      101.340        5.870        0.003      339.449       12.791      857.660
06/02/2014  05:45:00      -34.189      -14.250        7.201       44.092       20.758       15.824     1944.142      430.887      250.384        0.202        0.131       37.040       11.022        0.089      339.333       12.593      857.675
06/02/2014  05:46:00      -24.459      -17.894       -1.452       30.038       17.955       17.268      902.306      322.366      298.182        0.122        0.076       30.306       12.712        0.176      339.315       12.564      857.689
06/02/2014  05:47:00     -102.045      -35.203       -2.291       19.134       22.050       15.958      366.120      486.217      254.667        0.638        0.055      107.946       12.757        0.014      339.228       12.419      857.690
06/02/2014  05:48:00     -107.552      -32.335      -11.250       18.234       22.040       14.113      332.487      485.754      199.190        0.688        0.051      112.307       11.607        0.011      339.265       12.479      857.697
06/02/2014  05:49:00     -128.362       -3.712      -16.477       27.060       13.329       15.271      732.240      177.667      233.196        0.895        0.057      128.415       14.300        0.012      339.167       12.314      857.690
06/02/2014  05:50:00     -141.963       28.907      -17.718       30.895       25.312       14.106      954.516      640.691      198.980        1.155        0.090      144.876        9.531        0.004      339.009       12.049      857.673
06/02/2014  05:51:00      -56.627       54.037        6.827       37.860       31.288       29.276     1433.414      978.908      857.104        0.472        0.163       78.273       21.689        0.077      339.058       12.132      857.652
06/02/2014  05:52:00      -53.035      -30.537      -20.034       34.156       49.771       14.384     1166.663     2477.145      206.911        0.400        0.193       61.198        9.700        0.025      339.198       12.368      857.660
06/02/2014  05:53:00      -82.159      -41.166       -1.947       79.394       36.398       22.259     6303.426     1324.819      495.461        0.828        0.406       91.895       16.121        0.031      339.050       12.118      857.674
06/02/2014  05:54:00     -127.151      -36.057       -3.812       36.470       26.185       15.841     1330.041      685.655      250.949        0.987        0.113      132.165       12.167        0.008      338.987       12.013      857.692
06/02/2014  05:55:00     -138.008      -37.012       -9.146       34.217       25.393       13.290     1170.800      644.817      176.615        1.125        0.100      142.885        8.915        0.004      339.063       12.140      857.709
06/02/2014  05:56:00      -28.789      -33.549        5.842       28.467       19.223       15.142      810.353      369.511      229.279        0.170        0.070       44.208        9.175        0.043      339.120       12.236      857.708
06/02/2014  05:57:00      -73.229      -32.725      -15.289       22.331       18.151       12.477      498.693      329.475      155.682        0.383        0.049       80.208        7.503        0.009      339.243       12.442      857.707
06/02/2014  05:58:00     -108.376      -33.058      -12.685       21.779       23.588       15.440      474.311      556.394      238.385        0.713        0.063      113.306       10.222        0.008      339.269       12.487      857.703
06/02/2014  05:59:00     -112.611      -21.700       -2.979       28.462       29.963       18.618      810.059      897.808      346.648        0.761        0.103      114.683       18.800        0.027      339.097       12.197      857.705
06/02/2014  06:00:00     -132.330      -51.916       -3.736       21.737       23.261       17.689      472.485      541.053      312.910        1.077        0.066      142.150       10.448        0.005      339.094       12.191      857.711
06/02/2014  06:01:00     -114.489      -20.805       -6.176       26.893       20.985       14.863      723.229      440.353      220.917        0.748        0.069      116.364       14.067        0.015      339.257       12.465      857.717
06/02/2014  06:02:00     -103.421      -41.562       -1.916       27.177       21.424       14.303      738.582      458.974      204.587        0.691        0.070      111.460        9.667        0.008      339.293       12.526      857.724
06/02/2014  06:03:00      -82.991      -41.064       -2.853       43.752       32.466       16.283     1914.197     1054.011      265.136        0.591        0.162       92.595       13.757        0.022      339.277       12.500      857.723
06/02/2014  06:04:00      -98.716      -19.148       -1.343       31.595       19.111       14.725      998.241      365.217      216.812        0.585        0.079      100.556       13.281        0.017      339.297       12.533      857.721
06/02/2014  06:05:00     -125.680      -31.609       -5.264       37.574       25.153       18.614     1411.787      632.688      346.468        0.961        0.120      129.594       15.180        0.014      339.274       12.495      857.724
06/02/2014  06:06:00     -153.276      -67.460       -9.850       22.750       19.178       16.349      517.543      367.798      267.305        1.465        0.058      167.464       10.685        0.004      339.301       12.540      857.717
06/02/2014  06:07:00     -118.362      -46.199        0.598       34.665       33.309       19.945     1201.662     1109.496      397.822        0.943        0.135      127.059       16.680        0.017      339.321       12.574      857.713
06/02/2014  06:08:00      -85.011      -49.327        6.069       42.499       27.175       18.806     1806.205      738.479      353.671        0.630        0.145       98.285       19.256        0.038      339.419       12.740      857.707
06/02/2014  06:09:00      -38.930      -35.286        9.940       52.612       25.897       17.887     2767.991      670.653      319.939        0.331        0.188       52.542       20.596        0.154      339.493       12.864      857.701
06/02/2014  06:10:00      -92.206      -78.371       -2.379       37.326       31.182       22.238     1393.247      972.324      494.516        0.875        0.143      121.012       22.634        0.035      339.467       12.821      857.699
06/02/2014  06:11:00      -91.757      -61.530        2.416       61.185       46.574       27.017     3743.651     2169.145      729.902        0.943        0.332      110.478       31.157        0.080      339.495       12.867      857.703
06/02/2014  06:12:00      -75.915      -55.386        0.395       36.867       37.466       22.872     1359.191     1403.693      523.144        0.606        0.164       93.972       15.684        0.028      339.494       12.865      857.698
06/02/2014  06:13:00      -91.702      -51.461        5.780       42.443       39.412       26.097     1801.442     1553.300      681.078        0.756        0.202      105.154       24.411        0.054      339.383       12.678      857.684
06/02/2014  06:14:00     -114.900      -51.393       -7.197       31.052       45.389       19.161      964.223     2060.157      367.159        0.964        0.170      125.869       15.265        0.015      339.320       12.571      857.680
06/02/2014  06:15:00     -169.004       -9.916      -10.821       26.931       21.775       17.190      725.275      474.132      295.501        1.514        0.075      169.294       13.948        0.007      339.146       12.278      857.688
06/02/2014  06:16:00     -147.837      -57.470       -9.477       39.781       30.577       21.221     1582.546      934.931      450.326        1.411        0.148      158.614       16.434        0.011      339.206       12.381      857.684
06/02/2014  06:17:00      -68.398      -25.615        5.679       53.935       30.106       20.488     2908.993      906.389      419.739        0.480        0.212       73.037       22.580        0.096      339.290       12.523      857.684
06/02/2014  06:18:00      -98.707      -11.942        4.436       37.029       37.895       23.064     1371.175     1436.025      531.964        0.662        0.167       99.427       24.401        0.060      339.348       12.620      857.684
06/02/2014  06:19:00     -135.868       16.617       -9.444       27.549       23.011       19.635      758.963      529.502      385.537        1.025        0.084      136.880       12.518        0.008      339.263       12.475      857.681
06/02/2014  06:20:00     -111.810       13.571      -13.402       50.673       26.140       19.216     2567.728      683.326      369.251        0.824        0.181      112.630       22.237        0.039      339.246       12.446      857.682
06/02/2014  06:21:00     -148.256       17.138      -10.785       55.162       34.483       22.781     3042.817     1189.098      518.996        1.357        0.238      149.243       26.894        0.032      339.266       12.482      857.674
06/02/2014  06:22:00     -167.500      -19.124       -9.483       54.788       31.515       28.155     3001.733      993.203      792.720        1.665        0.239      168.588       31.302        0.034      339.265       12.479      857.669
06/02/2014  06:23:00      -93.345      -44.960        2.300       42.540       33.897       20.831     1809.647     1148.996      433.949        0.707        0.170      103.608       18.152        0.031      339.282       12.509      857.678
06/02/2014  06:24:00      -48.945      -17.599        2.181       39.843       19.938       16.357     1587.500      397.509      267.560        0.248        0.113       52.012       20.177        0.150      339.343       12.611      857.681
06/02/2014  06:25:00      -82.251      -17.667        0.118       17.707       24.687       14.595      313.529      609.440      213.027        0.411        0.057       84.127        7.335        0.008      339.336       12.600      857.679
06/02/2014  06:26:00      -58.744      -19.801       -0.871       26.662       26.686       18.105      710.868      712.166      327.789        0.280        0.088       61.991       12.739        0.042      339.369       12.656      857.678
06/02/2014  06:27:00      -55.592      -12.639        1.604       18.621       21.272       14.462      346.742      452.512      209.153        0.213        0.050       57.010       10.847        0.036      339.448       12.788      857.690
06/02/2014  06:28:00      -42.043      -25.162       -0.244       23.773       37.833       16.328      565.149     1431.367      266.595        0.233        0.113       48.997       16.313        0.111      339.584       13.018      857.694
06/02/2014  06:29:00      -47.527      -52.906       15.229       39.679       37.403       25.323     1574.423     1398.975      641.266        0.445        0.181       71.119       26.537        0.139      339.659       13.143      857.701
06/02/2014  06:30:00      -62.328      -60.021        5.601       40.244       35.861       21.518     1619.608     1285.996      463.020        0.544        0.168       86.529       22.055        0.065      339.666       13.154      857.708
06/02/2014  06:31:00      -56.539      -62.302        7.675       43.874       36.415       23.396     1924.957     1326.069      547.378        0.547        0.190       84.133       21.555        0.066      339.702       13.215      857.716
06/02/2014  06:32:00      -75.585      -81.703        0.955       48.953       42.253       25.795     2396.382     1785.279      665.398        0.862        0.242      111.303       27.991        0.063      339.721       13.249      857.716
06/02/2014  06:33:00      -62.573      -60.527        5.036       36.677       35.902       18.946     1345.231     1288.989      358.940        0.530        0.150       87.057       14.689        0.028      339.744       13.287      857.721
06/02/2014  06:34:00      -83.516      -71.771       -0.941       52.565       38.487       22.954     2763.066     1481.280      526.903        0.845        0.239      110.118       27.026        0.060      339.764       13.321      857.725
06/02/2014  06:35:00      -81.043      -76.823        2.717       40.264       32.819       25.118     1621.182     1077.090      630.917        0.790        0.166      111.669       19.542        0.031      339.803       13.387      857.728
06/02/2014  06:36:00      -84.183      -62.444       -1.123       30.671       30.145       19.809      940.720      908.699      392.377        0.661        0.112      104.815       16.315        0.024      339.873       13.504      857.724
06/02/2014  06:37:00      -91.897      -67.228       -4.905       19.506       28.935       17.410      380.486      837.210      303.095        0.725        0.076      113.862        9.995        0.008      339.941       13.619      857.725
06/02/2014  06:38:00      -72.990      -47.455       -2.710       36.635       20.640       21.165     1342.118      426.008      447.955        0.490        0.111       87.060       18.433        0.045      340.017       13.749      857.736
06/02/2014  06:39:00      -27.672      -39.940       14.909       45.724       28.157       27.467     2090.700      792.844      754.446        0.311        0.182       48.590       28.937        0.355      340.110       13.906      857.730
06/02/2014  06:40:00      -38.983      -75.974       -1.041       34.305       29.287       20.410     1176.849      857.747      416.587        0.487        0.123       85.392       19.767        0.054      340.052       13.806      857.736
06/02/2014  06:41:00      -12.538      -29.835       19.701       23.930       20.117       16.720      572.649      404.687      279.568        0.135        0.063       32.362       11.345        0.123      340.213       14.077      857.737
06/02/2014  06:42:00      -62.116      -41.577       -4.872       31.902       17.000       17.650     1017.768      289.013      311.531        0.361        0.081       74.746       16.595        0.049      340.235       14.114      857.743
06/02/2014  06:43:00      -20.414      -12.263        4.499       17.536       13.646       11.227      307.517      186.212      126.037        0.060        0.031       23.814        7.699        0.105      340.363       14.330      857.755
06/02/2014  06:44:00      -26.292      -10.538       10.073       19.009       14.679       13.008      361.330      215.474      169.200        0.082        0.037       28.326       12.115        0.183      340.406       14.406      857.748
06/02/2014  06:45:00      -12.220      -23.154        5.585       15.542       20.652       13.431      241.544      426.492      180.387        0.078        0.042       26.181       13.923        0.283      340.362       14.331      857.754
06/02/2014  06:46:00       -0.733      -34.554       13.426       14.786       16.588       11.911      218.625      275.168      141.868        0.101        0.032       34.562       10.468        0.092      340.348       14.306      857.749
06/02/2014  06:47:00       -2.955      -35.540       17.383       18.566       20.631       16.533      344.689      425.645      273.332        0.131        0.052       35.662        9.861        0.076      340.425       14.437      857.758
06/02/2014  06:48:00      -45.875     -105.554        3.759       46.441       41.111       29.088     2156.778     1690.132      846.092        0.898        0.235      115.092       25.271        0.048      340.176       14.016      857.753
06/02/2014  06:49:00      -19.857      -65.979       13.128       32.207       40.870       25.800     1037.274     1670.355      665.663        0.415        0.169       68.902       21.670        0.099      340.216       14.083      857.768
06/02/2014  06:50:00      -17.953      -17.569        8.926       33.951       29.977       23.599     1152.647      898.624      556.907        0.166        0.130       25.119       20.451        0.663      340.395       14.385      857.769
06/02/2014  06:51:00        6.688      -41.186        8.405       18.621       18.098       17.044      346.731      327.546      290.502        0.139        0.048       41.726       14.244        0.117      340.353       14.316      857.767
06/02/2014  06:52:00        6.121      -21.885       23.844       30.866       22.082       16.156      952.737      487.622      261.019        0.139        0.085       22.725       12.875        0.321      340.530       14.615      857.781
06/02/2014  06:53:00       15.430      -34.649       -5.145       42.545       26.558       22.809     1810.086      705.322      520.256        0.225        0.152       37.929       16.323        0.185      340.278       14.188      857.781
06/02/2014  06:54:00      -31.827      -17.409        4.484       30.292       16.420       14.161      917.594      269.613      200.528        0.136        0.069       36.278       12.241        0.114      340.430       14.445      857.779
06/02/2014  06:55:00      -28.159      -57.558        7.700       19.884       20.174       16.606      395.381      406.996      275.773        0.262        0.054       64.077       12.038        0.035      340.335       14.284      857.772
06/02/2014  06:56:00      -31.750      -54.077       -1.215        8.347        9.633        7.265       69.678       92.803       52.779        0.207        0.011       62.709        5.573        0.008      340.282       14.196      857.771
06/02/2014  06:57:00      -14.553      -78.303       -1.988       13.451       29.726       13.391      180.925      883.658      179.313        0.380        0.062       79.644       10.948        0.019      340.368       14.341      857.771
06/02/2014  06:58:00       -4.651      -32.298        6.215       13.356       30.712       16.357      178.392      943.204      267.538        0.125        0.069       32.631        7.617        0.054      340.514       14.586      857.772
06/02/2014  06:59:00       -2.647      -21.711       10.972       16.865       19.551       16.749      284.417      382.224      280.527        0.077        0.047       21.871        9.831        0.202      340.780       15.035      857.779
06/02/2014  07:00:00        2.710      -37.882       -3.117       17.772       24.477       23.697      315.832      599.140      561.532        0.146        0.074       37.979       20.661        0.296      340.550       14.648      857.782
06/02/2014  07:01:00      -27.163      -34.445      -10.907       23.257       28.545       16.898      540.867      814.817      285.552        0.184        0.082       43.867        9.591        0.048      340.448       14.475      857.789
06/02/2014  07:02:00      -36.843      -22.105      -13.576       39.445       26.426       25.447     1555.913      698.338      647.525        0.247        0.145       42.965        6.658        0.024      340.529       14.612      857.790
06/02/2014  07:03:00      -23.021      -25.814       -5.610       24.953       33.741       23.463      622.672     1138.423      550.522        0.177        0.116       34.589       12.309        0.127      340.460       14.496      857.792
06/02/2014  07:04:00      -22.054       -0.524       -0.490       18.735       28.524       20.378      351.016      813.630      415.265        0.103        0.079       22.060       18.846        0.730      340.602       14.736      857.794
06/02/2014  07:05:00      -17.858       -5.371        8.321       13.534       20.085       14.833      183.179      403.419      220.028        0.061        0.040       18.648       12.851        0.475      340.711       14.921      857.789
06/02/2014  07:06:00      -21.309      -16.446       20.171       12.939       23.212       14.914      167.427      538.790      222.419        0.103        0.046       26.917        9.792        0.132      340.806       15.080      857.781
06/02/2014  07:07:00      -16.587       13.630       19.056       14.562       16.742       13.237      212.053      280.295      175.222        0.075        0.033       21.469        8.846        0.170      340.749       14.986      857.771
06/02/2014  07:08:00        3.168        0.375       10.391       38.158       16.513       22.020     1456.040      272.669      484.892        0.117        0.111        3.190       12.729       15.924      340.730       14.954      857.768
06/02/2014  07:09:00       -5.239        0.398       24.865       20.504       14.206       17.798      420.402      201.820      316.759        0.079        0.047        5.254        7.465        2.019      341.079       15.544      857.769
06/02/2014  07:10:00        1.778      -11.117       18.366       16.411       17.955       20.255      269.306      322.391      410.276        0.073        0.050       11.258       17.057        2.295      341.061       15.514      857.770
06/02/2014  07:11:00      -28.644      -42.333       -2.155       16.595       18.219       10.680      275.378      331.920      114.057        0.167        0.036       51.113        8.958        0.031      340.688       14.881      857.765
06/02/2014  07:12:00        5.475      -45.947       -4.801       23.185       19.542       19.961      537.550      381.902      398.427        0.174        0.066       46.272       10.605        0.053      340.484       14.536      857.756
06/02/2014  07:13:00        4.045      -28.361       -5.000       18.129       22.782       19.819      328.646      519.008      392.807        0.104        0.062       28.648       11.294        0.155      340.521       14.599      857.754
06/02/2014  07:14:00       52.327      -22.840       -1.034       35.084       22.754       16.892     1230.893      517.723      285.341        0.265        0.102       57.094        8.267        0.021      340.240       14.124      857.755
06/02/2014  07:15:00        1.570        4.652       29.123       18.494       16.517       16.638      342.028      272.820      276.829        0.088        0.045        4.909       10.364        4.456      341.138       15.643      857.751
06/02/2014  07:16:00       14.279       12.103       -5.613       16.057       16.513       15.913      257.824      272.685      253.233        0.058        0.039       18.718        8.310        0.197      340.638       14.798      857.751
06/02/2014  07:17:00       11.187       15.105       11.283       24.482       23.350       22.377      599.376      545.217      500.748        0.106        0.082       18.797       13.787        0.538      341.002       15.413      857.758
06/02/2014  07:18:00       18.622        1.186       17.062       18.704       16.413       25.088      349.838      269.385      629.383        0.094        0.062       18.660       10.355        0.308      341.075       15.536      857.755
06/02/2014  07:19:00       26.682       25.904       -0.703       17.363       16.140       17.192      301.491      260.487      295.579        0.112        0.043       37.188       11.795        0.101      340.695       14.893      857.752
06/02/2014  07:20:00       -0.171       -0.334        4.526       18.048       32.224       25.325      325.742     1038.412      641.345        0.101        0.100        0.375       16.212     1872.081      340.771       15.022      857.754
06/02/2014  07:21:00       24.994        6.549        6.240       31.412       23.380       29.537      986.741      546.607      872.460        0.156        0.120       25.838       18.374        0.506      340.724       14.943      857.757
06/02/2014  07:22:00       34.228       14.809       29.120       36.407       17.505       25.463     1325.440      306.416      648.373        0.226        0.114       37.295       24.086        0.417      340.894       15.229      857.761
06/02/2014  07:23:00       26.166        3.907       12.443       37.550       21.270       19.638     1409.988      452.404      385.642        0.155        0.112       26.456       20.898        0.624      340.855       15.165      857.751
06/02/2014  07:24:00       54.179      -20.885       -4.232       31.515       25.433       28.726      993.175      646.827      825.157        0.293        0.123       58.065       13.956        0.058      340.568       14.678      857.754
06/02/2014  07:25:00       30.955        0.244       13.411       21.509       20.816       23.650      462.631      433.293      559.330        0.130        0.073       30.956        7.483        0.058      340.667       14.845      857.758
06/02/2014  07:26:00       23.288      -13.836       20.815       33.183       26.553       23.586     1101.102      705.086      556.302        0.176        0.118       27.089       21.713        0.642      341.109       15.594      857.745
06/02/2014  07:27:00       57.513       61.455       41.938       32.712       24.754       24.009     1070.077      612.779      576.417        0.555        0.113       84.169       10.986        0.017      340.809       15.086      857.743
06/02/2014  07:28:00       77.246       61.802       44.258       37.165       29.625       26.088     1381.248      877.615      680.575        0.734        0.147       98.927       17.682        0.032      341.031       15.462      857.752
06/02/2014  07:29:00        5.785        0.933       18.663       29.771       37.400       27.422      886.329     1398.795      751.988        0.171        0.152        5.860       23.316       15.830      341.262       15.853      857.758
06/02/2014  07:30:00       10.148       -0.017       23.676       22.240       39.551       21.716      494.622     1564.296      471.605        0.160        0.127       10.148       18.792        3.429      341.075       15.536      857.760
06/02/2014  07:31:00       59.170       38.584        8.069       45.629       32.166       30.286     2082.009     1034.665      917.255        0.454        0.202       70.638       28.754        0.166      341.226       15.792      857.761
06/02/2014  07:32:00       14.067       -9.544       19.292       27.617       18.908       26.961      762.718      357.495      726.883        0.125        0.092       16.999       17.567        1.068      341.609       16.442      857.749
06/02/2014  07:33:00       37.323       41.189       31.741       30.153       27.257       27.282      909.175      742.954      744.315        0.325        0.120       55.584       17.342        0.097      341.338       15.983      857.732
06/02/2014  07:34:00       24.780       -5.291       27.795       23.080       20.019       15.571      532.696      400.762      242.444        0.130        0.059       25.339       11.655        0.212      341.314       15.943      857.725
06/02/2014  07:35:00       54.243       45.145        4.294       24.019       30.400       22.551      576.916      924.186      508.530        0.350        0.100       70.572       11.183        0.025      341.187       15.726      857.701
06/02/2014  07:36:00       26.746       50.167        7.771       25.746       20.982       21.715      662.847      440.252      471.551        0.243        0.079       56.851       14.878        0.068      341.245       15.824      857.698
06/02/2014  07:37:00       29.326       42.586       -1.335       21.314       29.388       22.858      454.284      863.649      522.497        0.226        0.092       51.707       13.228        0.065      341.182       15.717      857.683
06/02/2014  07:38:00       28.791       14.604       12.530       20.931       16.703       25.927      438.108      278.982      672.201        0.129        0.069       32.283       16.603        0.265      341.517       16.284      857.670
06/02/2014  07:39:00       27.574       19.760       15.294       24.023       20.014       21.386      577.097      400.569      457.356        0.141        0.072       33.923       12.812        0.143      341.514       16.279      857.672
06/02/2014  07:40:00       19.446      -21.784        6.682       17.554       33.916       19.793      308.138     1150.288      391.759        0.137        0.093       29.201       15.216        0.272      341.382       16.056      857.669
06/02/2014  07:41:00       24.462       11.635       36.773       25.514       20.587       22.572      650.941      423.844      509.483        0.183        0.079       27.088       13.064        0.233      341.482       16.227      857.664
06/02/2014  07:42:00       26.996       -1.207       28.792       31.649       19.154       17.182     1001.655      366.879      295.218        0.161        0.083       27.023       13.760        0.259      341.682       16.566      857.663
06/02/2014  07:43:00       39.790       28.068       27.755       33.135       25.713       22.080     1097.927      661.164      487.548        0.269        0.112       48.693       16.363        0.113      341.542       16.328      857.657
06/02/2014  07:44:00        4.715      -36.579       19.166       16.307       22.307       21.512      265.909      497.584      462.764        0.148        0.061       36.882       16.034        0.189      341.368       16.032      857.646
06/02/2014  07:45:00        0.996      -40.118       -1.690       23.415       27.665       24.419      548.252      765.374      596.264        0.176        0.095       40.130       17.121        0.182      341.261       15.853      857.644
06/02/2014  07:46:00       16.034      -47.847       10.608       37.466       37.851       28.188     1403.721     1432.723      794.559        0.314        0.182       50.462       20.190        0.160      341.744       16.671      857.633
06/02/2014  07:47:00       19.984      -36.112       10.575       39.663       34.214       26.832     1573.174     1170.589      719.968        0.264        0.173       41.272       23.388        0.321      341.311       15.936      857.640
06/02/2014  07:48:00       27.989       11.924       27.973       22.616       25.831       20.378      511.495      667.264      415.279        0.165        0.080       30.423        7.760        0.065      341.794       16.754      857.650
06/02/2014  07:49:00       12.315      -19.497       17.359       20.746       17.620       18.828      430.391      310.481      354.496        0.096        0.055       23.060       11.763        0.260      341.471       16.207      857.644
06/02/2014  07:50:00       19.769       19.043        1.556       15.812       29.299       25.694      250.006      858.446      660.205        0.126        0.088       27.450        5.808        0.045      341.639       16.492      857.647
06/02/2014  07:51:00       31.176       35.096        6.484       14.408       19.180       20.537      207.592      367.870      421.770        0.162        0.050       46.943        8.950        0.036      341.532       16.309      857.640
06/02/2014  07:52:00       15.662       30.959        7.910       19.192       14.406       26.403      368.334      207.519      697.140        0.127        0.064       34.695        7.969        0.053      341.756       16.691      857.642
06/02/2014  07:53:00       36.965       11.570       16.871       22.234       13.539       18.861      494.341      183.311      355.732        0.141        0.052       38.734       13.651        0.124      341.583       16.397      857.644
06/02/2014  07:54:00       27.510       -5.024        5.627       15.084       12.427       15.578      227.515      154.437      242.666        0.072        0.031       27.965        9.210        0.108      341.575       16.383      857.643
06/02/2014  07:55:00       30.312       24.770        2.556       23.764       23.440       15.454      564.748      549.422      238.811        0.145        0.068       39.145       13.150        0.113      341.661       16.529      857.649
06/02/2014  07:56:00       29.478       25.299       12.291       25.377       23.537       20.190      644.004      553.985      407.631        0.163        0.080       38.846       13.741        0.125      341.986       17.082      857.652
06/02/2014  07:57:00       25.017        6.714        7.448       25.610       16.247       20.532      655.889      263.981      421.563        0.103        0.067       25.902       14.433        0.310      341.835       16.825      857.647
06/02/2014  07:58:00       34.605       24.164       17.869       33.439       29.847       16.056     1118.149      890.830      257.795        0.218        0.113       42.206        8.792        0.043      342.158       17.373      857.651
06/02/2014  07:59:00       20.636       30.479       21.810       29.807       20.446       18.321      888.448      418.053      335.667        0.174        0.082       36.808       14.870        0.163      342.407       17.796      857.644
06/02/2014  08:00:00       32.783       50.546        2.435       22.737       20.919       23.984      516.951      437.611      575.245        0.258        0.076       60.247       16.738        0.077      342.055       17.197      857.650
06/02/2014  08:01:00       23.015        6.157       14.388       27.793       19.708       26.384      772.466      388.403      696.140        0.132        0.093       23.825        4.158        0.030      342.307       17.625      857.652
06/02/2014  08:02:00       16.988       13.363       17.529       21.241       22.175       22.055      451.180      491.724      486.437        0.110        0.071       21.614       16.097        0.555      342.599       18.124      857.658
06/02/2014  08:03:00      -10.052      -10.014       15.809       10.013        8.357        9.669      100.253       69.836       93.484        0.036        0.013       14.189        4.566        0.104      342.566       18.067      857.664
06/02/2014  08:04:00      -10.893      -16.172        4.011       24.504       17.654       22.113      600.461      311.650      488.994        0.090        0.070       19.498       12.672        0.422      342.133       17.330      857.670
06/02/2014  08:05:00        8.481        4.708       36.191       22.198       18.729       14.748      492.753      350.777      217.509        0.123        0.053        9.700        6.864        0.501      342.734       18.352      857.677
06/02/2014  08:06:00       29.781      -19.498       -0.388       25.071       31.583       26.967      628.542      997.501      727.201        0.181        0.118       35.596       21.597        0.368      341.998       17.101      857.678
06/02/2014  08:07:00       13.031       -3.097       23.137       18.840       31.764       31.069      354.958     1008.947      965.284        0.152        0.116       13.394       28.420        4.502      342.216       17.471      857.672
06/02/2014  08:08:00       16.660      -32.305       14.656       32.747       69.414       36.856     1072.367     4818.289     1358.328        0.439        0.362       36.348       47.147        1.682      342.054       17.197      857.674
06/02/2014  08:09:00       19.464      -93.980      -12.733       29.042       29.804       22.141      843.459      888.249      490.205        0.580        0.111       95.974       12.422        0.017      341.998       17.101      857.671
06/02/2014  08:10:00       16.191      -20.604        7.456       22.406       30.795       31.870      502.036      948.309     1015.704        0.160        0.123       26.204       23.675        0.816      342.429       17.834      857.666
06/02/2014  08:11:00       22.439      -31.487       13.024       27.904       49.122       26.299      778.653     2413.007      691.618        0.277        0.194       38.664       17.773        0.211      341.936       16.995      857.673
06/02/2014  08:12:00       33.617       -4.635       21.046       28.806       39.205       38.018      829.786     1536.996     1445.348        0.270        0.191       33.935       27.651        0.664      342.026       17.151      857.675
06/02/2014  08:13:00       27.472       -5.099       29.334       39.858       31.455       28.944     1588.645      989.436      837.751        0.253        0.171       27.941       25.743        0.849      342.189       17.426      857.677
06/02/2014  08:14:00      -12.061      -13.787       37.687       16.038       27.619       18.538      257.205      762.826      343.640        0.156        0.068       18.318       19.165        1.095      342.861       18.569      857.685
06/02/2014  08:15:00       19.288        6.854       44.036       34.444       24.176       21.619     1186.416      584.488      467.400        0.230        0.112       20.470       18.133        0.785      343.004       18.812      857.682
06/02/2014  08:16:00       48.621       10.116       16.340       33.502       25.984       31.825     1122.398      675.168     1012.811        0.277        0.141       49.662       25.401        0.262      342.214       17.470      857.687
06/02/2014  08:17:00        6.680        2.855       27.187       26.341       27.389       21.192      693.842      750.136      449.082        0.134        0.095        7.265       18.362        6.389      342.870       18.584      857.689
06/02/2014  08:18:00       54.212      -28.029        6.383       36.339       26.286       28.414     1320.508      690.936      807.329        0.329        0.141       61.029       15.157        0.062      342.020       17.139      857.683
06/02/2014  08:19:00       22.583       30.633        9.563       17.084       35.157       23.215      291.860     1236.045      538.947        0.180        0.103       38.057       23.918        0.395      342.414       17.807      857.677
06/02/2014  08:20:00       41.701      -12.973       -8.517       24.799       24.999       19.963      614.974      624.960      398.536        0.181        0.082       43.672       14.152        0.105      342.128       17.321      857.677
06/02/2014  08:21:00       19.425      -21.389       22.233       25.181       37.728       31.756      634.087     1423.395     1008.463        0.220        0.153       28.893       21.246        0.541      342.465       17.893      857.675
06/02/2014  08:22:00       30.686      -33.110       21.962       36.369       49.286       31.945     1322.681     2429.119     1020.453        0.365        0.239       45.143       30.615        0.460      342.509       17.968      857.665
06/02/2014  08:23:00       12.167      -55.269       19.987       18.617       25.907       28.827      346.607      671.180      831.019        0.273        0.092       56.592       18.306        0.105      342.545       18.030      857.664
06/02/2014  08:24:00       25.822       -4.434       16.278       24.141       30.772       25.277      582.804      946.902      638.948        0.156        0.108       26.200       20.470        0.610      342.374       17.738      857.657
06/02/2014  08:25:00       74.700       52.722        8.649       50.537       30.120       34.930     2553.981      907.210     1220.132        0.656        0.234       91.432       18.637        0.042      342.330       17.664      857.669
06/02/2014  08:26:00       95.858       45.370       13.553       54.685       38.396       35.240     2990.491     1474.275     1241.825        0.857        0.285      106.052       18.473        0.030      342.444       17.858      857.670
06/02/2014  08:27:00       43.931       13.485       12.954       36.758       32.459       26.398     1351.135     1053.596      696.877        0.269        0.155       45.954       22.256        0.235      342.896       18.627      857.669
06/02/2014  08:28:00       18.030      -21.985       31.085       30.444       55.550       26.261      926.841     3085.847      689.653        0.324        0.235       28.433       24.141        0.721      342.625       18.167      857.673
06/02/2014  08:29:00       72.645       48.933       14.827       51.585       40.099       37.991     2660.979     1607.957     1443.296        0.680        0.286       87.588       27.019        0.095      342.783       18.434      857.681
06/02/2014  08:30:00       61.228       38.856       26.941       31.076       34.698       25.097      965.717     1203.941      629.868        0.439        0.140       72.516       10.911        0.023      342.809       18.479      857.685
06/02/2014  08:31:00       27.907        9.917       37.696       34.867       27.893       27.327     1215.711      778.009      746.751        0.252        0.137       29.616       14.613        0.243      343.030       18.854      857.689
06/02/2014  08:32:00       51.485       36.693       10.182       62.114       44.173       36.011     3858.191     1951.244     1296.758        0.560        0.355       63.223       22.851        0.131      342.976       18.764      857.690
06/02/2014  08:33:00       75.352       29.636       22.906       65.044       39.116       37.612     4230.784     1530.066     1414.664        0.713        0.359       80.970       19.248        0.057      343.143       19.047      857.682
06/02/2014  08:34:00       13.504       -3.346       24.796       40.636       44.722       30.567     1651.309     2000.039      934.324        0.270        0.229       13.912       26.621        3.661      343.040       18.872      857.677
06/02/2014  08:35:00       79.255       76.181       35.340       46.121       32.426       33.920     2127.108     1051.461     1150.534        0.883        0.216      109.931       28.903        0.069      343.069       18.921      857.678
06/02/2014  08:36:00       42.583       61.481       67.785       40.476       30.270       26.800     1638.344      916.243      718.230        0.673        0.164       74.788       23.990        0.103      342.994       18.794      857.675
06/02/2014  08:37:00       69.917       53.366       21.238       34.803       29.401       23.475     1211.227      864.448      551.069        0.541        0.131       87.957       15.875        0.033      342.737       18.356      857.678
06/02/2014  08:38:00      125.691       84.935        3.922       37.728       32.653       32.243     1423.404     1066.242     1039.592        1.328        0.176      151.698       19.212        0.016      342.729       18.342      857.672
06/02/2014  08:39:00      120.255       62.409       18.239       46.229       40.996       35.142     2137.091     1680.669     1234.966        1.187        0.253      135.485       23.376        0.030      342.858       18.560      857.677
06/02/2014  08:40:00       39.089       24.224        0.904       43.203       52.252       22.372     1866.510     2730.308      500.517        0.361        0.255       45.986       22.414        0.238      343.088       18.954      857.680
06/02/2014  08:41:00       -0.227      -81.286       -2.478       28.736       29.641       26.684      825.752      878.573      712.062        0.451        0.121       81.287       17.854        0.048      342.489       17.936      857.710
06/02/2014  08:42:00       44.377      -35.387        7.320       35.429       56.863       39.021     1255.225     3233.350     1522.618        0.464        0.301       56.759       44.294        0.609      342.478       17.916      857.729
06/02/2014  08:43:00       57.923        5.455       17.680       46.308       55.251       26.607     2144.428     3052.723      707.949        0.480        0.295       58.179       20.103        0.119      342.840       18.531      857.721
06/02/2014  08:44:00      130.730      102.547        6.693       38.035       35.487       43.289     1446.670     1259.357     1873.957        1.611        0.229      166.151       21.726        0.017      342.852       18.551      857.699
06/02/2014  08:45:00       92.003       94.618        9.496       56.325       37.872       40.139     3172.484     1434.291     1611.159        1.186        0.311      131.974       24.397        0.034      343.202       19.148      857.693
06/02/2014  08:46:00      116.074       71.202       21.320       43.237       46.642       34.317     1869.452     2175.498     1177.669        1.211        0.261      136.172       26.456        0.038      343.327       19.360      857.699
06/02/2014  08:47:00       68.514       51.109       48.061       49.560       34.784       32.787     2456.155     1209.918     1074.967        0.718        0.237       85.477       29.143        0.116      343.412       19.506      857.719
06/02/2014  08:48:00       33.015       14.657       43.916       33.919       26.897       18.706     1150.500      723.464      349.924        0.273        0.111       36.122        6.172        0.029      343.459       19.586      857.733
06/02/2014  08:49:00       38.025       46.429        6.869       28.252       25.471       38.604      798.181      648.782     1490.243        0.329        0.147       60.013       21.001        0.122      343.001       18.806      857.740
06/02/2014  08:50:00       -0.039       66.346       -1.341       30.284       25.321       28.759      917.141      641.143      827.083        0.339        0.119       66.346       15.551        0.055      342.991       18.790      857.743
06/02/2014  08:51:00       -6.427       35.168       22.510       27.946       26.332       33.227      780.976      693.354     1104.061        0.218        0.129       35.750       30.076        0.708      343.769       20.114      857.744
06/02/2014  08:52:00       -9.444       47.756        7.806       28.238       29.805       28.165      797.391      888.368      793.280        0.245        0.124       48.681       23.101        0.225      343.635       19.887      857.744
06/02/2014  08:53:00      -22.950       55.744       -2.253       18.161       26.683       27.022      329.822      711.998      730.179        0.271        0.089       60.283       17.132        0.081      343.536       19.719      857.748
06/02/2014  08:54:00      -47.664       38.333        5.680       26.682       18.460       33.144      711.938      340.773     1098.555        0.296        0.108       61.166       14.980        0.060      343.298       19.312      857.735
06/02/2014  08:55:00      -26.925       59.645       11.871       31.119       35.870       27.435      968.387     1286.640      752.661        0.371        0.150       65.440       20.686        0.100      343.812       20.188      857.724
06/02/2014  08:56:00       -2.683        0.548       29.063       16.474       10.740        9.949      271.407      115.342       98.983        0.067        0.024        2.738        6.575        5.767      344.332       21.076      857.707
06/02/2014  08:57:00       29.325       19.166       22.262       19.755       20.798       17.969      390.255      432.539      322.895        0.143        0.057       35.033       12.045        0.118      343.987       20.487      857.702
06/02/2014  08:58:00       38.773       25.556       30.487       18.540       19.117       22.435      343.726      365.454      503.340        0.215        0.061       46.438        9.555        0.042      343.737       20.061      857.700
06/02/2014  08:59:00       80.422       70.310       11.794       43.813       41.413       36.725     1919.549     1715.014     1348.720        0.827        0.249      106.823       13.669        0.016      343.339       19.381      857.683
06/02/2014  09:00:00      146.317       86.696       -7.227       41.485       47.950       35.822     1720.986     2299.233     1283.232        1.714        0.265      170.073        9.499        0.003      343.345       19.391      857.663
06/02/2014  09:01:00       57.013      108.247       -0.315       48.150       32.922       37.674     2318.444     1083.827     1419.317        0.989        0.241      122.343       22.656        0.034      343.471       19.607      857.640
06/02/2014  09:02:00        6.674       48.200        1.627       22.770       40.356       28.748      518.480     1628.588      826.431        0.267        0.149       48.660       27.228        0.313      343.935       20.398      857.636
06/02/2014  09:03:00       19.880       45.077        2.415       39.767       35.257       31.726     1581.399     1243.045     1006.537        0.313        0.192       49.266       22.204        0.203      343.681       19.964      857.640
06/02/2014  09:04:00      -30.794       90.746        3.284       17.375       37.286       23.349      301.883     1390.261      545.161        0.572        0.112       95.829       19.262        0.040      343.681       19.966      857.639
06/02/2014  09:05:00       29.205       42.478       32.231       50.470       41.330       36.197     2547.247     1708.192     1310.207        0.463        0.278       51.549       30.735        0.356      344.079       20.645      857.636
06/02/2014  09:06:00      113.161       69.710        4.502       63.022       33.903       34.653     3971.760     1149.441     1200.845        1.200        0.316      132.909       20.809        0.025      343.612       19.845      857.630
06/02/2014  09:07:00       65.271       82.014       10.319       44.031       38.283       29.164     1938.717     1465.554      850.517        0.767        0.213      104.816       25.925        0.061      343.933       20.395      857.629
06/02/2014  09:08:00       63.415       87.286        1.305       39.277       37.393       32.225     1542.649     1398.259     1038.446        0.781        0.199      107.891       20.116        0.035      343.665       19.936      857.619
06/02/2014  09:09:00       69.372       53.042       -0.545       24.544       25.483       24.528      602.418      649.380      601.641        0.474        0.093       87.326       10.989        0.016      343.535       19.715      857.623
06/02/2014  09:10:00       60.920       49.278        1.459       31.961       22.625       23.891     1021.483      511.906      570.804        0.412        0.105       78.356        5.463        0.005      343.680       19.962      857.618
06/02/2014  09:11:00       53.954       34.354       10.050       22.841       35.186       24.549      521.692     1238.060      602.649        0.328        0.118       63.963        9.298        0.021      343.766       20.109      857.605
06/02/2014  09:12:00       73.169       41.614       17.254       34.651       31.323       22.254     1200.670      981.152      495.237        0.503        0.134       84.175       16.641        0.039      343.963       20.446      857.588
06/02/2014  09:13:00        8.749       83.210        9.738       31.491       46.349       34.484      991.708     2148.222     1189.161        0.571        0.216       83.669       20.013        0.057      344.187       20.829      857.572
06/02/2014  09:14:00      -12.665       24.451       16.729       20.779       24.102       28.789      431.754      580.893      828.800        0.144        0.092       27.536       16.361        0.353      344.529       21.414      857.568
06/02/2014  09:15:00       -1.868        9.953       30.429       26.757       18.202       18.229      715.910      331.295      332.307        0.120        0.069       10.126       11.702        1.335      344.459       21.294      857.548
06/02/2014  09:16:00       22.916      -16.456        8.221       33.157       50.757       35.454     1099.355     2576.301     1257.003        0.290        0.247       28.213       33.163        1.382      343.960       20.441      857.527
06/02/2014  09:17:00       41.200       34.042       45.072       48.067       36.491       28.222     2310.389     1331.577      796.501        0.466        0.222       53.444       24.454        0.209      344.140       20.748      857.515
06/02/2014  09:18:00       17.063      -13.904       41.195       40.569       65.648       36.667     1645.851     4309.648     1344.467        0.474        0.365       22.010       42.753        3.773      344.030       20.560      857.503
06/02/2014  09:19:00       51.637      -44.021       14.002       50.048       34.976       36.772     2504.843     1223.286     1352.180        0.494        0.254       67.855       28.733        0.179      343.941       20.408      857.499
06/02/2014  09:20:00       45.978       35.924       11.868       67.583       36.824       30.962     4567.500     1355.978      958.640        0.521        0.344       58.348       13.572        0.054      343.736       20.060      857.488
06/02/2014  09:21:00       -3.802        3.035       18.434       40.658       41.950       29.503     1653.073     1759.810      870.439        0.232        0.214        4.865       23.672       23.680      344.624       21.575      857.485
06/02/2014  09:22:00       -3.810      -29.896        8.953       25.896       22.823       23.077      670.590      520.886      532.562        0.136        0.086       30.138       16.715        0.308      344.320       21.056      857.476
06/02/2014  09:23:00      -11.229      -11.608        2.230       38.641       35.740       29.240     1493.155     1277.342      855.001        0.194        0.181       16.151       23.395        2.098      343.999       20.506      857.445
06/02/2014  09:24:00       15.470       21.247       27.283       45.979       55.265       41.718     2114.088     3054.268     1740.360        0.417        0.345       26.283       38.990        2.201      343.942       20.409      857.416
06/02/2014  09:25:00       65.455      -39.644       14.506       51.304       48.527       34.174     2632.112     2354.858     1167.883        0.611        0.308       76.524       36.800        0.231      343.861       20.271      857.403
06/02/2014  09:26:00       17.291      -44.656       29.804       38.905       58.976       34.856     1513.563     3478.142     1214.911        0.469        0.310       47.886       38.080        0.632      344.615       21.559      857.392
06/02/2014  09:27:00        3.731       30.447       51.615       30.672       33.292       29.942      940.792     1108.326      896.522        0.327        0.147       30.675       15.689        0.262      344.437       21.255      857.371
06/02/2014  09:28:00       42.372       49.076       68.944       48.078       36.418       33.292     2311.474     1326.300     1108.354        0.685        0.237       64.838       17.671        0.074      344.166       20.791      857.350
06/02/2014  09:29:00       62.074       54.356       66.075       46.219       64.787       39.325     2136.212     4197.414     1546.427        0.953        0.394       82.510       30.138        0.133      343.699       19.995      857.338
06/02/2014  09:30:00       39.432       20.041       46.853       32.210       40.022       40.976     1037.502     1601.785     1679.030        0.423        0.216       44.233       34.191        0.597      343.861       20.272      857.330
06/02/2014  09:31:00       69.352       70.419       45.972       31.794       42.414       35.448     1010.881     1798.951     1256.586        0.797        0.203       98.835       25.260        0.065      343.819       20.201      857.338
06/02/2014  09:32:00       61.636       36.917       -1.761       42.631       42.240       43.108     1817.409     1784.212     1858.313        0.531        0.273       71.846       36.414        0.257      344.252       20.938      857.307
06/02/2014  09:33:00       18.250       16.668       40.957       35.141       40.041       30.383     1234.890     1603.318      923.132        0.302        0.188       24.716       16.744        0.459      344.733       21.761      857.287
06/02/2014  09:34:00       48.248        3.112       26.118       44.239       47.856       36.460     1957.058     2290.157     1329.348        0.430        0.279       48.349       34.982        0.523      344.365       21.132      857.273
06/02/2014  09:35:00       46.010      -39.964       18.107       40.531       49.052       46.588     1642.737     2406.084     2170.415        0.513        0.311       60.943       33.005        0.293      343.914       20.362      857.258
06/02/2014  09:36:00       47.969      -18.778       20.450       43.984       49.555       38.402     1934.597     2455.689     1474.695        0.447        0.293       51.514       36.573        0.504      344.253       20.943      857.246
06/02/2014  09:37:00       29.604      -43.197       25.880       43.093       70.625       42.509     1857.035     4987.871     1806.991        0.603        0.433       52.368       34.746        0.440      344.645       21.612      857.236
06/02/2014  09:38:00       67.471      -26.977        7.015       42.101       55.957       48.033     1772.461     3131.240     2307.207        0.627        0.361       72.665       27.055        0.139      344.513       21.386      857.250
06/02/2014  09:39:00       39.570       18.766       50.257       39.739       53.401       40.767     1579.183     2851.716     1661.942        0.527        0.305       43.795       34.230        0.611      344.665       21.645      857.250
06/02/2014  09:40:00       20.121      -43.565       35.255       53.320       71.644       45.636     2843.076     5132.876     2082.649        0.680        0.503       47.987       46.989        0.959      344.829       21.925      857.242
06/02/2014  09:41:00       -8.535        6.083       34.871       22.119       39.830       29.916      489.259     1586.456      894.977        0.215        0.149       10.481       20.629        3.874      344.991       22.202      857.234
06/02/2014  09:42:00      -23.451        3.082       17.166       30.113       32.313       21.944      906.822     1044.132      481.552        0.164        0.122       23.653        8.207        0.120      344.883       22.018      857.256
06/02/2014  09:43:00      -19.126      -34.888       16.627       52.888       48.688       31.259     2797.191     2370.526      977.142        0.400        0.307       39.786       31.258        0.617      344.812       21.897      857.249
06/02/2014  09:44:00       13.089      -43.679       12.682       87.969       68.278       36.050     7738.486     4661.837     1299.619        0.797        0.685       45.598       34.347        0.567      344.681       21.673      857.233
06/02/2014  09:45:00      -25.808      -15.640       13.315       41.854       31.877       26.806     1751.731     1016.150      718.540        0.229        0.174       30.177       28.000        0.861      345.237       22.624      857.210
06/02/2014  09:46:00      -19.655      -17.696       -1.344       31.616       28.979       25.923      999.579      839.786      672.022        0.161        0.126       26.448       21.238        0.645      344.813       21.899      857.196
06/02/2014  09:47:00      -70.656      -44.617       -2.616       56.418       50.126       25.319     3183.004     2512.621      641.049        0.666        0.317       83.564       23.477        0.079      344.670       21.653      857.197
06/02/2014  09:48:00      -87.596      -35.815       20.170       72.272       78.037       43.387     5223.296     6089.797     1882.452        1.128        0.660       94.635       44.520        0.221      344.878       22.009      857.177
06/02/2014  09:49:00      -72.049      -81.040        1.608       67.026       40.253       28.254     4492.471     1620.318      798.315        0.933        0.346      108.437       24.022        0.049      344.782       21.845      857.177
06/02/2014  09:50:00      -14.659      -22.403       15.213       36.616       30.023       24.344     1340.760      901.363      592.633        0.189        0.142       26.773       21.356        0.636      345.726       23.465      857.171
06/02/2014  09:51:00      -28.202        5.837       27.204       34.813       40.500       29.937     1211.938     1640.240      896.208        0.266        0.187       28.799       19.560        0.461      345.485       23.049      857.161
06/02/2014  09:52:00      -34.045        4.669       13.804       33.743       32.008       28.430     1138.557     1024.532      808.241        0.217        0.149       34.363       21.220        0.381      345.277       22.694      857.146
06/02/2014  09:53:00      -40.362      -21.566        3.156       32.833       45.984       25.812     1078.025     2114.520      666.239        0.298        0.193       45.762       26.263        0.329      345.146       22.469      857.143
06/02/2014  09:54:00      -21.174        0.747       20.639       34.632       28.091       27.851     1199.376      789.126      775.706        0.182        0.138       21.188       26.325        1.544      345.830       23.643      857.136
06/02/2014  09:55:00       -3.724        9.970       38.706       16.236       16.855       18.547      263.599      284.104      343.978        0.125        0.045       10.643        5.248        0.243      346.145       24.184      857.123
06/02/2014  09:56:00       36.787      -20.577       23.771       32.997       46.106       27.497     1088.802     2125.790      756.088        0.316        0.199       42.151       27.268        0.418      345.236       22.624      857.117
06/02/2014  09:57:00      -62.052       -2.899       13.132       83.983       26.736       35.398     7053.120      714.810     1252.984        0.652        0.451       62.120       36.620        0.348      344.936       22.109      857.113
06/02/2014  09:58:00     -162.614       20.436      -22.207       25.449       34.390       19.480      647.632     1182.688      379.455        1.478        0.110      163.893        8.131        0.002      344.663       21.641      857.099
06/02/2014  09:59:00      -62.131       11.127       -7.716       41.427       19.620       17.673     1716.164      384.950      312.330        0.323        0.121       63.120       22.533        0.127      344.995       22.209      857.100
06/02/2014  10:00:00      -69.081       50.467      -10.272       26.618       31.755       21.955      708.514     1008.373      482.017        0.481        0.110       85.552       11.005        0.017      345.220       22.595      857.084
06/02/2014  10:01:00      -43.917       16.397       11.787       44.210       24.309       23.905     1954.490      590.919      571.461        0.273        0.156       46.878       28.768        0.377      345.631       23.305      857.085
06/02/2014  10:02:00        6.863       39.483      -16.599       42.303       43.640       21.952     1789.581     1904.414      481.879        0.303        0.209       40.075       18.531        0.214      345.097       22.384      857.093
06/02/2014  10:03:00     -137.588      -89.956      -17.343       73.975       80.288       34.331     5472.266     6446.175     1178.631        2.021        0.655      164.385       35.839        0.048      344.938       22.110      857.137
06/02/2014  10:04:00      -48.089     -108.791       20.690      106.098      132.263       55.251    11256.798    17493.585     3052.632        2.318        1.590      118.946       68.832        0.335      345.356       22.829      857.127
06/02/2014  10:05:00     -112.029     -187.875        2.940      102.292       84.331       62.205    10463.581     7111.681     3869.490        3.465        1.072      218.741       41.547        0.036      345.016       22.244      857.114
06/02/2014  10:06:00     -175.516     -170.127       -8.539      146.559      119.921       54.545    21479.430    14380.936     2975.207        4.932        1.942      244.436       70.245        0.083      345.191       22.541      857.073
06/02/2014  10:07:00     -243.840      -94.579       -8.409      157.297       86.101       59.620    24742.273     7413.339     3554.514        5.208        1.786      261.540       77.912        0.089      345.324       22.770      857.049
06/02/2014  10:08:00     -192.330     -104.149       15.619      167.866      129.510       64.506    28179.140    16772.929     4161.075        4.859        2.456      218.719       88.371        0.163      345.544       23.147      857.021
06/02/2014  10:09:00      -93.600      -82.760        6.338       74.690       60.805       34.579     5578.581     3697.248     1195.701        1.306        0.524      124.940       33.768        0.073      345.647       23.326      857.024
06/02/2014  10:10:00      -27.294      -38.656       46.825       91.515       67.227       41.592     8374.987     4519.427     1729.880        0.953        0.731       47.321       52.414        1.227      346.218       24.309      857.044
06/02/2014  10:11:00       38.468     -104.202        7.837       86.446       65.476       42.430     7472.959     4287.127     1800.342        1.298        0.678      111.076       31.276        0.079      345.586       23.221      857.056
06/02/2014  10:12:00      -57.033      -31.515       15.709       87.971       59.526       40.112     7738.826     3543.356     1608.998        0.869        0.645       65.161       41.709        0.410      345.921       23.798      857.052
06/02/2014  10:13:00      -53.948     -190.627        3.696      100.634      203.216       47.282    10127.247    41296.595     2235.543        4.645        2.683      198.114       71.701        0.131      345.726       23.461      857.051
06/02/2014  10:14:00     -143.536     -326.929       -4.430      122.677      116.242       60.800    15049.761    13512.157     3696.685        7.988        1.613      357.051       65.727        0.034      345.345       22.806      857.076
06/02/2014  10:15:00     -125.028     -279.216       -4.423      107.901      142.211       70.470    11642.683    20224.023     4966.026        6.522        1.842      305.930       64.157        0.044      345.464       23.010      857.073
06/02/2014  10:16:00     -395.987     -256.030       -0.768      204.796      148.574       87.994    41941.417    22074.185     7742.950       14.704        3.588      471.547       98.601        0.044      345.390       22.883      857.058
06/02/2014  10:17:00     -397.349      -98.963      -22.055      142.924      146.944       59.714    20427.156    21592.424     3565.817       10.687        2.279      409.487       72.786        0.032      345.239       22.622      857.071
06/02/2014  10:18:00     -262.494     -118.831       -6.403      153.971      145.044       69.816    23707.143    21037.708     4874.237        6.633        2.481      288.139       81.252        0.080      345.454       22.993      857.064
06/02/2014  10:19:00     -141.229     -102.184       -0.422       95.122      140.907       43.962     9048.248    19854.917     1932.665        3.061        1.542      174.319       49.304        0.080      345.404       22.908      857.093
06/02/2014  10:20:00     -234.087     -203.162      -14.717      117.316      117.977       58.349    13763.069    13918.640     3404.611        6.368        1.554      309.954       57.587        0.035      345.284       22.701      857.088
06/02/2014  10:21:00     -210.156     -206.363        5.327      134.494      124.748       71.215    18088.685    15562.155     5071.604        6.274        1.936      294.536       75.835        0.066      345.491       23.055      857.070
06/02/2014  10:22:00     -218.811     -152.800       -7.960      106.648      118.451       58.680    11373.757    14030.535     3443.358        5.006        1.442      266.883       70.400        0.070      345.720       23.448      857.068
06/02/2014  10:23:00     -195.791     -187.810       12.601      147.814      148.602       75.455    21848.983    22082.477     5693.412        6.169        2.481      271.305       86.173        0.101      345.692       23.403      857.068
06/02/2014  10:24:00     -298.362     -192.390       -6.505      139.013      101.650       74.908    19324.510    10332.673     5611.149        8.067        1.763      355.012       76.018        0.046      345.475       23.028      857.079
06/02/2014  10:25:00     -239.231     -148.576        7.052      150.301      120.270       65.368    22590.289    14464.891     4272.999        6.033        2.066      281.614       74.916        0.071      345.561       23.177      857.084
06/02/2014  10:26:00     -144.929     -106.816        4.616       81.222       71.035       45.845     6597.071     5046.038     2101.785        2.309        0.687      180.039       39.619        0.048      345.638       23.310      857.090
06/02/2014  10:27:00     -126.964     -119.931        6.872      133.798       92.045       69.461    17901.931     8472.279     4824.825        3.087        1.560      174.652       76.597        0.192      345.717       23.445      857.067
06/02/2014  10:28:00     -133.549      -46.972       10.230       86.753       64.995       43.345     7526.041     4224.309     1878.819        1.689        0.681      141.569       40.699        0.083      345.836       23.651      857.058
06/02/2014  10:29:00     -153.509      -32.283      -17.518       82.342       97.066       45.617     6780.276     9421.735     2080.927        2.159        0.914      156.867       45.175        0.083      345.840       23.657      857.046
06/02/2014  10:30:00     -303.068      -80.987       -0.155      145.620      120.858       66.171    21205.184    14606.620     4378.549        6.929        2.010      313.702       61.573        0.039      345.734       23.474      857.025
06/02/2014  10:31:00     -243.918     -157.965      -17.864      138.443       83.311       56.956    19166.579     6940.691     3244.003        5.705        1.468      290.601       71.348        0.060      345.634       23.301      857.042
06/02/2014  10:32:00     -297.022     -106.627      -16.619      141.441       79.073       55.947    20005.691     6252.594     3130.063        6.462        1.469      315.581       60.891        0.037      345.449       22.983      857.029
06/02/2014  10:33:00     -270.488      -70.685      -18.057       89.129       84.256       47.461     7943.893     7099.146     2252.572        4.789        0.865      279.571       41.897        0.022      345.341       22.797      857.034
06/02/2014  10:34:00     -219.767     -103.507      -11.211       75.747       87.290       44.128     5737.546     7619.523     1947.288        3.722        0.765      242.922       45.067        0.034      345.342       22.801      857.027
06/02/2014  10:35:00     -180.663      -39.875       -6.610       82.506       79.942       36.799     6807.244     6390.683     1354.146        2.441        0.728      185.011       37.867        0.042      345.479       23.036      857.002
06/02/2014  10:36:00      -38.274     -106.052        7.070       61.419       83.400       34.900     3772.302     6955.571     1217.992        1.235        0.597      112.747       33.033        0.086      345.707       23.429      856.987
06/02/2014  10:37:00      -49.110     -141.673        6.746       46.249      117.463       34.561     2138.976    13797.465     1194.474        1.983        0.857      149.943       33.780        0.051      345.543       23.149      856.977
06/02/2014  10:38:00     -124.958     -168.664       -1.424       94.272      169.725       58.019     8887.240    28806.717     3366.216        4.255        2.053      209.909       69.421        0.109      345.639       23.311      856.960
06/02/2014  10:39:00     -155.959     -182.122       -5.249      148.129      120.690       56.532    21942.164    14566.112     3195.832        4.860        1.985      239.774       56.546        0.056      345.698       23.413      856.968
06/02/2014  10:40:00     -233.523     -145.947       10.560      153.627      127.089       73.993    23601.352    16151.729     5474.978        6.058        2.261      275.379       75.948        0.076      345.745       23.491      856.947
06/02/2014  10:41:00     -215.311     -204.321        5.519      136.762       97.939       59.871    18703.726     9592.021     3584.482        6.000        1.594      296.826       51.827        0.030      345.693       23.400      856.965
06/02/2014  10:42:00     -216.672     -142.555        9.496      143.829      100.047       64.050    20686.895    10009.305     4102.379        5.107        1.740      259.362       70.172        0.073      345.519       23.104      856.980
06/02/2014  10:43:00     -165.684     -160.117        4.495      102.788       92.091       54.199    10565.454     8480.829     2937.556        3.754        1.099      230.410       51.059        0.049      345.539       23.137      856.977
06/02/2014  10:44:00     -117.621     -118.496       23.764      142.389      114.778       71.751    20274.499    13173.952     5148.136        3.351        1.930      166.961       84.383        0.255      345.807       23.599      856.965
06/02/2014  10:45:00     -224.714      -60.616       -0.487      105.045       78.805       48.777    11034.355     6210.153     2379.203        3.689        0.981      232.746       53.813        0.053      345.691       23.399      856.979
06/02/2014  10:46:00     -182.618     -104.125       11.116      123.832      146.640       54.780    15334.428    21503.358     3000.894        4.207        1.992      210.218       64.460        0.094      345.589       23.225      856.981
06/02/2014  10:47:00      -96.230      -78.846        9.889       87.564       61.469       35.962     7667.497     3778.473     1293.301        1.415        0.637      124.406       36.739        0.087      345.699       23.415      856.974
06/02/2014  10:48:00      -84.198     -118.189        2.996       75.309       70.062       47.018     5671.443     4908.701     2210.685        1.693        0.640      145.114       38.546        0.071      345.705       23.425      856.980
06/02/2014  10:49:00     -157.749      -71.943       16.059      119.067       55.483       41.883    14176.948     3078.402     1754.154        2.466        0.950      173.380       30.210        0.030      345.736       23.477      856.969
06/02/2014  10:50:00      -54.092      -67.505       15.928       42.078       54.561       29.182     1770.558     2976.863      851.604        0.667        0.280       86.504       17.962        0.043      345.797       23.585      856.973
06/02/2014  10:51:00      -36.923      -35.963       -4.384       60.693       68.068       58.557     3683.622     4633.214     3428.874        0.721        0.587       51.543       45.422        0.777      346.128       24.154      856.961
06/02/2014  10:52:00      -48.924      -80.442        6.018       59.733       82.358       46.296     3568.066     6782.909     2143.347        1.070        0.625       94.152       39.922        0.180      345.820       23.622      856.978
06/02/2014  10:53:00      -28.971       41.278       27.464       39.171       30.724       33.967     1534.376      943.948     1153.749        0.346        0.182       50.430       21.321        0.179      346.179       24.240      856.951
06/02/2014  10:54:00      -91.966      -28.104       -2.598       29.128       31.535       16.617      848.437      994.445      276.116        0.569        0.106       96.164       12.112        0.016      345.769       23.537      856.941
06/02/2014  10:55:00     -116.314      -26.437       -4.092       49.812       52.236       26.446     2481.213     2728.642      699.400        1.008        0.295      119.280       20.907        0.031      345.936       23.823      856.938
06/02/2014  10:56:00      -72.638      -99.665       -2.993       92.334       81.832       42.401     8525.539     6696.455     1797.861        1.612        0.851      123.326       33.874        0.075      346.117       24.134      856.931
06/02/2014  10:57:00      -98.240     -114.012       -0.630       66.154       91.152       46.039     4376.375     8308.698     2119.588        1.872        0.740      150.499       49.891        0.110      345.940       23.829      856.930
06/02/2014  10:58:00      -77.501     -122.142        6.378       91.570       70.937       59.708     8384.979     5032.098     3565.059        1.897        0.849      144.655       35.603        0.061      346.020       23.967      856.926
06/02/2014  10:59:00     -102.929     -114.436        2.516       55.009       71.696       35.079     3025.987     5140.322     1230.551        1.654        0.470      153.916       37.431        0.059      345.977       23.892      856.927
06/02/2014  11:00:00      -15.648      -28.910       27.200       44.267       52.931       32.956     1959.557     2801.730     1086.072        0.383        0.292       32.873       18.203        0.307      346.541       24.862      856.929
06/02/2014  11:01:00      -21.836      -20.029       25.630       50.216       62.566       42.143     2521.688     3914.558     1776.004        0.487        0.411       29.630       43.751        2.180      346.337       24.514      856.915
06/02/2014  11:02:00       60.805     -159.910        6.176      103.193       95.176       64.672    10648.888     9058.540     4182.519        2.659        1.194      171.080       52.379        0.094      346.110       24.120      856.909
06/02/2014  11:03:00      117.589     -148.646       -7.289       84.597      112.824       68.865     7156.664    12729.161     4742.346        3.030        1.231      189.533       79.663        0.177      346.314       24.470      856.929
06/02/2014  11:04:00      107.737     -145.704      -40.585       96.083      104.014       63.052     9231.877    10818.942     3975.500        2.925        1.201      181.210       68.600        0.143      346.267       24.390      856.938
06/02/2014  11:05:00       62.360      -11.866       60.687       50.426       59.955       58.275     2542.808     3594.632     3395.980        0.862        0.477       63.478       42.883        0.456      346.529       24.843      856.951
06/02/2014  11:06:00       31.118       73.618      104.964       69.726       83.336       66.486     4861.720     6944.872     4420.384        1.681        0.811       79.925       68.461        0.734      346.434       24.679      856.949
06/02/2014  11:07:00       51.336       31.562       94.927       80.857      100.526       69.098     6537.921    10105.513     4774.579        1.703        1.071       60.262       66.932        1.234      346.440       24.689      856.943
06/02/2014  11:08:00       47.365       77.976      107.964       58.008       67.894       50.415     3364.917     4609.637     2541.642        1.525        0.526       91.235       51.003        0.313      346.158       24.204      856.966
06/02/2014  11:09:00       85.896       87.117      117.534       88.139       72.687       64.797     7768.533     5283.390     4198.680        2.301        0.863      122.342       55.414        0.205      346.195       24.266      856.951
06/02/2014  11:10:00       54.672      -16.092       66.061       69.240       95.408       56.631     4794.172     9102.781     3207.028        1.235        0.855       56.991       50.040        0.771      346.705       25.143      856.963
06/02/2014  11:11:00      111.954      -64.941       12.748       68.617       96.083       55.885     4708.242     9231.963     3123.117        1.698        0.853      129.426       68.381        0.279      346.100       24.105      856.965
06/02/2014  11:12:00       68.086       17.235       68.121       76.979       95.932       65.501     5925.799     9202.965     4290.437        1.449        0.971       70.233       59.057        0.707      346.435       24.680      856.944
06/02/2014  11:13:00       67.375       53.418       97.075       62.583       89.430       63.219     3916.598     7997.778     3996.616        1.636        0.796       85.982       62.084        0.521      346.449       24.705      856.936
06/02/2014  11:14:00       36.308       95.572      133.304       61.149       71.138       47.029     3739.160     5060.609     2211.740        1.961        0.551      102.236       39.201        0.147      346.516       24.819      856.923
06/02/2014  11:15:00       13.087       13.568       64.130       41.322       87.858       56.904     1707.496     7719.083     3238.086        0.856        0.633       18.851       60.707       10.370      346.682       25.105      856.932
06/02/2014  11:16:00       -5.191       -9.281       20.657       33.474       53.539       34.557     1120.535     2866.442     1194.179        0.286        0.259       10.634       35.973       11.443      346.760       25.240      856.909
06/02/2014  11:17:00      -19.698       40.052       84.181       21.563       38.207       27.278      464.944     1459.751      744.105        0.587        0.133       44.634       23.484        0.277      347.309       26.186      856.897
06/02/2014  11:18:00       -1.851      -57.879       57.355       40.441      113.038       64.722     1635.477    12777.529     4188.897        1.262        0.930       57.909       76.018        1.723      346.699       25.135      856.883
06/02/2014  11:19:00       49.338      -55.320       33.430       65.400      146.523       90.318     4277.151    21468.901     8157.407        2.025        1.695       74.125      103.106        1.935      346.589       24.944      856.869
06/02/2014  11:20:00       26.499       24.277       50.510       48.725       67.689       39.182     2374.104     4581.783     1535.223        0.617        0.425       35.938       38.603        1.154      346.529       24.844      856.886
06/02/2014  11:21:00       24.222      -79.369       13.365       62.668       43.769       40.959     3927.256     1915.706     1677.600        0.729        0.376       82.983       29.617        0.127      346.281       24.416      856.870
06/02/2014  11:22:00       45.938      -86.146       20.400       62.202       62.577       54.309     3869.100     3915.932     2949.490        1.034        0.537       97.629       36.372        0.139      346.506       24.803      856.857
06/02/2014  11:23:00       42.043        5.552       28.134       42.024       71.172       43.225     1766.007     5065.461     1868.400        0.564        0.435       42.408       41.755        0.969      346.127       24.153      856.850
06/02/2014  11:24:00       58.465      -96.686      -16.570       55.991      107.947       47.736     3134.985    11652.573     2278.752        1.505        0.853      112.988       42.867        0.144      346.251       24.364      856.836
06/02/2014  11:25:00       63.118      -64.719        6.116       68.156      106.596       67.134     4645.270    11362.693     4507.041        1.436        1.026       90.402       73.934        0.669      346.434       24.678      856.828
06/02/2014  11:26:00       41.879      -25.188       45.257       53.713       72.283       54.961     2885.059     5224.894     3020.727        0.778        0.557       48.870       39.976        0.669      346.610       24.982      856.827
06/02/2014  11:27:00      -16.019      -27.470       10.326       26.910       63.591       32.935      724.150     4043.833     1084.704        0.348        0.293       31.800       13.641        0.184      346.442       24.692      856.807
06/02/2014  11:28:00       -4.149       -6.885       19.452       37.212       32.134       26.227     1384.709     1032.624      687.881        0.177        0.155        8.038       20.420        6.453      346.782       25.279      856.784
06/02/2014  11:29:00       33.708       -0.707       64.763       58.921       90.534       56.736     3471.679     8196.476     3218.984        1.011        0.744       33.715       61.959        3.377      346.891       25.466      856.778
06/02/2014  11:30:00       -6.815       24.566       58.855       21.609       43.442       44.798      466.930     1887.216     2006.866        0.424        0.218       25.494       31.267        1.504      347.024       25.694      856.766
06/02/2014  11:31:00       25.446       48.653       82.113       55.837       56.994       42.539     3117.735     3248.371     1809.547        0.896        0.409       54.905       38.942        0.503      347.102       25.828      856.751
06/02/2014  11:32:00      163.920     -205.271      -17.733       94.091      135.021       85.369     8853.041    18230.736     7287.838        5.184        1.719      262.689       95.477        0.132      346.418       24.649      856.726
06/02/2014  11:33:00      172.929     -152.243      -14.747      117.384      144.947       84.978    13778.928    21009.691     7221.258        4.765        2.100      230.397      106.913        0.215      346.511       24.809      856.719
06/02/2014  11:34:00      105.971     -135.085      -41.328       79.145      129.376       80.146     6264.006    16738.028     6423.459        3.030        1.471      171.691       80.112        0.218      346.523       24.831      856.717
06/02/2014  11:35:00       32.996      -31.290       37.675       73.111      115.885       92.877     5345.277    13429.306     8626.143        1.544        1.370       45.473       92.434        4.132      346.478       24.755      856.725
06/02/2014  11:36:00       32.232       -9.074       61.173       73.425       73.692       54.740     5391.302     5430.524     2996.491        0.934        0.691       33.485       60.365        3.250      346.654       25.057      856.709
06/02/2014  11:37:00       43.470       51.728       65.536       49.842       46.059       39.482     2484.246     2121.477     1558.852        0.751        0.308       67.568       27.378        0.164      346.586       24.939      856.698
06/02/2014  11:38:00       84.453       49.720       52.216       55.401       66.319       50.646     3069.314     4398.235     2564.972        1.118        0.502       98.002       34.529        0.124      346.650       25.049      856.674
06/02/2014  11:39:00       74.184      -81.288       28.982       60.891       70.021       42.952     3707.747     4903.000     1844.878        1.170        0.523      110.050       43.079        0.153      346.503       24.797      856.665
06/02/2014  11:40:00       60.848     -120.299       -8.694       47.859       65.118       43.069     2290.471     4240.380     1854.917        1.332        0.419      134.812       37.611        0.078      346.434       24.679      856.662
06/02/2014  11:41:00       57.132      -17.514       36.381       64.539       65.260       59.800     4165.332     4258.885     3576.099        0.844        0.600       59.756       48.938        0.671      346.777       25.270      856.649
06/02/2014  11:42:00      -63.086      -98.695       11.955       79.834       97.113       41.206     6373.492     9430.911     1697.944        1.568        0.875      117.135       50.304        0.184      346.738       25.203      856.649
06/02/2014  11:43:00     -112.495      -82.800        5.658       96.726       49.223       39.268     9355.987     2422.860     1541.968        1.643        0.666      139.682       42.976        0.095      346.487       24.770      856.617
06/02/2014  11:44:00      -10.440      -48.533       44.086       69.017       57.128       39.726     4763.339     3263.644     1578.167        0.700        0.480       49.644       38.248        0.594      346.894       25.471      856.619
06/02/2014  11:45:00      127.257     -224.479      -22.055       86.179      121.201       50.373     7426.875    14689.584     2537.428        4.586        1.233      258.041       62.639        0.059      346.459       24.720      856.616
06/02/2014  11:46:00       43.270     -116.631       25.793       76.634      106.039       52.191     5872.716    11244.287     2723.907        1.799        0.992      124.399       48.785        0.154      346.658       25.062      856.617
06/02/2014  11:47:00        9.207      -66.790       48.383       74.948       89.819       58.368     5617.231     8067.480     3406.796        1.199        0.855       67.422       46.571        0.477      346.948       25.564      856.607
06/02/2014  11:48:00       -7.312       38.705      101.734       57.400       72.590       63.047     3294.806     5269.309     3974.933        1.222        0.627       39.389       53.205        1.825      346.869       25.428      856.594
06/02/2014  11:49:00      -20.489     -198.123        4.385      116.503       90.453       66.567    13572.848     8181.730     4431.123        3.293        1.309      199.179       49.776        0.062      346.682       25.103      856.583
06/02/2014  11:50:00        8.666      -88.153       27.187       85.965      104.274       62.323     7389.902    10872.964     3884.196        1.536        1.107       88.578       52.466        0.351      347.017       25.682      856.579
06/02/2014  11:51:00       61.938     -177.293       -7.720       97.329       98.885       49.766     9472.845     9778.254     2476.616        2.852        1.086      187.801       63.028        0.113      346.477       24.751      856.581
06/02/2014  11:52:00       78.300     -140.769      -20.729       91.508      103.541       54.168     8373.760    10720.728     2934.176        2.420        1.101      161.080       65.004        0.163      346.440       24.687      856.577
06/02/2014  11:53:00        0.164       -1.395       14.473       42.103       61.056       49.312     1772.680     3727.867     2431.719        0.407        0.397        1.404       34.787      613.724      347.221       26.035      856.580
06/02/2014  11:54:00      -44.667      -18.709       12.042       34.832       52.580       27.154     1213.282     2764.606      737.314        0.360        0.236       48.426       21.847        0.204      346.750       25.223      856.570
06/02/2014  11:55:00      -42.279      -24.238       24.290       51.613       53.660       42.695     2663.904     2879.401     1822.848        0.516        0.368       48.734       34.217        0.493      347.154       25.918      856.568
06/02/2014  11:56:00      -16.726      -13.357       39.157       43.915       63.038       44.664     1928.554     3973.852     1994.863        0.494        0.395       21.405       41.065        3.680      347.228       26.047      856.572
06/02/2014  11:57:00       16.572      -34.118        4.777       44.818       60.052       43.551     2008.614     3606.296     1896.671        0.449        0.376       37.930       43.049        1.288      346.900       25.483      856.555
06/02/2014  11:58:00      -47.875       -6.895       25.692       63.708       36.943       29.604     4058.739     1364.792      876.392        0.465        0.315       48.369       18.667        0.149      347.023       25.693      856.518
06/02/2014  11:59:00      -37.938      -72.363        3.030       97.513      105.186       39.176     9508.871    11064.189     1534.762        1.439        1.105       81.705       47.432        0.337      346.896       25.474      856.519
06/02/2014  12:00:00       87.565     -111.859       -0.156       71.977       92.418       60.630     5180.657     8541.160     3675.956        1.879        0.870      142.057       56.800        0.160      346.440       24.689      856.508
06/02/2014  12:01:00       24.528       -7.970       51.386       45.346       82.891       41.421     2056.249     6870.894     1715.666        0.697        0.532       25.790       47.324        3.367      347.165       25.938      856.491
06/02/2014  12:02:00       47.508      -56.044       30.223       58.218      117.739       46.158     3389.393    13862.357     2130.597        1.284        0.969       73.471       65.005        0.783      346.907       25.493      856.492
06/02/2014  12:03:00       39.914      -47.909       58.408       61.422       87.299       50.116     3772.635     7621.159     2511.635        1.060        0.695       62.357       40.328        0.418      347.013       25.675      856.462
06/02/2014  12:04:00        7.604      -71.898       -3.332       72.835       57.019       44.607     5305.001     3251.195     1989.803        0.789        0.527       72.299       40.284        0.310      346.681       25.105      856.456
06/02/2014  12:05:00      -25.218      -79.543       10.632       64.727       81.892       45.368     4189.549     6706.377     2058.211        1.001        0.648       83.445       48.184        0.333      347.132       25.879      856.452
06/02/2014  12:06:00        9.782      -93.910       37.328       66.831      119.357       59.304     4466.352    14246.086     3516.938        1.626        1.111       94.418       69.035        0.535      346.989       25.634      856.438
06/02/2014  12:07:00       46.032      -16.354       71.401       70.730      158.307       96.952     5002.663    25061.236     9399.605        2.347        1.973       48.851      114.174        5.462      346.850       25.394      856.432
06/02/2014  12:08:00       25.966      -10.037       89.316       58.288       88.291       59.004     3397.540     7795.323     3481.513        1.171        0.734       27.838       57.325        4.240      347.207       26.010      856.398
06/02/2014  12:09:00       34.300       18.415       85.611       70.836       80.816       62.126     5017.732     6531.209     3859.640        1.212        0.770       38.931       55.466        2.030      347.271       26.120      856.369
06/02/2014  12:10:00      114.969     -168.719       -2.470      101.322      150.176       65.915    10266.140    22552.938     4344.727        3.942        1.858      204.166       90.864        0.198      346.559       24.892      856.387
06/02/2014  12:11:00       80.882      -37.762       48.489       90.903      158.993       82.614     8263.383    25278.851     6825.011        2.533        2.018       89.262      103.471        1.344      346.781       25.274      856.379
06/02/2014  12:12:00       99.481      -62.924       44.851       97.098      139.961      104.439     9427.987    19589.184    10907.594        2.789        1.996      117.711      100.361        0.727      346.721       25.170      856.356
06/02/2014  12:13:00       40.891     -135.076       18.631       79.086      115.947       95.084     6254.567    13443.800     9040.874        2.450        1.437      141.130       77.697        0.303      346.664       25.072      856.304
06/02/2014  12:14:00        0.214      -88.704       -3.701       64.989       60.537       52.270     4223.513     3664.760     2732.125        0.925        0.531       88.704       41.866        0.223      346.706       25.147      856.383
06/02/2014  12:15:00      -34.293     -157.429       19.018       95.403       87.668       48.462     9101.810     7685.755     2348.598        2.273        0.957      161.121       51.311        0.101      346.618       24.993      856.390
06/02/2014  12:16:00     -186.224     -124.672       12.036      112.305       91.570       60.002    12612.337     8385.097     3600.246        3.748        1.230      224.104       58.821        0.069      346.682       25.103      856.389
06/02/2014  12:17:00     -139.476     -130.210       -2.100      131.562      105.581       67.635    17308.683    11147.418     4574.526        3.471        1.652      190.809       77.309        0.164      346.647       25.043      856.405
06/02/2014  12:18:00      -62.066     -132.238        8.220       66.728       70.787       37.395     4452.583     5010.769     1398.373        1.613        0.543      146.079       30.186        0.043      346.228       24.324      856.419
06/02/2014  12:19:00      -65.512       22.723      -17.293       63.252       70.252       25.822     4000.834     4935.340      666.771        0.735        0.480       69.341       10.057        0.021      346.417       24.651      856.401
06/02/2014  12:20:00       45.143       28.053        3.386       48.254       54.729       35.617     2328.479     2995.260     1268.584        0.471        0.330       53.149       32.753        0.380      346.815       25.335      856.384
06/02/2014  12:21:00       31.764       83.704        7.868       40.316       66.227       40.755     1625.363     4385.953     1660.963        0.787        0.384       89.528       42.562        0.226      346.872       25.433      856.363
06/02/2014  12:22:00      -33.518      143.259      -16.004       79.972       73.108       39.604     6395.581     5344.716     1568.446        1.760        0.665      147.128       38.970        0.070      346.745       25.213      856.370
06/02/2014  12:23:00     -173.989      213.848      -30.720      134.121      111.655       67.780    17988.388    12466.821     4594.172        5.599        1.752      275.686       66.939        0.059      346.560       24.891      856.332
06/02/2014  12:24:00     -169.288      226.247      -36.122      100.791       79.399       54.444    10158.744     6304.227     2964.107        5.029        0.971      282.571       64.690        0.052      346.421       24.653      856.325
06/02/2014  12:25:00      -92.306        5.338        1.402       98.096       67.202       37.985     9622.872     4516.112     1442.863        1.206        0.779       92.461       39.872        0.186      347.012       25.673      856.322
06/02/2014  12:26:00     -152.515      -22.542        1.927      136.284       99.113       49.513    18573.199     9823.312     2451.569        2.730        1.542      154.172       44.992        0.085      346.904       25.486      856.307
06/02/2014  12:27:00     -125.974     -220.141       -3.122       86.646      111.626       58.889     7507.521    12460.438     3467.876        4.388        1.172      253.637       64.263        0.064      346.454       24.709      856.308
06/02/2014  12:28:00     -201.947      -83.640      -20.268       82.358       58.340       35.191     6782.812     3403.600     1238.441        2.980        0.571      218.583       23.281        0.011      346.240       24.341      856.332
06/02/2014  12:29:00       14.038       11.480        0.311       59.819       44.409       37.205     3578.279     1972.177     1384.239        0.363        0.347       18.135       38.406        4.485      346.370       24.568      856.317
06/02/2014  12:30:00       27.960       37.693       43.988       41.160       44.238       37.140     1694.163     1957.009     1379.350        0.458        0.252       46.931       31.785        0.459      347.164       25.935      856.276
06/02/2014  12:31:00      -76.649       27.525        9.018       67.928       49.739       34.485     4614.237     2473.986     1189.222        0.749        0.414       81.441       42.110        0.267      346.695       25.128      856.267
06/02/2014  12:32:00      -28.452       47.021        1.205       43.618       43.296       39.872     1902.517     1874.546     1589.752        0.419        0.268       54.959       31.307        0.324      347.300       26.169      856.265
06/02/2014  12:33:00      -12.264      -50.296       18.746       95.693       70.421       47.606     9157.112     4959.073     2266.332        0.970        0.819       51.770       24.411        0.222      347.352       26.259      856.266
06/02/2014  12:34:00     -282.773      -68.285      -14.085      105.770      101.495       55.054    11187.226    10301.284     3030.972        5.467        1.226      290.901       48.843        0.028      346.281       24.412      856.284
06/02/2014  12:35:00     -220.391      -19.841      -21.428       77.840       68.348       42.498     6059.018     4671.392     1806.108        3.098        0.627      221.282       42.320        0.037      346.487       24.768      856.306
06/02/2014  12:36:00      -70.531      -52.780       22.243       86.283       75.324       40.737     7444.793     5673.690     1659.531        1.151        0.739       88.093       35.312        0.161      346.781       25.276      856.305
06/02/2014  12:37:00      -51.678      -46.778       17.518       49.444       83.243       42.885     2444.747     6929.452     1839.120        0.819        0.561       69.705       35.195        0.255      347.110       25.843      856.297
06/02/2014  12:38:00      -64.102      -23.451      -41.083       57.468       65.276       20.839     3302.607     4260.957      434.250        0.717        0.400       68.257       17.382        0.065      346.326       24.492      856.298
06/02/2014  12:39:00      -17.196      -73.109       -5.026       43.851       62.966       20.660     1922.927     3964.734      426.856        0.599        0.316       75.104       14.274        0.036      346.691       25.121      856.266
06/02/2014  12:40:00     -101.253     -138.554       -5.830       76.902       75.840       43.453     5913.921     5751.708     1888.142        2.152        0.678      171.609       45.988        0.072      346.588       24.943      856.276
06/02/2014  12:41:00      -41.677      -37.397       -1.585       27.830       47.518       30.089      774.501     2257.948      905.340        0.354        0.197       55.995       16.368        0.085      346.636       25.026      856.270
06/02/2014  12:42:00       20.306      151.881        7.766       45.534       50.560       52.815     2073.362     2556.315     2789.409        1.548        0.371      153.233       18.926        0.015      346.734       25.195      856.240
06/02/2014  12:43:00       -9.328       31.328       17.292       60.935       77.298       43.128     3713.035     5974.965     1860.057        0.646        0.577       32.688       33.304        1.038      347.046       25.732      856.232
06/02/2014  12:44:00       -2.417      -19.532       12.524       34.171       60.507       30.857     1167.641     3661.109      952.140        0.316        0.289       19.681        9.028        0.210      347.251       26.085      856.229
06/02/2014  12:45:00       75.920     -106.201      -10.154       61.446       62.139       55.570     3775.565     3861.276     3087.990        1.393        0.536      130.547       45.439        0.121      346.968       25.595      856.221
06/02/2014  12:46:00      119.888     -138.021      -12.249       85.913      108.871       63.048     7381.049    11852.935     3975.101        2.839        1.160      182.819       77.667        0.180      346.843       25.379      856.219
06/02/2014  12:47:00       68.264       84.540       68.425       69.580       60.289       71.031     4841.321     3634.746     5045.462        1.500        0.676      108.660       53.163        0.239      346.587       24.941      856.214
06/02/2014  12:48:00       15.911       50.316       33.368       29.211       35.284       31.872      853.270     1244.933     1015.842        0.351        0.156       52.772       22.338        0.179      346.972       25.605      856.207
06/02/2014  12:49:00       21.961        8.960       27.159       35.076       37.571       27.807     1230.337     1411.571      773.237        0.236        0.171       23.718       23.750        1.003      347.644       26.764      856.196
06/02/2014  12:50:00       83.674      -12.227       65.082       70.235       93.189       54.911     4932.988     8684.196     3015.197        1.401        0.832       84.563       55.209        0.426      347.064       25.763      856.191
06/02/2014  12:51:00       98.439      -98.470      -16.594       77.956       92.608       60.178     6077.162     8576.317     3621.361        1.896        0.914      139.236       59.781        0.184      346.789       25.288      856.159
06/02/2014  12:52:00       35.651      -36.550       33.656       38.777       61.374       38.746     1503.685     3766.807     1501.232        0.525        0.339       51.058       37.887        0.551      347.250       26.084      856.154
06/02/2014  12:53:00       46.405       12.824       78.180       62.990      131.085       61.211     3967.790    17183.382     3746.728        1.666        1.245       48.145       65.738        1.864      347.259       26.096      856.115
06/02/2014  12:54:00        9.248       32.245       62.183       34.095       46.376       48.697     1162.463     2150.774     2371.425        0.534        0.284       33.545       37.643        1.259      347.538       26.580      856.122
06/02/2014  12:55:00      -73.431      -53.532        4.549       69.155       69.300       38.534     4782.414     4802.439     1484.837        0.967        0.553       90.873       34.559        0.145      347.496       26.508      856.125
06/02/2014  12:56:00      -23.213      -55.235       13.279       50.134       42.010       32.716     2513.406     1764.840     1070.305        0.456        0.267       59.914       27.716        0.214      346.950       25.567      856.139
06/02/2014  12:57:00      -23.545      -16.741       35.838       38.657       47.234       30.115     1494.375     2231.044      906.897        0.337        0.232       28.890       26.552        0.845      347.688       26.840      856.123
06/02/2014  12:58:00      -76.485     -204.961        5.689       75.201       98.834       47.290     5655.150     9768.071     2236.297        3.277        0.883      218.767       32.911        0.023      347.039       25.717      856.115
06/02/2014  12:59:00      109.768     -166.764      -10.657       83.506      102.117       66.585     6973.255    10427.789     4433.526        3.090        1.092      199.648       52.081        0.068      347.031       25.705      856.109
06/02/2014  13:00:00       43.171       -6.384       71.907       75.320      113.950       72.654     5673.170    12984.666     5278.590        1.550        1.197       43.640       74.640        2.925      347.242       26.068      856.121
06/02/2014  13:01:00       84.540       22.043       66.888       97.775      100.995       68.833     9560.047    10199.924     4737.934        1.830        1.225       87.366       64.950        0.553      347.118       25.855      856.100
06/02/2014  13:02:00      -44.915      -71.061       14.989      112.174       74.239       48.782    12583.027     5511.449     2379.694        1.388        1.024       84.066       50.958        0.367      347.292       26.154      856.121
06/02/2014  13:03:00       25.245     -212.666      -10.815      104.548      114.321       65.758    10930.332    13069.231     4324.107        3.715        1.416      214.159       48.158        0.051      346.949       25.563      856.119
06/02/2014  13:04:00       94.486     -115.022       21.213       60.898      100.535       63.882     3708.549    10107.343     4080.959        2.025        0.895      148.855       63.259        0.181      346.906       25.489      856.104
06/02/2014  13:05:00      -53.610      -71.287       18.176       73.327      101.813       38.392     5376.873    10365.879     1473.918        1.275        0.861       89.196       34.277        0.148      347.648       26.769      856.087
06/02/2014  13:06:00     -109.570     -163.107        0.895      105.248      134.134       62.136    11077.095    17991.852     3860.849        3.576        1.646      196.492       55.576        0.080      347.165       25.935      856.116
06/02/2014  13:07:00     -135.837     -131.087      -10.986       90.806       80.849       48.161     8245.790     6536.480     2319.467        2.643        0.855      188.774       41.072        0.047      346.970       25.599      856.111
06/02/2014  13:08:00     -127.760     -108.850       -8.361       84.171      104.000       45.617     7084.687    10815.941     2080.951        2.411        0.999      167.842       45.943        0.075      347.151       25.912      856.098
06/02/2014  13:09:00      -49.785      -10.034       17.887       66.085       52.447       35.277     4367.214     2750.682     1244.454        0.563        0.418       50.786       38.829        0.585      347.560       26.617      856.109
06/02/2014  13:10:00       42.101       18.071       55.824       34.046       30.618       33.402     1159.154      937.444     1115.661        0.421        0.161       45.816       26.039        0.323      347.474       26.470      856.084
06/02/2014  13:11:00       -4.833       17.164        1.485       27.660       23.276       27.414      765.101      541.773      751.550        0.119        0.103       17.831       11.714        0.432      347.230       26.050      856.071
06/02/2014  13:12:00      -27.590      -23.437       11.664       41.049       55.584       32.393     1684.990     3089.619     1049.337        0.363        0.291       36.201       25.737        0.505      347.722       26.898      856.068
06/02/2014  13:13:00      -83.636      -46.927       11.028       65.742       55.452       33.652     4321.981     3074.904     1132.481        0.892        0.426       95.901       36.804        0.147      347.399       26.340      856.063
06/02/2014  13:14:00     -137.740     -173.809       12.668      119.383      129.029       59.810    14252.287    16648.511     3577.292        4.190        1.724      221.770       72.692        0.107      347.102       25.827      856.051
06/02/2014  13:15:00     -130.100      -82.661       -8.526       85.404       90.549       43.490     7293.928     8199.198     1891.361        2.060        0.869      154.139       35.914        0.054      346.988       25.630      856.054
06/02/2014  13:16:00     -118.574     -120.015        2.507       80.215       73.973       42.305     6434.464     5472.043     1789.717        2.108        0.685      168.712       34.701        0.042      347.120       25.857      856.035
06/02/2014  13:17:00     -130.269     -108.814       -1.188       93.310       51.629       37.757     8706.791     2665.580     1425.623        2.080        0.640      169.737       38.351        0.051      347.084       25.796      856.036
06/02/2014  13:18:00      -31.336      -22.740       15.339       37.830       57.899       34.484     1431.074     3352.327     1189.155        0.385        0.299       38.718       26.989        0.486      347.726       26.905      856.016
06/02/2014  13:19:00      -87.808      -10.452      -13.947       49.080       33.321       26.619     2408.849     1110.311      708.554        0.612        0.211       88.428       25.307        0.082      347.254       26.091      855.984
06/02/2014  13:20:00     -201.541      -94.515      -10.103      113.117       81.760       42.477    12795.368     6684.620     1804.273        3.546        1.064      222.603       31.583        0.020      347.328       26.215      855.974
06/02/2014  13:21:00     -109.091      -47.892       23.357      103.387       87.497       51.046    10688.887     7655.706     2605.687        1.784        1.048      119.141       57.053        0.229      347.458       26.441      855.975
06/02/2014  13:22:00     -138.571       -3.704        7.144       80.524       95.604       42.727     6484.150     9140.210     1825.580        1.835        0.872      138.621       43.641        0.099      347.501       26.514      855.986
06/02/2014  13:23:00     -181.439     -104.187        6.422      192.635      100.934       58.178    37108.337    10187.686     3384.635        4.724        2.534      209.225       79.627        0.145      347.521       26.549      855.973
06/02/2014  13:24:00     -232.686     -159.246      -23.211      179.305      107.354       71.799    32150.216    11524.919     5155.076        6.443        2.442      281.961       71.835        0.065      347.146       25.900      855.990
06/02/2014  13:25:00     -276.209      -92.801       -4.501      182.620      153.450       67.072    33350.229    23547.038     4498.600        7.315        3.070      291.382       85.875        0.087      347.152       25.912      855.982
06/02/2014  13:26:00     -247.783     -155.387      -11.739      151.714       91.178       58.149    23017.151     8313.461     3381.337        6.019        1.736      292.475       69.586        0.057      346.648       25.044      855.993
06/02/2014  13:27:00     -139.244     -193.476        3.110      115.770       86.505       59.319    13402.595     7483.186     3518.780        4.061        1.220      238.374       73.232        0.094      346.574       24.916      855.989
06/02/2014  13:28:00     -104.706      -61.397        5.289       97.478       59.013       42.269     9501.902     3482.514     1786.659        1.476        0.739      121.379       45.460        0.140      346.789       25.290      855.985
06/02/2014  13:29:00      -46.192      -55.805        8.835       85.376       42.514       48.873     7289.003     1807.407     2388.531        0.840        0.574       72.442       53.148        0.538      346.770       25.255      855.963
06/02/2014  13:30:00     -130.616      -41.743       -1.710       94.714       81.395       43.311     8970.679     6625.073     1875.813        1.814        0.874      137.124       48.966        0.128      347.001       25.652      855.947
06/02/2014  13:31:00     -133.732      -18.976        0.551       88.898       69.569       42.152     7902.817     4839.899     1776.792        1.638        0.726      135.071       40.111        0.088      346.806       25.318      855.946
06/02/2014  13:32:00     -172.321      -10.266       -9.862      109.575       65.979       43.811    12006.574     4353.208     1919.372        2.408        0.914      172.626       55.486        0.103      346.547       24.871      855.933
06/02/2014  13:33:00      -13.194      -63.009       14.170       73.771       69.146       35.729     5442.144     4781.200     1276.542        0.792        0.575       64.376       37.993        0.348      346.885       25.454      855.913
06/02/2014  13:34:00      -61.671        6.962       21.888      113.038       49.264       41.169    12777.676     2426.938     1694.905        1.061        0.845       62.062       43.016        0.480      347.239       26.064      855.907
06/02/2014  13:35:00     -216.984       11.416      -11.045      112.893       78.078       48.092    12744.927     6096.218     2312.856        3.424        1.058      217.284       58.058        0.071      346.642       25.034      855.903
06/02/2014  13:36:00     -107.255       -2.470       -6.353       61.407       33.277       33.621     3770.839     1107.336     1130.359        0.878        0.300      107.284       29.160        0.074      346.714       25.160      855.885
06/02/2014  13:37:00      -25.417      -30.285       29.107       82.811      101.600       48.997     6857.713    10322.550     2400.743        1.099        0.979       39.537       59.745        2.283      347.202       25.999      855.869
06/02/2014  13:38:00     -136.715      -47.281        3.812       85.552       59.282       49.450     7319.077     3514.382     2445.321        1.711        0.664      144.660       47.372        0.107      346.986       25.626      855.874
06/02/2014  13:39:00     -215.211      -47.633        0.075       91.416       71.837       48.223     8356.966     5160.573     2325.476        3.221        0.792      220.419       53.626        0.059      346.828       25.354      855.874
06/02/2014  13:40:00     -210.235      -48.709       -8.362       90.588       56.252       38.255     8206.201     3164.325     1463.480        2.973        0.642      215.804       37.937        0.031      346.736       25.195      855.871
06/02/2014  13:41:00     -220.619      -64.934      -11.500       81.241       51.633       33.839     6600.174     2665.987     1145.105        3.171        0.521      229.977       38.817        0.028      346.576       24.919      855.864
06/02/2014  13:42:00     -242.791      -87.652       -0.709       93.033       77.126       41.693     8655.151     5948.404     1738.293        4.148        0.817      258.128       42.938        0.028      346.587       24.941      855.860
06/02/2014  13:43:00     -178.201      -95.919        0.359       97.438       73.269       49.900     9494.167     5368.407     2490.046        2.915        0.868      202.376       44.574        0.049      346.755       25.230      855.855
06/02/2014  13:44:00     -116.488      -49.148       -9.611       87.471       74.424       38.059     7651.094     5538.993     1448.458        1.535        0.732      126.432       33.727        0.071      346.890       25.461      855.843
06/02/2014  13:45:00      -75.252      -73.041       15.388       88.603       94.364       47.845     7850.443     8904.629     2289.132        1.514        0.952      104.871       56.014        0.285      346.901       25.480      855.847
06/02/2014  13:46:00     -116.056      -39.781        3.007       94.131       46.733       32.927     8860.640     2184.012     1084.217        1.359        0.606      122.685       33.371        0.074      346.841       25.376      855.855
06/02/2014  13:47:00      -23.329      -26.999       13.594       61.016       44.043       28.463     3722.985     1939.758      810.117        0.396        0.324       35.681       21.055        0.348      346.972       25.604      855.862
06/02/2014  13:48:00     -129.651      -65.733        4.073       83.352       53.660       41.061     6947.595     2879.402     1685.979        1.633        0.576      145.363       49.216        0.115      346.848       25.390      855.868
06/02/2014  13:49:00      -96.144      -95.909        6.790      104.706       88.537       56.505    10963.265     7838.824     3192.810        2.024        1.100      135.803       63.934        0.222      346.878       25.440      855.893
06/02/2014  13:50:00      -87.046     -111.418        1.023       66.761       55.437       38.492     4456.965     3073.234     1481.606        1.450        0.451      141.390       36.224        0.066      346.795       25.300      855.913
06/02/2014  13:51:00     -139.260     -147.691        0.502       96.502      111.132       38.463     9312.565    12350.373     1479.366        3.217        1.157      202.992       30.012        0.022      346.712       25.154      855.938
06/02/2014  13:52:00       11.205     -167.709       -3.374      100.429      108.862       51.428    10085.929    11850.908     2644.822        2.642        1.229      168.083       47.136        0.079      346.753       25.225      856.007
06/02/2014  13:53:00      142.206     -130.520        4.264      100.233      145.602       81.010    10046.717    21199.999     6562.600        3.754        1.890      193.023       91.704        0.226      346.907       25.489      855.962
06/02/2014  13:54:00      151.406      -71.842       84.670      155.254      213.210      120.331    24103.733    45458.435    14479.564        5.963        4.202      167.586      134.122        0.641      346.854       25.399      855.941
06/02/2014  13:55:00      228.213      -37.376      113.183      234.239      282.716      182.738    54867.737    79928.459    33393.186       11.720        8.409      231.253      197.864        0.732      346.572       24.912      855.928
06/02/2014  13:56:00      196.329     -181.884       42.460      220.133      350.963      173.297    48458.479   123175.031    30031.771       13.751       10.083      267.632      247.831        0.858      346.510       24.807      856.082
06/02/2014  13:57:00       38.367       -3.150      105.576      104.697      155.976       94.181    10961.382    24328.511     8870.051        2.839        2.208       38.496      109.813        8.137      346.467       24.734      856.208
06/02/2014  13:58:00      298.171     -259.307      -27.895      203.255      166.213       88.025    41312.394    27626.610     7748.412       11.679        3.834      395.153       86.047        0.047      346.459       24.718      856.262
06/02/2014  13:59:00      218.773      171.133       72.351      155.551      127.426       95.875    24195.970    16237.452     9192.059        6.599        2.481      277.756       57.246        0.042      346.411       24.636      856.206
06/02/2014  14:00:00      285.100       69.314      199.533      226.983      256.799      179.877    51521.369    65945.643    32355.776       13.783        7.491      293.405      161.256        0.302      346.155       24.197      855.926
06/02/2014  14:01:00      297.944     -122.395      196.317      270.885      496.695      280.279    73378.775   246706.180    78556.380       27.039       19.932      322.104      312.031        0.938      346.177       24.232      855.766
06/02/2014  14:02:00      227.210      160.963       53.634      187.607      143.406      108.162    35196.325    20565.232    11698.925        7.392        3.373      278.448       47.784        0.029      346.251       24.362      856.015
06/02/2014  14:03:00      487.881      325.896       78.731      233.778      177.666      139.798    54652.091    31565.173    19543.505       22.808        5.288      586.716       90.710        0.024      346.290       24.426      855.852
06/02/2014  14:04:00      465.354      282.343       50.376      227.408      134.333      108.456    51714.609    18045.408    11762.800       19.015        4.076      544.309       51.918        0.009      346.283       24.414      855.841
06/02/2014  14:05:00      234.099      182.640       17.478      179.510      143.216       98.025    32223.947    20510.964     9608.868        7.539        3.117      296.917       87.891        0.088      346.413       24.638      855.835
06/02/2014  14:06:00      289.449      189.967       -2.674      160.405       90.794       64.547    25729.786     8243.623     4166.369        7.900        1.907      346.220       43.280        0.016      346.373       24.569      855.819
06/02/2014  14:07:00      235.762      174.044       47.173      148.734      102.354       94.716    22121.676    10476.355     8971.079        6.483        2.078      293.045       76.353        0.068      346.375       24.572      855.788
06/02/2014  14:08:00      230.975      167.269       10.610      128.272      118.383       80.283    16453.616    14014.416     6445.376        5.917        1.846      285.181       57.051        0.040      346.548       24.871      855.746
06/02/2014  14:09:00       82.567      214.245       -2.621      107.588      145.840       88.928    11575.136    21269.390     7908.253        4.673        2.038      229.605       86.443        0.142      346.737       25.197      855.706
06/02/2014  14:10:00      148.368      266.985      -24.150       87.120      137.101       73.814     7589.946    18796.646     5448.439        6.285        1.592      305.441       70.843        0.054      346.488       24.768      855.707
06/02/2014  14:11:00      118.999       95.549       36.985      102.930       61.765       56.527    10594.629     3814.859     3195.279        2.113        0.880      152.612       28.208        0.034      346.688       25.115      855.683
06/02/2014  14:12:00       64.645      150.126      -12.297       86.986       99.501       51.268     7566.568     9900.540     2628.428        2.348        1.005      163.452       46.240        0.080      346.916       25.505      855.684
06/02/2014  14:13:00       70.569       82.741       16.099      108.297       83.331       62.236    11728.204     6944.053     3873.299        1.731        1.127      108.748       38.439        0.125      346.845       25.386      855.626
06/02/2014  14:14:00       88.118      240.183      -18.118      122.958      138.898       73.362    15118.656    19292.520     5381.982        5.278        1.990      255.837       61.221        0.057      346.979       25.613      855.618
06/02/2014  14:15:00      -67.085      256.597      -38.886      100.859      115.860       51.129    10172.543    13423.641     2614.183        4.903        1.311      265.221       48.599        0.034      347.014       25.673      855.614
06/02/2014  14:16:00      -11.102      204.614      -18.042       61.589       82.538       40.299     3793.250     6812.529     1623.981        2.727        0.611      204.915       31.162        0.023      346.819       25.336      855.584
06/02/2014  14:17:00      -11.773      357.082      -40.562       89.511      150.958       63.893     8012.303    22788.308     4082.322        8.208        1.744      357.276       78.371        0.048      346.866       25.419      855.575
06/02/2014  14:18:00       13.496      199.480      -18.366       59.626      104.842       49.382     3555.293    10991.841     2438.628        2.865        0.849      199.936       58.163        0.085      347.057       25.748      855.593
06/02/2014  14:19:00       20.925      105.394       -5.049       70.966       67.874       49.113     5036.218     4606.880     2412.118        1.181        0.603      107.451       36.833        0.118      347.027       25.698      855.601
06/02/2014  14:20:00       18.278       23.025        2.688       63.986       44.159       26.122     4094.209     1950.009      682.383        0.380        0.336       29.398       26.633        0.821      346.705       25.144      855.592
06/02/2014  14:21:00       34.357       50.560        5.531       68.472       36.153       43.032     4688.435     1307.062     1851.780        0.581        0.392       61.129       25.961        0.180      346.763       25.245      855.587
06/02/2014  14:22:00       -4.927       58.684       -5.792       74.401       79.175       33.512     5535.557     6268.621     1123.031        0.821        0.646       58.891       34.172        0.337      346.956       25.577      855.579
06/02/2014  14:23:00       58.678       64.289       -4.220       53.731       51.023       35.664     2887.033     2603.311     1271.937        0.718        0.338       87.041       28.253        0.105      346.901       25.482      855.593
06/02/2014  14:24:00       40.833       38.155        9.834       59.109       30.105       31.196     3493.916      906.335      973.219        0.430        0.269       55.885       12.393        0.049      346.918       25.511      855.611
06/02/2014  14:25:00       -6.899       68.070       18.339       64.552       36.797       34.194     4166.998     1354.031     1169.219        0.585        0.335       68.419       22.113        0.104      346.977       25.613      855.625
06/02/2014  14:26:00       54.408       36.140        9.211       35.009       27.530       29.306     1225.637      757.897      858.828        0.360        0.142       65.317       17.710        0.074      346.811       25.326      855.630
06/02/2014  14:27:00       35.759       19.766        3.502       37.039       30.379       25.666     1371.923      922.866      658.761        0.232        0.148       40.858       26.554        0.422      346.942       25.551      855.623
06/02/2014  14:28:00     -144.871       14.865       -7.413      145.977       75.909       43.804    21309.288     5762.211     1918.800        2.512        1.450      145.631       43.425        0.089      346.861       25.412      855.621
06/02/2014  14:29:00        8.622       40.409       27.464       81.822       54.143       38.144     6694.881     2931.427     1454.929        0.677        0.554       41.319       34.416        0.694      346.899       25.479      855.608
06/02/2014  14:30:00       41.604      112.060       -3.549       66.956       92.464       55.029     4483.061     8549.644     3028.228        1.518        0.803      119.534       52.762        0.195      346.817       25.337      855.572
06/02/2014  14:31:00       22.218      255.452      -32.769       76.933       72.252       38.031     5918.721     5220.332     1446.377        3.970        0.629      256.416       34.802        0.018      346.650       25.046      855.556
06/02/2014  14:32:00       24.471      227.433      -19.269       63.652      131.228       46.141     4051.523    17220.674     2129.025        3.804        1.170      228.746       50.522        0.049      346.627       25.008      855.557
06/02/2014  14:33:00      149.456       61.651       39.309       99.980       69.495       61.091     9995.913     4829.602     3732.157        2.312        0.928      161.672       36.330        0.050      346.684       25.106      855.560
06/02/2014  14:34:00       52.235       -4.385       29.121       56.677       85.630       40.437     3212.288     7332.540     1635.173        0.789        0.609       52.418       23.386        0.199      346.646       25.044      855.550
06/02/2014  14:35:00       24.257        9.134        8.255       37.582       40.101       22.531     1412.371     1608.098      507.651        0.213        0.176       25.919       19.078        0.542      346.920       25.515      855.565
06/02/2014  14:36:00        1.720      -54.322       24.676       37.524       48.583       31.968     1408.079     2360.338     1021.979        0.418        0.240       54.349       17.530        0.104      346.863       25.416      855.572
06/02/2014  14:37:00       -3.123      -73.461      -11.763       40.287       29.574       26.289     1623.055      874.626      691.097        0.437        0.159       73.527       12.761        0.030      346.781       25.275      855.577
06/02/2014  14:38:00     -119.055     -128.959      -13.447       65.904       48.175       34.374     4343.289     2320.861     1181.597        1.941        0.392      175.512       10.272        0.003      346.617       24.994      855.581
06/02/2014  14:39:00      -64.239     -112.946      -16.223       77.910       47.204       26.921     6069.970     2228.224      724.716        1.308        0.451      129.936       15.470        0.014      346.616       24.992      855.588
06/02/2014  14:40:00      -51.491      -32.192        3.155       56.752       48.334       28.318     3220.801     2336.155      801.936        0.503        0.318       60.726       14.967        0.061      346.687       25.114      855.580
06/02/2014  14:41:00      -72.556       -5.576        8.840       35.132       33.747       27.151     1234.258     1138.859      737.192        0.424        0.156       72.769       20.635        0.080      346.767       25.251      855.583
06/02/2014  14:42:00      -68.837      -22.851        5.935       47.941       39.887       24.349     2298.332     1590.996      592.895        0.489        0.224       72.531       21.230        0.086      346.836       25.369      855.591
06/02/2014  14:43:00      -29.818      -94.196        7.351       53.169       38.377       24.172     2826.955     1472.803      584.304        0.735        0.244       98.803       27.547        0.078      346.735       25.195      855.601
06/02/2014  14:44:00     -137.744     -114.965       -0.067      117.747       53.301       31.239    13864.449     2841.011      975.884        2.493        0.884      179.417       29.800        0.028      346.735       25.194      855.585
06/02/2014  14:45:00     -147.224      -87.760       20.970      141.319       98.405       62.584    19971.140     9683.631     3916.815        3.169        1.679      171.396       82.285        0.230      346.818       25.336      855.593
06/02/2014  14:46:00     -303.872      -76.608      -11.771      139.321       96.120       75.517    19410.280     9239.019     5702.759        6.634        1.718      313.380       65.515        0.044      346.719       25.165      855.584
06/02/2014  14:47:00     -256.432     -109.796      -14.688      147.772      135.129       59.970    21836.516    18259.765     3596.414        6.085        2.185      278.949       72.301        0.067      346.726       25.176      855.566
06/02/2014  14:48:00     -114.129      -36.065       16.492      137.585      125.893       76.746    18929.725    15848.979     5889.935        2.763        2.033      119.692       73.912        0.381      346.814       25.331      855.557
06/02/2014  14:49:00     -248.697      -60.506       -8.866      114.399      146.428       57.905    13087.139    21441.163     3353.018        5.173        1.894      255.951       56.796        0.049      346.736       25.193      855.548
06/02/2014  14:50:00     -203.240     -149.184        2.607      110.673       85.771       57.835    12248.494     7356.685     3344.855        4.326        1.148      252.116       62.002        0.060      346.715       25.159      855.543
06/02/2014  14:51:00     -247.531     -199.666       -5.443      136.613      147.479       67.025    18663.171    21750.080     4492.404        7.303        2.245      318.022       67.989        0.046      346.685       25.105      855.548
06/02/2014  14:52:00     -425.215     -285.076      -24.449      219.691      157.855       84.268    48264.207    24918.228     7101.078       17.146        4.014      511.933       78.986        0.024      346.640       25.029      855.550
06/02/2014  14:53:00     -258.287      -97.095       -1.122      139.255       92.236       58.429    19391.820     8507.478     3413.936        5.372        1.566      275.935       63.661        0.053      346.700       25.132      855.572
06/02/2014  14:54:00     -301.348     -135.841       -6.470      143.424      115.009       79.320    20570.516    13227.158     6291.616        7.469        2.004      330.550       69.864        0.045      346.632       25.016      855.582
06/02/2014  14:55:00     -366.416     -209.574        9.732      179.579      124.429       86.395    32248.501    15482.615     7464.021       11.672        2.760      422.116       87.266        0.043      346.583       24.930      855.582
06/02/2014  14:56:00     -351.789     -158.657      -16.031      159.545       86.047       62.042    25454.681     7404.089     3849.150        9.294        1.835      385.912       70.922        0.034      346.591       24.946      855.635
06/02/2014  14:57:00     -285.983     -213.503       -6.780      196.542      138.013       70.281    38628.779    19047.676     4939.391        9.500        3.131      356.888       75.688        0.045      346.598       24.957      855.618
06/02/2014  14:58:00     -207.703     -115.252       -0.904      157.683      125.953       61.082    24863.993    15864.043     3731.046        5.043        2.223      237.537       40.944        0.030      346.725       25.176      855.630
06/02/2014  14:59:00     -366.671     -184.581      -10.438      217.367      160.840       67.120    47248.325    25869.454     4505.082       12.311        3.881      410.509       74.951        0.033      346.684       25.106      855.688
06/02/2014  15:00:00     -157.413      -68.329       11.272      110.981      108.436       62.343    12316.779    11758.474     3886.628        2.876        1.398      171.604       64.527        0.141      346.730       25.187      855.730
06/02/2014  15:01:00     -202.256      -61.023       14.351      125.811      117.487       70.877    15828.339    13803.233     5023.574        3.974        1.733      211.261       76.045        0.130      346.690       25.117      855.729
06/02/2014  15:02:00     -434.204      -81.294      -17.446      173.869      109.266       79.661    30230.264    11939.053     6345.895       12.197        2.426      441.749       92.527        0.044      346.564       24.899      855.757
06/02/2014  15:03:00     -251.249     -100.458       -3.877      168.865      114.530       66.167    28515.435    13117.155     4378.073        5.961        2.301      270.588       77.900        0.083      346.674       25.089      855.774
06/02/2014  15:04:00     -472.374     -118.022      -39.459      219.275      167.189       90.764    48081.486    27952.057     8238.115       16.143        4.214      486.895       88.775        0.033      346.427       24.663      855.794
06/02/2014  15:05:00     -483.766       62.965      -26.765      324.014      220.149      137.456   104985.307    48465.502    18894.172       20.549        8.617      487.846      145.289        0.089      346.223       24.313      855.730
06/02/2014  15:06:00     -381.412       93.345      -35.528      278.752      214.990      115.864    77702.552    46220.810    13424.435       14.637        6.867      392.668      123.622        0.099      346.132       24.156      855.688
06/02/2014  15:07:00     -497.697      -22.597      -18.416      321.609      332.969      129.092   103432.617   110868.434    16664.694       23.971       11.548      498.210      137.703        0.076      345.876       23.715      855.694
06/02/2014  15:08:00     -820.733       90.445      -79.775      327.406      301.513      144.712   107194.796    90910.140    20941.477       45.355       10.952      825.701      118.585        0.021      345.563       23.179      855.794
06/02/2014  15:09:00     -585.668      331.665      -84.614      342.105      284.519      124.246   117035.831    80950.886    15437.126       33.675       10.671      673.059      158.917        0.056      345.844       23.661      856.001
06/02/2014  15:10:00     -302.058      226.756      -59.259      178.580      249.431      100.150    31890.833    62215.857    10030.038       12.513        5.207      377.700       81.821        0.047      345.807       23.599      856.133
06/02/2014  15:11:00     -449.040      170.859      -14.657      367.783      233.083      130.736   135264.056    54327.530    17092.017       21.882       10.334      480.448      170.273        0.126      345.660       23.345      856.134
06/02/2014  15:12:00     -404.810      286.069      -83.898      189.841      155.633      101.037    36039.489    24221.754    10208.393       16.159        3.523      495.688       68.635        0.019      345.674       23.368      856.148
06/02/2014  15:13:00      -60.281      191.273      -20.867      102.962      129.653       71.575    10601.076    16809.993     5122.921        3.659        1.627      200.547       68.583        0.117      345.773       23.541      855.968
06/02/2014  15:14:00     -331.795      303.616      -72.968      109.987      168.230       84.374    12097.237    28301.441     7119.049       12.755        2.376      449.745      105.125        0.055      345.856       23.681      855.819
06/02/2014  15:15:00     -246.234      341.984      -52.173      145.747      137.659       75.524    21242.185    18949.898     5703.827       11.309        2.295      421.407       73.302        0.030      345.888       23.737      855.748
06/02/2014  15:16:00     -302.258      506.857      -76.227      178.098      216.417       88.511    31719.022    46836.133     7834.162       22.021        4.319      590.138       94.803        0.026      345.824       23.628      855.767
06/02/2014  15:17:00     -387.797      490.596     -102.622      124.967      145.813       75.159    15616.845    21261.346     5648.822       22.206        2.126      625.357       67.198        0.012      345.796       23.579      855.741
06/02/2014  15:18:00     -243.476      382.966      -58.029      149.278      182.197       88.867    22284.038    33195.583     7897.364       13.633        3.169      453.810       79.416        0.031      345.860       23.687      855.622
06/02/2014  15:19:00     -129.530      550.107      -65.714      138.701      166.799       84.320    19237.980    27821.901     7109.942       18.893        2.708      565.151       78.191        0.019      345.932       23.812      855.654
06/02/2014  15:20:00      -32.488      431.243      -55.962       95.253      222.268       60.374     9073.184    49403.170     3645.051       12.613        3.106      432.465       93.684        0.047      346.006       23.939      855.575
06/02/2014  15:21:00     -105.528      391.369      -20.340      169.830      217.658      112.633    28842.388    47375.080    12686.081       12.679        4.445      405.347      120.088        0.088      346.027       23.976      855.552
06/02/2014  15:22:00     -252.788      380.413      -62.668      141.847      213.297       88.899    20120.511    45495.757     7903.092       14.302        3.676      456.745       92.802        0.041      346.059       24.030      855.576
06/02/2014  15:23:00     -141.634      428.250      -71.892      115.349      110.278       64.221    13305.476    12161.151     4124.349       11.910        1.480      451.063       55.393        0.015      346.082       24.069      855.537
06/02/2014  15:24:00      -81.270      477.439      -56.942      118.092      165.976       63.996    13945.667    27547.903     4095.507       14.168        2.279      484.307       57.862        0.014      346.070       24.051      855.500
06/02/2014  15:25:00     -208.947      286.206      -41.988      113.496      167.189       76.024    12881.421    27952.105     5779.681        8.697        2.331      354.363       74.695        0.044      346.132       24.156      855.529
06/02/2014  15:26:00     -183.977      282.129      -50.282       97.928      100.895       60.332     9589.975    10179.888     3639.983        6.969        1.170      336.815       63.527        0.036      346.171       24.222      855.494
06/02/2014  15:27:00     -262.305      352.475      -61.330      107.592      131.090       76.484    11576.123    17184.631     5849.790       11.570        1.731      439.366       77.558        0.031      346.213       24.295      855.505
06/02/2014  15:28:00     -216.250      244.075      -53.215      115.015      104.424       69.467    13228.356    10904.428     4825.695        6.906        1.448      326.093       69.429        0.045      346.179       24.235      855.517
06/02/2014  15:29:00     -113.405      432.832      -50.802      123.687      164.561       78.227    15298.434    27080.194     6119.437       12.563        2.425      447.442       80.347        0.032      346.165       24.213      855.500
06/02/2014  15:30:00      -68.030      280.704      -12.466       99.361      165.994       62.439     9872.517    27554.034     3898.639        6.244        2.066      288.830       71.682        0.062      346.198       24.270      855.455
06/02/2014  15:31:00       49.567      170.196        8.849      128.393      122.046       82.887    16484.874    14895.264     6870.192        3.487        1.913      177.267       70.833        0.160      346.186       24.249      855.407
06/02/2014  15:32:00       38.114      256.757       -9.916       90.864      176.504       86.731     8256.311    31153.645     7522.350        5.719        2.347      259.570       90.884        0.123      346.108       24.115      855.356
06/02/2014  15:33:00       44.088      390.835      -46.894       87.841      169.981       80.686     7716.040    28893.645     6510.259       10.000        2.156      393.314       95.329        0.059      346.108       24.115      855.265
06/02/2014  15:34:00       16.145      225.150        3.752       90.529      161.203       82.838     8195.590    25986.526     6862.076        4.600        2.052      225.728       85.279        0.143      346.168       24.219      855.253
06/02/2014  15:35:00       34.091      245.466       -9.126      118.987      185.545       82.730    14157.998    34426.925     6844.233        5.845        2.771      247.822       91.999        0.138      346.194       24.263      855.214
06/02/2014  15:36:00       71.461      226.531       -5.290      116.319      141.275       89.218    13530.028    19958.728     7959.774        4.894        2.072      237.535       65.701        0.077      346.214       24.298      855.226
06/02/2014  15:37:00      -32.228       52.174       10.957      106.237      130.654       65.182    11286.260    17070.446     4248.632        1.824        1.630       61.325       69.036        1.267      346.213       24.298      855.117
06/02/2014  15:38:00     -262.531     -115.284      -35.746      126.933      139.644       63.240    16112.035    19500.334     3999.317        6.154        1.981      286.728       36.134        0.016      346.192       24.259      855.166
06/02/2014  15:39:00     -188.395      -91.089       -0.677      140.739      102.106       62.540    19807.338    10425.546     3911.288        3.896        1.707      209.260       52.655        0.063      346.271       24.397      855.321
06/02/2014  15:40:00     -141.725     -188.420       -1.173      108.451       84.792       55.980    11761.520     7189.644     3133.709        3.883        1.104      235.771       56.096        0.057      346.223       24.313      855.395
06/02/2014  15:41:00      -90.535     -169.960        8.768       92.815      148.244       48.885     8614.595    21976.409     2389.781        3.506        1.649      192.570       46.512        0.058      346.186       24.249      855.365
06/02/2014  15:42:00       33.303      103.554        7.837       80.694       79.299       45.464     6511.557     6288.342     2066.961        1.338        0.743      108.778       32.183        0.088      346.271       24.398      855.413
06/02/2014  15:43:00       49.176      370.957      -51.426       81.504      109.014       69.324     6642.909    11884.119     4805.855        8.300        1.167      374.202       67.889        0.033      346.245       24.349      855.571
06/02/2014  15:44:00      -40.428      200.642      -23.840       91.528      141.254       52.598     8377.410    19952.625     2766.499        3.677        1.555      204.674       61.990        0.092      346.265       24.385      855.639
06/02/2014  15:45:00     -159.545      156.839      -28.790       61.561       87.757       45.307     3789.765     7701.249     2052.769        3.221        0.677      223.726       31.724        0.020      346.233       24.330      855.661
06/02/2014  15:46:00     -232.635       75.623      -10.841      126.280      118.787       42.533    15946.519    14110.407     1809.066        4.590        1.593      244.618       44.962        0.034      346.195       24.265      855.682
06/02/2014  15:47:00     -286.658      126.042      -40.169      163.439      128.027       66.541    26712.274    16390.910     4427.710        7.359        2.377      313.144       73.942        0.056      345.988       23.909      855.689
06/02/2014  15:48:00     -194.785      114.502      -23.655      107.618       90.970       46.962    11581.631     8275.495     2205.383        3.683        1.103      225.947       51.316        0.052      346.031       23.983      855.674
06/02/2014  15:49:00     -229.998      228.118      -50.988       91.064       98.044       66.640     8292.655     9612.531     4440.881        6.494        1.117      323.940       63.760        0.039      346.013       23.952      855.654
06/02/2014  15:50:00     -244.680      246.147      -58.151      118.850       91.366       53.197    14125.291     8347.686     2829.916        7.457        1.265      347.069       61.789        0.032      346.033       23.986      855.615
06/02/2014  15:51:00      -28.287      305.179      -48.701       73.666      190.229       55.133     5426.631    36186.954     3039.612        7.047        2.233      306.488       66.970        0.048      346.118       24.132      855.561
06/02/2014  15:52:00     -237.512      -17.284      -14.768      125.866       78.277       44.777    15842.197     6127.219     2005.011        4.045        1.199      238.140       46.668        0.038      346.137       24.165      855.646
06/02/2014  15:53:00     -159.757       21.891       -5.288      132.829      102.434       63.272    17643.498    10492.794     4003.288        2.908        1.607      161.250       71.890        0.199      346.099       24.099      855.661
06/02/2014  15:54:00     -238.370       95.152      -37.523      122.925      120.501       48.689    15110.622    14520.488     2370.571        4.964        1.600      256.660       47.848        0.035      346.077       24.062      855.680
06/02/2014  15:55:00     -323.439      110.514      -41.707      114.629       90.365       50.624    13139.870     8165.887     2562.749        7.121        1.193      341.798       38.372        0.013      346.024       23.969      855.722
06/02/2014  15:56:00     -219.071      229.630      -53.709      115.293       80.413       52.078    13292.461     6466.172     2712.125        6.303        1.124      317.367       59.543        0.035      346.133       24.157      855.695
06/02/2014  15:57:00     -178.220      186.314      -26.539       77.528       93.670       66.654     6010.536     8773.995     4442.710        4.320        0.961      257.828       51.451        0.040      346.079       24.064      855.710
06/02/2014  15:58:00     -163.295       96.191      -32.211       61.973       60.747       46.438     3840.694     3690.153     2156.476        2.332        0.484      189.520       28.851        0.023      346.105       24.111      855.729
06/02/2014  15:59:00     -143.015      189.231      -27.760       78.967      115.888       48.592     6235.779    13430.120     2361.213        3.953        1.101      237.195       53.815        0.051      346.111       24.120      855.723
06/02/2014  16:00:00     -104.573      145.328      -37.107       75.196       94.774       40.208     5654.377     8982.159     1616.645        2.484        0.813      179.041       56.168        0.098      346.173       24.228      855.710
06/02/2014  16:01:00      -46.778      132.733      -22.558       40.765       69.604       27.442     1661.758     4844.756      753.062        1.379        0.363      140.735       15.954        0.013      346.176       24.234      855.682
06/02/2014  16:02:00      -91.267      198.225      -26.832       53.524       81.191       46.201     2864.837     6591.907     2134.544        2.996        0.580      218.226       46.944        0.046      346.113       24.124      855.675
06/02/2014  16:03:00     -117.590       23.480       -4.827       64.281      142.300       40.540     4132.098    20249.301     1643.505        2.021        1.301      119.912       44.585        0.138      346.153       24.193      855.674
06/02/2014  16:04:00      -96.237       23.607        1.502       92.163       44.809       40.807     8494.046     2007.875     1665.230        1.099        0.608       99.090       38.666        0.152      346.260       24.379      855.666
06/02/2014  16:05:00     -277.197       55.976      -27.389      123.004       51.918       57.083    15130.010     2695.503     3258.525        5.090        1.054      282.792       68.510        0.059      346.181       24.242      855.654
06/02/2014  16:06:00     -341.803        3.612      -36.603      135.058      114.288       68.344    18240.798    13061.683     4670.965        7.707        1.799      341.822       62.824        0.034      346.099       24.098      855.639
06/02/2014  16:07:00     -241.743      -37.489      -31.009      122.280      112.579       51.732    14952.508    12674.083     2676.224        4.555        1.515      244.633       40.586        0.028      346.157       24.199      855.623
06/02/2014  16:08:00     -249.442      -16.737      -27.611      105.881       83.738       39.032    11210.686     7011.984     1523.479        4.150        0.987      250.003       40.649        0.026      346.138       24.164      855.632
06/02/2014  16:09:00     -202.611      -11.993      -14.671       86.869       69.394       41.441     7546.235     4815.507     1717.339        2.774        0.704      202.965       33.221        0.027      346.175       24.231      855.643
06/02/2014  16:10:00     -182.953      -15.840      -11.213       54.685       40.700       30.574     2990.399     1656.466      934.759        1.971        0.279      183.638       27.423        0.022      346.108       24.116      855.630
06/02/2014  16:11:00     -282.704      -90.700      -10.836       87.546       78.622       41.045     7664.327     6181.392     1684.725        5.189        0.777      296.897       33.497        0.013      346.092       24.084      855.631
06/02/2014  16:12:00      -85.869       20.724       -0.532       63.606       61.131       30.707     4045.749     3737.040      942.919        0.826        0.436       88.334       21.193        0.058      346.173       24.227      855.645
06/02/2014  16:13:00     -156.327       48.283      -30.400       45.125       83.074       31.729     2036.255     6901.307     1006.713        1.882        0.497      163.614       18.908        0.013      346.143       24.177      855.661
06/02/2014  16:14:00     -246.868      -86.670      -16.024       93.644      110.302       48.594     8769.165    12166.434     2361.346        4.600        1.165      261.640       47.576        0.033      346.142       24.171      855.681
06/02/2014  16:15:00     -146.300      -78.398      -17.170       97.875       59.539       42.908     9579.430     3544.858     1841.113        2.140        0.748      165.981       35.694        0.046      346.139       24.169      855.694
06/02/2014  16:16:00     -199.651      -73.474       -6.206      118.824       90.243       59.460    14119.225     8143.775     3535.501        3.554        1.290      212.741       33.855        0.025      346.151       24.188      855.705
06/02/2014  16:17:00     -270.154      -17.273      -18.827       95.295       83.673       53.421     9081.078     7001.247     2853.802        4.628        0.947      270.705       56.657        0.044      346.105       24.107      855.717
06/02/2014  16:18:00     -268.939       30.715      -16.583       90.568      107.848       50.673     8202.540    11631.287     2567.740        4.797        1.120      270.687       38.450        0.020      346.146       24.179      855.708
06/02/2014  16:19:00     -175.077        1.841      -19.877      167.201       78.058       46.986    27956.175     6093.037     2207.660        3.365        1.813      175.086       66.752        0.145      346.143       24.178      855.695
06/02/2014  16:20:00     -173.376       -9.043      -23.824       83.129       82.140       41.581     6910.512     6747.022     1728.945        2.304        0.769      173.612       35.634        0.042      346.219       24.306      855.629
06/02/2014  16:21:00     -350.191     -116.103      -33.016       98.388       91.403       53.979     9680.277     8354.552     2913.707        7.907        1.047      368.936       45.631        0.015      346.246       24.351      855.695
06/02/2014  16:22:00     -339.696      -90.249       -4.431      125.886       92.390       57.286    15847.367     8535.950     3281.658        7.561        1.383      351.480       58.553        0.028      346.131       24.155      855.702
06/02/2014  16:23:00     -318.121     -146.678      -11.899      121.503      133.554       63.717    14763.055    17836.648     4059.880        7.975        1.833      350.308       61.731        0.031      346.202       24.275      855.694
06/02/2014  16:24:00     -364.637     -208.500        2.744      186.246      127.433       79.261    34687.464    16239.251     6282.374       11.681        2.860      420.038       89.997        0.046      346.315       24.470      855.646
06/02/2014  16:25:00     -298.213     -166.399       -2.697      168.697      124.608       63.338    28458.693    15527.258     4011.757        8.230        2.400      341.497       68.278        0.040      346.443       24.691      855.607
06/02/2014  16:26:00     -210.015     -167.059       19.821      212.722      126.081       70.765    45250.589    15896.507     5007.651        6.927        3.308      268.356       91.729        0.117      346.531       24.843      855.589
06/02/2014  16:27:00     -246.923     -201.267       -3.027      134.931      114.226       72.688    18206.447    13047.687     5283.480        6.901        1.827      318.558       72.620        0.052      346.530       24.840      855.577
06/02/2014  16:28:00     -228.664     -156.162        6.470      134.062      100.353       57.546    17972.744    10070.768     3311.588        5.403        1.568      276.900       62.668        0.051      346.516       24.815      855.549
06/02/2014  16:29:00     -227.603      -65.467       -2.456      172.778      101.358       64.346    29852.290    10273.416     4140.463        5.017        2.213      236.832       74.504        0.099      346.575       24.918      855.533
06/02/2014  16:30:00     -386.869     -217.218      -15.243      187.422      147.920       76.673    35126.927    21880.463     5878.807       12.997        3.144      443.679       95.203        0.046      346.557       24.888      855.539
06/02/2014  16:31:00     -431.125     -186.369      -11.096      281.143      185.400       89.216    79041.138    34373.132     7959.507       17.103        6.069      469.683      119.303        0.065      346.439       24.684      855.531
06/02/2014  16:32:00     -393.775     -179.706       -0.651      230.377      167.459       74.717    53073.678    28042.619     5582.665       13.701        4.335      432.842       69.641        0.026      346.398       24.614      855.508
06/02/2014  16:33:00     -391.391     -146.211       14.158      278.005      197.590       99.991    77286.741    39041.636     9998.255       15.052        6.316      417.809      117.632        0.079      346.397       24.611      855.492
06/02/2014  16:34:00     -379.576     -231.452       -6.058      176.411      166.353       82.848    31120.886    27673.329     6863.781       13.166        3.283      444.577       90.229        0.041      346.378       24.579      855.521
06/02/2014  16:35:00     -576.193     -326.008       -9.751      275.007      222.602      103.407    75628.990    49551.715    10692.948       28.710        6.794      662.027      123.106        0.035      346.293       24.431      855.505
06/02/2014  16:36:00     -498.331     -207.813      -24.196      287.961      186.683       94.210    82921.525    34850.372     8875.444       20.935        6.332      539.926      119.111        0.049      346.221       24.310      855.513
06/02/2014  16:37:00     -489.099     -359.075       -1.887      311.221      241.576      139.272    96858.560    58358.948    19396.725       27.135        8.731      606.756      163.599        0.073      346.155       24.195      855.504
06/02/2014  16:38:00     -402.081     -265.009      -11.772      256.021      198.886      107.844    65546.965    39555.752    11630.434       17.436        5.837      481.559      122.104        0.064      346.238       24.337      855.489
06/02/2014  16:39:00     -602.710     -318.036      -20.293      227.201      194.545      103.682    51620.343    37847.722    10750.000       28.250        5.011      681.474       92.226        0.018      346.130       24.151      855.519
06/02/2014  16:40:00     -557.393     -339.939      -33.351      236.325      200.032      104.670    55849.724    40012.984    10955.857       26.707        5.341      652.875      112.973        0.030      346.128       24.150      855.509
06/02/2014  16:41:00     -468.832     -210.481      -17.726      248.133      177.460       93.848    61570.024    31491.895     8807.397       18.312        5.093      513.912      118.301        0.053      346.191       24.256      855.514
06/02/2014  16:42:00     -452.771     -154.982       -3.436      256.793      202.493      112.185    65942.447    41003.380    12585.373       17.426        5.977      478.561      141.417        0.087      346.235       24.332      855.537
06/02/2014  16:43:00     -382.213     -263.052      -15.221      174.983      189.429       93.176    30618.968    35883.313     8681.712       14.533        3.759      463.986       88.190        0.036      346.209       24.289      855.534
06/02/2014  16:44:00     -430.507     -191.735       -4.854      236.660      179.462      101.508    56008.022    32206.728    10303.786       16.030        4.926      471.273      106.492        0.051      346.151       24.189      855.522
06/02/2014  16:45:00     -375.558     -220.779      -12.177      170.001      177.024       87.002    28900.273    31337.618     7569.356       12.886        3.390      435.646       86.099        0.039      346.096       24.095      855.549
06/02/2014  16:46:00     -255.427     -195.264        9.764      213.504      171.205       94.966    45583.848    29311.076     9018.462        9.367        4.196      321.513      126.422        0.155      346.192       24.260      855.546
06/02/2014  16:47:00     -186.305     -153.249        4.061      181.597      162.364       80.028    32977.504    26362.135     6404.482        6.196        3.287      241.236       79.510        0.109      346.242       24.345      855.564
06/02/2014  16:48:00     -391.819     -270.831      -24.784      271.686      211.238       92.122    73813.452    44621.306     8486.525       17.718        6.346      476.310      113.570        0.057      346.145       24.178      855.576
06/02/2014  16:49:00     -494.040     -216.797      -24.578      229.554      201.954      102.124    52695.004    40785.351    10429.254       19.777        5.195      539.515      118.646        0.048      345.997       23.925      855.550
06/02/2014  16:50:00     -360.427     -141.804      -14.819      241.527      193.148      112.455    58335.188    37306.118    12646.126       12.924        5.414      387.319      129.173        0.111      346.125       24.146      855.559
06/02/2014  16:51:00     -428.432     -343.584      -30.114      222.478      218.382      104.363    49496.319    47690.829    10891.603       20.527        5.404      549.185      114.411        0.043      346.028       23.977      855.536
06/02/2014  16:52:00     -489.746      -94.507      -30.709      223.733      209.429      106.760    50056.675    43860.469    11397.657       17.750        5.266      498.781       99.238        0.040      346.153       24.191      855.518
06/02/2014  16:53:00     -384.048     -218.365       -7.997      196.312      203.972      110.469    38538.475    41604.529    12203.351       14.377        4.617      441.787       98.486        0.050      346.182       24.241      855.536
06/02/2014  16:54:00     -569.235     -252.403       -2.703      260.398      225.772      104.128    67807.151    50972.958    10842.688       25.866        6.481      622.684      125.671        0.041      346.133       24.158      855.528
06/02/2014  16:55:00     -515.043     -286.779      -43.534      220.357      184.713      105.113    48557.103    34118.870    11048.757       22.155        4.686      589.501       96.673        0.027      346.172       24.225      855.556
06/02/2014  16:56:00     -252.644     -174.150        6.233      191.498      151.010       80.325    36671.483    22804.012     6452.141        8.005        3.296      306.850       97.047        0.100      346.359       24.547      855.585
06/02/2014  16:57:00     -299.984     -152.055       -9.714      245.561      156.064       86.001    60300.417    24355.932     7396.208       10.261        4.603      336.320      107.634        0.102      346.313       24.469      855.571
06/02/2014  16:58:00     -316.855     -129.013        7.820      170.247      159.977       80.476    28983.981    25592.758     6476.447        8.907        3.053      342.113       87.882        0.066      346.214       24.296      855.561
06/02/2014  16:59:00     -305.997      -32.535        2.019      174.586      153.304       81.842    30480.198    23502.018     6698.083        7.768        3.034      307.722       83.260        0.073      346.360       24.548      855.536
06/02/2014  17:00:00     -335.927      -95.050        3.146      160.064      148.462       82.483    25620.375    22041.003     6803.479        8.817        2.723      349.115       77.942        0.050      346.418       24.648      855.520
06/02/2014  17:01:00     -324.349     -168.610      -24.687      167.755      150.379       75.906    28141.708    22613.771     5761.790        9.537        2.826      365.556       90.933        0.062      346.397       24.612      855.522
06/02/2014  17:02:00     -255.758      -14.302        0.078      176.601      143.299       77.473    31187.969    20534.633     6002.012        6.166        2.886      256.158       88.267        0.119      346.587       24.939      855.530
06/02/2014  17:03:00     -370.643     -140.485        0.193      198.467      194.974       97.892    39389.096    38014.718     9582.863       12.203        4.349      396.373      110.026        0.077      346.523       24.827      855.521
06/02/2014  17:04:00     -369.253     -252.211      -11.841      161.458      137.890       88.879    26068.842    19013.624     7899.465       12.653        2.649      447.167       82.093        0.034      346.316       24.471      855.515
06/02/2014  17:05:00     -311.220     -127.577       21.877      226.846      219.360       98.142    51458.893    48118.738     9631.848       11.139        5.460      336.354      111.750        0.110      346.436       24.679      855.475
06/02/2014  17:06:00     -292.565     -218.023       -4.909      216.363      167.031       82.890    46813.044    27899.234     6870.712       10.735        4.079      364.868      112.133        0.094      346.491       24.773      855.489
06/02/2014  17:07:00     -368.794     -146.822      -22.515      269.828      177.664       97.959    72807.412    31564.429     9595.912       13.600        5.698      396.945      124.622        0.099      346.519       24.823      855.484
06/02/2014  17:08:00     -337.161     -238.781        4.187      243.803      198.667      114.159    59439.868    39468.577    13032.326       14.130        5.597      413.152      118.268        0.082      346.436       24.679      855.459
06/02/2014  17:09:00     -327.827      -41.402       -2.331      238.485      174.043       89.103    56874.884    30290.934     7939.368       10.213        4.755      330.431      108.369        0.108      346.539       24.857      855.467
06/02/2014  17:10:00     -417.729        8.840      -19.375      198.492      131.926       80.289    39399.139    17404.464     6446.354       11.909        3.162      417.822       93.287        0.050      346.609       24.976      855.489
